     2              OBSERVATION DATA    GPS                 RINEX VERSION / TYPE
teqc 2002Apr29 battag 20030505 23:32:05UTC                  PGM / RUN BY / DATE
                                                            COMMENT
L2: 1 -> 1; 5 -> 5; 60 -> 9                                 COMMENT
L2: 1 -> 1; 5 -> 5; 60 -> 9                                 COMMENT
L2: 1 -> 1; 5 -> 5; 60 -> 9                                 COMMENT
L2: 1 -> 1; 5 -> 5; 60 -> 9                                 COMMENT
L2: 1 -> 1; 5 -> 5; 60 -> 9                                 COMMENT
Original Marker Name: 32640160                              COMMENT
Campaign Name: UC Berkeley Central Calif 2003-2004          COMMENT
4-Character Station Name: 5003                              COMMENT
6-Character Antenna Code: TRZEPH                            COMMENT
Vertical Measurement Point: MGP                             COMMENT
Vertical Offset to Rinex Ref. Point: 0.0443                 COMMENT
Radial Measurement Point: OGP                               COMMENT
Radial Offset to Rinex Ref. Point: 0.1698                   COMMENT
Antenna Height from Field Measurement: 1.3920 m             COMMENT
Original XYZ: -2662679.6853 -4411428.4358 3746507.4064      COMMENT
New XYZ position is based on association with SCEC monument COMMENT
E1F0Y4Y7+0011. Position of that monument is believed to be  COMMENT
valid to within 1 m horizontally; vertical accuracy         COMMENT
should be no worse than 3-times this value.                 COMMENT
                                                            COMMENT
Revised Rinex header created by UCSD GPS archive for        COMMENT
GSAC on 04-Feb-2005 (2005:035) 16:33:22 GMT                 COMMENT
For assistance contact dagnew@ucsd.edu                      COMMENT
or anderson@python.ucsd.edu                                 COMMENT
                                                            COMMENT
STA05.SF MON 101 PN 39.77 1993                              MARKER NAME
5003                                                        MARKER NUMBER
-Unknown- UNIV CALIF BERKELEY                               OBSERVER / AGENCY
220273264 TRIMBLE 5700 NP 1.20 / SP 0.00                    REC # / TYPE / VERS
12337640 TRM41249.00                                        ANT # / TYPE
 -2662678.0000 -4411430.0000  3746506.0000                  APPROX POSITION XYZ
        1.3373        0.0000        0.0000                  ANTENNA: DELTA H/E/N
     1     1     0                                          WAVELENGTH FACT L1/2
     7    L1    L2    C1    P1    P2    S1    S2            # / TYPES OF OBSERV
    30                                                      INTERVAL
  2003     1    16     0     0   30.000000                  TIME OF FIRST OBS
  2003     1    16    23    59   60.000000                  TIME OF LAST OBS
                                                            END OF HEADER
 03  1 16  0  0 30.0000000  0  8G17G 9G10G30G 6G 5G24G25
  -1206340.24259  -3155520.48856  24612489.3754                   24612493.7034
        37.0004         17.7504
   1927066.73018                  25337989.164
        31.500
 -22256046.89559 -18160343.51757  21380178.8834                   21380178.5314
        49.5004         38.7504
 -25023605.34059 -23669726.67858  20434048.1334                   20434047.0434
        51.0004         40.7504
 -15661003.45759 -13706264.46457  22394426.6334                   22394426.4884
        47.5004         35.5004
 -34597477.00059 -26944535.63258  20690201.0314                   20690199.5904
        53.0004         41.0004
 -26262402.38759 -20420294.28057  22119897.8754                   22119897.8324
        48.5004         36.0004
   -813984.81259   -574266.08656  25411426.3914                   25411428.1914
        39.7504         16.2504
 03  1 16  0  1  0.0000000  0  8G17G 9G10G30G 6G 5G24G25
  -1325247.75049  -3248175.55746  24589861.7974                   24589865.5354
        37.5004         18.2504
                                  25350277.234
        28.000
 -22328460.32049 -18216769.51947  21366399.0234                   21366398.5354
        50.0004         38.0004
 -25082603.50049 -23715699.23648  20422821.4454                   20422820.0824
        51.7504         41.0004
 -15752215.17649 -13777338.46947  22377069.1564                   22377069.4414
        48.2504         35.0004
 -34575531.77049 -26927435.45948  20694377.2664                   20694375.7194
        53.0004         41.0004
 -26214739.26249 -20383154.19147  22128967.6334                   22128967.6374
        49.5004         35.7504
   -876518.06649   -622993.20746  25399527.2584                   25399529.5314
        42.5004         16.2504
 03  1 16  0  1 30.0000000  0  8G17G 9G10G30G 6G 5G24G25
  -1444026.71549  -3340730.48446  24567258.3594                   24567260.5434
        36.5004         16.2504
   2056074.77018                  25362539.438
        31.500
 -22400330.69149 -18272772.34347  21352722.6724                   21352721.6334
        49.5004         37.7504
 -25141084.67649 -23761268.95148  20411692.5004                   20411691.3484
        52.0004         42.0004
 -15843363.96949 -13848363.40947  22359724.2664                   22359724.2774
        48.2504         35.0004
 -34553117.14849 -26909969.53248  20698642.5084                   20698640.4384
        53.2504         41.5004
 -26166915.11749 -20345888.64647  22138068.1804                   22138068.3364
        49.2504         35.5004
   -938626.35549   -671389.23846  25387707.7344                   25387709.5634
        42.0004         17.2504
 03  1 16  0  2  0.0000000  0  8G17G 9G10G30G 6G 5G24G25
  -1562672.70749  -3433181.73246  24544680.7734                   24544683.5124
        37.2504         18.2504
   2120311.551 8                  25374763.313
        30.250
 -22471652.02049 -18328347.36747  21339150.3524                   21339149.4694
        48.7504         38.7504
 -25199043.35949 -23806431.53348  20400663.4614                   20400662.3444
        51.7504         41.2504
 -15934445.18449 -13919335.70347  22342392.3054                   22342392.1134
        47.7504         34.7504
 -34530229.91849 -26892135.33448  20702998.1024                   20702996.3444
        52.7504         41.0004
 -26118928.30149 -20308496.34447  22147200.1564                   22147199.7934
        48.0004         36.2504
  -1000304.66449   -719450.19546  25375970.9304                   25375973.2704
        39.2504         15.5004
 03  1 16  0  2 30.0000000  0  8G17G 9G10G30G 6G 5G24G25
  -1681187.91849  -3525531.14546  24522127.5394                   24522131.3484
        36.7504         18.2504
   2184364.55518                  25386951.828
        28.250
 -22542426.08649 -18383495.95547  21325682.9924                   21325681.7734
        48.0004         38.5004
 -25256481.89849 -23851188.80348  20389733.0554                   20389732.1564
        51.2504         41.0004
 -16025462.16849 -13990257.94447  22325072.2274                   22325071.9184
        49.2504         35.2504
 -34506875.25849 -26873936.90248  20707442.0864                   20707440.5274
        53.0004         40.7504
 -26070784.53149 -20270981.73747  22156361.3914                   22156361.4494
        47.5004         35.2504
  -1061556.37149   -767178.76246  25364314.4924                   25364317.4804
        41.0004         16.2504
 03  1 16  0  3  0.0000000  0  8G17G 9G10G30G 6G 5G24G25
  -1799567.53949  -3617774.82746  24499601.4454                   24499604.3984
        39.0004         18.5004
                                  25399105.195
        29.750
 -22612647.18049 -18438213.64447  21312320.4384                   21312319.1024
        49.0004         38.5004
 -25313395.03149 -23895536.67048  20378902.6414                   20378902.0904
        51.5004         41.0004
 -16116410.52749 -14061126.69047  22307765.3364                   22307765.3054
        48.5004         35.5004
 -34483050.57449 -26855372.22548  20711975.9224                   20711974.1454
        53.0004         42.0004
 -26022482.04349 -20233343.45547  22165553.2894                   22165553.0004
        49.0004         35.5004
  -1122376.77049   -814571.21946  25352741.3054                   25352743.1054
        40.2504         13.7504
 03  1 16  0  3 30.0000000  0  9G17G 9G10G30G 6G 5G24G23G25
  -1917809.05549  -3709910.94546  24477100.5704                   24477103.9024
        36.5004         17.2504
                                  25411230.281
        34.000
 -22682311.88349 -18492497.78947  21299063.7424                   21299062.3134
        49.2504         39.2504
 -25369779.78149 -23939472.79648  20368173.1644                   20368172.1484
        52.0004         41.2504
 -16207288.19149 -14131940.35947  22290471.8674                   22290471.8594
        49.0004         35.7504
 -34458755.47349 -26836440.98248  20716599.0474                   20716597.8524
        52.2504         40.7504
 -25974021.37149 -20195581.90347  22174774.8754                   22174774.8094
        48.7504         36.2504
   -393762.13318                  24456889.625
        34.500
  -1182763.77349   -861625.98446  25341249.0314                   25341251.2424
        40.2504         16.7504
 03  1 16  0  4  0.0000000  0  9G17G 9G10G30G 6G 5G24G23G25
  -2035911.94149  -3801939.02046  24454626.1414                   24454629.5514
        37.2504         17.2504
   2375427.75818                  25423313.867
        33.000
 -22751418.47749 -18546347.04047  21285912.6644                   21285911.6764
        50.7504         38.5004
 -25425634.68749 -23982996.06948  20357544.6254                   20357543.4414
        52.2504         41.2504
 -16298094.79349 -14202698.64047  22273191.7034                   22273192.1564
        48.7504         36.5004
 -34433991.36349 -26817144.28948  20721311.6254                   20721310.5124
        52.7504         41.2504
 -25925404.54749 -20157698.68347  22184026.4774                   22184026.6414
        50.0004         35.5004
   -527150.469 8                  24431505.586
        33.000
  -1242716.90649   -908342.66446  25329840.7584                   25329842.4344
        41.7504         16.2504
 03  1 16  0  4 30.0000000  0  9G17G 9G10G30G 6G 5G24G23G25
  -2153875.61749  -3893858.68046  24432178.4774                   24432181.9414
        36.5004         18.2504
   2438740.742 8                  25435359.266
        28.750
 -22819965.89849 -18599760.58147  21272868.5944                   21272867.7304
        50.0004         38.5004
 -25480959.40249 -24026106.21248  20347016.3204                   20347015.3094
        52.2504         41.2504
 -16388830.58649 -14273401.74447  22255925.2424                   22255925.0314
        48.7504         36.0004
 -34408760.25849 -26797483.70348  20726112.8364                   20726111.2034
        52.0004         41.0004
 -25876634.57449 -20119696.11847  22193307.0394                   22193307.1174
        50.0004         35.5004
   -660559.434 8                  24406119.000
        34.250
  -1302236.21949   -954721.34046  25318514.8204                   25318516.3714
        42.5004         17.7504
 03  1 16  0  5  0.0000000  0  9G17G 9G10G30G 6G 5G24G23G25
  -2271695.70749  -3985666.32046  24409757.6174                   24409762.1334
        37.5004         16.7504
   2501866.176 8                  25447372.859
        29.750
 -22887948.87949 -18652734.30647  21259931.8914                   21259930.9104
        50.5004         38.2504
 -25535748.84449 -24068799.25148  20336590.6174                   20336588.8324
        52.0004         41.7504
 -16479491.59849 -14344046.59047  22238673.0944                   22238672.8554
        48.5004         36.0004
 -34383059.72349 -26777457.32748  20731003.4844                   20731001.8874
        52.5004         40.7504
 -25827709.85549 -20081572.97947  22202617.3594                   22202617.2114
        50.0004         35.5004
   -793983.102 8                  24380728.961
        32.250
  -1361318.04349  -1000759.07446  25307272.1174                   25307273.6954
        41.2504         16.7504
 03  1 16  0  5 30.0000000  0  9G17G 9G10G30G 6G 5G24G23G25
  -2389374.74249  -4077364.04346  24387363.6724                   24387368.1764
        37.5004         18.5004
   2564798.36718                  25459350.422
        31.750
 -22955368.86349 -18705269.31547  21247102.1644                   21247100.9414
        50.5004         38.2504
 -25590005.11349 -24111076.83348  20326265.6024                   20326264.1684
        52.0004         41.5004
 -16570080.50449 -14414635.25147  22221434.2584                   22221434.0554
        49.2504         35.5004
 -34356894.54749 -26757068.88648  20735982.4224                   20735981.0234
        52.5004         40.7504
 -25778635.91049 -20043333.54647  22211955.6954                   22211955.6724
        50.0004         35.5004
   -927422.227 8                  24355336.688
        33.250
  -1419965.26649  -1046458.14146  25296111.7114                   25296114.6884
        42.5004         17.2504
 03  1 16  0  6  0.0000000  0  9G17G 9G10G30G 6G 5G24G23G25
  -2506910.87949  -4168950.55546  24364997.3444                   24365001.8444
        37.5004         16.7504
   2627535.949 8                  25471290.242
        34.500
 -23022223.68749 -18757363.94147  21234380.3364                   21234379.0204
        51.0004         38.7504
 -25643726.35249 -24152937.50348  20316042.9224                   20316041.4614
        52.2504         41.5004
 -16660596.34049 -14485166.96447  22204209.9384                   22204209.2704
        49.7504         35.0004
 -34330265.56249 -26736319.04548  20741050.3204                   20741048.4384
        52.2504         41.0004
 -25729414.70749 -20004979.36347  22221322.3754                   22221322.1954
        48.7504         35.2504
  -1060873.680 8                  24329940.500
        34.250
  -1478176.68049  -1091817.66446  25285033.9224                   25285037.9844
        42.0004         17.7504
 03  1 16  0  6 30.0000000  0  9G17G 9G10G30G 6G 5G24G23G25
  -2624300.72349  -4260423.05946  24342659.7034                   24342663.6724
        37.7504         17.2504
                                  25483188.625
        29.250
 -23088508.99249 -18809014.77347  21221766.3754                   21221765.3164
        50.0004         37.5004
 -25696908.63349 -24194378.22048  20305922.3444                   20305921.1254
        52.0004         41.7504
 -16751035.80949 -14555639.18647  22186999.5164                   22186999.0044
        47.7504         34.5004
 -34303171.43449 -26715206.75048  20746205.9614                   20746204.2464
        52.0004         41.0004
 -25680045.10949 -19966509.55947  22230717.2734                   22230716.5314
        50.0004         35.5004
  -1194332.148 8                  24304543.125
        34.250
  -1535948.91849  -1136834.93446  25274040.5554                   25274044.9104
        42.5004         18.2504
 03  1 16  0  7  0.0000000  0  9G17G 9G10G30G 6G 5G24G23G25
  -2741542.35549  -4351780.10546  24320348.4384                   24320352.7544
        37.5004         16.2504
                                  25495056.047
        27.250
 -23154222.04749 -18860219.71447  21209261.6414                   21209260.6454
        50.5004         37.7504
 -25749549.57849 -24235397.09848  20295905.4384                   20295903.8634
        51.7504         41.5004
 -16841397.50449 -14626050.80347  22169804.3754                   22169803.4574
        46.7504         35.5004
 -34275612.53149 -26693732.28948  20751450.3754                   20751448.5434
        51.0004         40.7504
 -25630528.07849 -19927924.85247  22240140.0234                   22240139.3874
        49.7504         34.7504
  -1327793.926 8                  24279148.227
        34.250
  -1593280.56649  -1181509.02446  25263130.6954                   25263134.7734
        43.7504         19.5004
 03  1 16  0  7 30.0000000  0  9G17G 9G10G30G 6G 5G24G23G25
  -2858640.18449  -4443024.99246  24298065.4384                   24298068.7424
        37.5004         16.7504
   2814569.37918                  25506882.063
        30.000
 -23219366.61749 -18910981.67947  21196864.9774                   21196863.6564
        50.2504         37.5004
 -25801653.23449 -24275997.31648  20285990.3284                   20285988.6134
        52.0004         41.5004
 -16931685.94949 -14696405.35747  22152622.9064                   22152621.5394
        47.5004         36.0004
 -34247595.50849 -26671900.86148  20756781.3204                   20756779.3714
        51.0004         41.0004
 -25580870.97349 -19889230.99347  22249589.1954                   22249588.7584
        50.7504         34.7504
  -1461261.582 8                  24253749.016
        33.000
  -1650176.35249  -1225843.35646  25252303.6884                   25252307.7774
        42.7504         20.5004
 03  1 16  0  8  0.0000000  0  9G17G 9G10G30G 6G 5G24G23G25
  -2975588.70349  -4534153.56646  24275811.0474                   24275813.0004
        38.2504         16.7504
   2876512.23018                  25518672.398
        29.750
 -23283936.23849 -18961295.61247  21184578.0004                   21184576.6644
        50.7504         37.5004
 -25853213.64849 -24316174.23748  20276178.6644                   20276177.4574
        52.2504         40.7504
 -17021895.84049 -14766698.69847  22135456.6024                   22135455.4774
        47.7504         35.5004
 -34219117.02349 -26649709.84948  20762201.1414                   20762199.1884
        51.0004         40.2504
 -25531071.25849 -19850426.01947  22259065.6564                   22259065.4384
        50.0004         33.7504
  -1594727.785 8                  24228351.375
        32.500
  -1706631.45749  -1269834.26346  25241560.7814                   25241564.4924
        42.5004         19.2504
 03  1 16  0  8 30.0000000  0  8G17G10G30G 6G 5G24G23G25
  -3092387.20749  -4625165.21546  24253586.0314                   24253587.1644
        39.0004         15.5004
 -23347930.22349 -19011160.99747  21172400.0784                   21172398.9224
        50.7504         38.2504
 -25904230.53949 -24355927.62648  20266470.3134                   20266469.2234
        52.0004         41.2504
 -17112027.59849 -14836931.16447  22118304.8674                   22118304.1764
        48.2504         35.0004
 -34190179.58649 -26627161.21148  20767707.3524                   20767706.0234
        52.2504         40.5004
 -25481131.94949 -19811512.25847  22268569.0164                   22268568.5004
        50.2504         33.7504
  -1728190.750 8                  24202953.938
        34.000
  -1762646.64149  -1313482.36346  25230900.5634                   25230905.3874
        41.2504         19.0004
 03  1 16  0  9  0.0000000  0  8G17G10G30G 6G 5G24G23G25
  -3209031.02349  -4716056.43746  24231388.7114                   24231389.2074
        36.0004         15.5004
 -23411342.32049 -19060572.96547  21160333.3594                   21160332.3714
        50.0004         37.2504
 -25954698.33249 -24395253.14248  20256866.5784                   20256865.4494
        52.5004         41.5004
 -17202076.27349 -14907098.91847  22101169.0634                   22101168.7464
        48.7504         35.7504
 -34160780.23449 -26604252.64348  20773301.7424                   20773300.3554
        51.5004         40.5004
 -25431050.59049 -19772487.81247  22278099.2814                   22278098.5314
        50.0004         33.5004
  -1861643.488 8                  24177558.758
        32.500
  -1818216.75049  -1356783.69546  25220326.3754                   25220330.2194
        40.7504         18.5004
 03  1 16  0  9 30.0000000  0  8G17G10G30G 6G 5G24G23G25
  -3325521.16049  -4806827.90646  24209220.5704                   24209221.0394
        37.0004         15.5004
 -23474173.50049 -19109532.27247  21148376.5554                   21148375.3554
        50.7504         37.0004
 -26004618.01649 -24434151.57448  20247367.3524                   20247366.0864
        51.5004         41.7504
 -17292043.43449 -14977203.12347  22084048.7504                   22084048.3284
        48.5004         36.0004
 -34130922.53149 -26580986.92048  20778983.7114                   20778981.9694
        51.5004         40.2504
 -25380831.41849 -19733355.97747  22287655.4454                   22287655.0594
        50.0004         33.5004
  -1995085.340 8                  24152165.805
        35.250
  -1873343.78149  -1399739.74546  25209835.7974                   25209838.9574
        40.2504         19.2504
 03  1 16  0 10  0.0000000  0  8G17G10G30G 6G 5G24G23G25
  -3441847.59049  -4897471.87946  24187084.2274                   24187084.6564
        37.2504         13.7504
 -23536413.11749 -19158030.60247  21136532.5164                   21136531.3134
        49.5004         36.7504
 -26053979.53949 -24472615.06148  20237974.0164                   20237972.7624
        51.2504         41.0004
 -17381919.45349 -15047236.33147  22066946.2344                   22066945.1254
        48.0004         35.5004
 -34100599.09049 -26557358.27448  20784753.9384                   20784752.2934
        51.5004         40.2504
 -25330467.44949 -19694111.32547  22297239.2114                   22297238.9184
        49.7504         32.5004
  -2128504.676 9                  24126776.594
        37.000
  -1928018.18049  -1442343.13546  25199432.2274                   25199434.6644
        42.0004         19.0004
 03  1 16  0 10 30.0000000  0  8G17G10G30G 6G 5G24G23G25
  -3558006.71549  -4987985.36746  24164980.4454                   24164980.4344
        38.5004         15.5004
 -23598056.92249 -19206064.66747  21124802.2504                   21124800.7154
        48.5004         36.7504
 -26102778.82049 -24510640.45248  20228687.8444                   20228686.5204
        52.2504         40.7504
 -17471701.06649 -15117195.97847  22049861.2274                   22049860.0944
        46.5004         36.0004
 -34069808.48449 -26533365.61348  20790613.3444                   20790611.4024
        51.0004         40.5004
 -25279957.99249 -19654753.30547  22306851.0314                   22306850.0084
        49.5004         32.0004
  -2261896.094 8                  24101393.711
        35.000
  -1982236.70749  -1484591.33846  25189114.5314                   25189117.2344
        42.2504         19.5004
 03  1 16  0 11  0.0000000  0  8G17G10G30G 6G 5G24G23G25
  -3673998.55949  -5078368.54346  24142907.8284                   24142909.3984
        38.7504         16.2504
 -23659104.08249 -19253633.83947  21113185.1334                   21113183.5474
        47.2504         36.5004
 -26151015.57849 -24548227.50748  20219508.8204                   20219507.5634
        52.0004         41.0004
 -17561388.51249 -15187082.24047  22032793.8674                   22032793.4144
        45.5004         35.2504
 -34038553.00849 -26509010.70348  20796561.0314                   20796559.4654
        50.0004         40.0004
 -25229305.78549 -19615284.04247  22316489.7274                   22316489.4494
        49.5004         32.2504
  -2395257.629 9                  24076015.648
        38.000
  -2036000.04349  -1526484.78746  25178883.7504                   25178886.6884
        42.0004         20.2504
 03  1 16  0 11 30.0000000  0  8G17G10G30G 6G 5G24G23G25
  -3789822.73049  -5168621.07046  24120866.7274                   24120868.5164
        38.0004         17.7504
 -23719554.16449 -19300737.73847  21101682.0554                   21101680.4064
        48.0004         36.7504
 -26198689.69149 -24585376.13548  20210436.6644                   20210435.4144
        52.0004         41.7504
 -17650981.91449 -15256895.23247  22015744.9144                   22015743.8054
        46.2504         35.7504
 -34006834.91049 -26484295.32848  20802597.2194                   20802595.3914
        50.5004         40.7504
 -25178513.44949 -19575705.59247  22326155.3134                   22326154.7584
        49.5004         31.5004
  -2528587.461 9                  24050643.344
        37.500
  -2089308.85249  -1568024.06846  25168738.1484                   25168742.1804
        41.5004         21.0004
 03  1 16  0 12  0.0000000  0  8G17G10G30G 6G 5G24G23G25
  -3905480.21149  -5258743.60246  24098857.6804                   24098860.3444
        38.7504         18.5004
 -23779407.09849 -19347376.32447  21090292.5084                   21090290.9264
        48.5004         36.5004
 -26245801.37149 -24622086.51148  20201471.6804                   20201470.5234
        52.2504         41.2504
 -17740482.05949 -15326635.55547  21998713.5634                   21998712.6414
        47.5004         35.5004
 -33974657.29349 -26459221.87448  20808719.9224                   20808718.4104
        50.2504         41.0004
 -25127584.40649 -19536020.63747  22335846.9924                   22335845.7194
        49.0004         31.5004
  -2661884.340 9                  24025277.148
        37.250
  -2142164.30549  -1609210.08446  25158680.3284                   25158683.9264
        39.5004         20.0004
 03  1 16  0 12 30.0000000  0  8G17G10G30G 6G 5G24G23G25
  -4020970.07849  -5348735.69346  24076881.2194                   24076882.8674
        38.2504         18.5004
 -23838661.83249 -19393548.80147  21079016.7584                   21079015.3244
        48.0004         37.0004
 -26292349.74649 -24658357.95448  20192613.9694                   20192612.4654
        53.0004         41.0004
 -17829888.39849 -15396302.77347  21981700.2664                   21981698.5594
        48.0004         35.0004
 -33942021.81249 -26433791.64548  20814930.3524                   20814928.6844
        49.7504         40.5004
 -25076521.14149 -19496231.07247  22345563.6174                   22345562.7504
        48.2504         30.2504
  -2795145.664 9                  23999918.500
        37.250
  -2194566.37549  -1650042.89246  25148708.7424                   25148712.3444
        41.0004         20.0004
 03  1 16  0 13  0.0000000  0  8G17G10G30G 6G 5G24G23G25
  -4136295.67249  -5438599.58646  24054935.0784                   24054937.6134
        38.5004         18.2504
 -23897321.21949 -19439257.34447  21067854.0394                   21067852.8984
        47.0004         37.0004
 -26338338.20749 -24694193.09848  20183862.5704                   20183861.1174
        52.2504         41.2504
 -17919204.79349 -15465899.92147  21964703.5634                   21964702.9304
        46.2504         35.5004
 -33908934.23849 -26408009.13248  20821226.7194                   20821224.8094
        50.2504         41.0004
 -25025329.80149 -19456341.72447  22355305.3674                   22355304.7274
        47.7504         30.7504
  -2928373.316 9                  23974565.188
        38.250
  -2246519.00049  -1690525.35846  25138822.5164                   25138825.5784
        41.2504         19.7504
 03  1 16  0 13 30.0000000  0  8G17G10G30G 6G 5G24G23G25
  -4251454.44149  -5528333.58246  24033021.6884                   24033023.3204
        39.2504         18.2504
 -23955382.25049 -19484499.65347  21056805.1724                   21056803.6724
        47.0004         37.2504
 -26383764.03949 -24729589.83248  20175218.1484                   20175216.8914
        52.5004         41.0004
 -18008428.73449 -15535425.02947  21947724.6724                   21947724.1604
        47.0004         35.5004
 -33875394.50449 -26381874.28148  20827609.1564                   20827607.7034
        49.5004         40.0004
 -24974010.74649 -19416352.85747  22365070.6884                   22365070.3134
        47.5004         31.0004
  -3061562.937 9                  23949219.781
        37.250
  -2298020.18749  -1730656.14346  25129022.0004                   25129025.1884
        40.5004         19.2504
 03  1 16  0 14  0.0000000  0  8G17G10G30G 6G 5G24G23G25
  -4366444.35249  -5617935.92746  24011139.8914                   24011139.8714
        40.5004         20.0004
 -24012842.25049 -19529273.61147  21045870.7274                   21045869.4184
        48.0004         37.0004
 -26428624.89849 -24764546.33348  20166681.2734                   20166679.9344
        52.0004         41.0004
 -18097558.39149 -15604876.67647  21930763.8914                   21930763.4734
        47.7504         36.0004
 -33841403.05149 -26355387.44648  20834077.3204                   20834076.0044
        49.7504         40.0004
 -24922564.58249 -19376264.95147  22374860.8204                   22374859.9304
        47.7504         30.0004
  -3194710.637 8                  23923882.242
        35.500
  -2349068.97349  -1770434.35946  25119307.5394                   25119310.5864
        40.7504         19.2504
 03  1 16  0 14 30.0000000  0  8G17G10G30G 6G 5G24G23G25
  -4481265.22349  -5707406.57946  23989289.6484                   23989290.8094
        39.2504         20.5004
 -24069700.21149 -19573578.45447  21035051.2504                   21035049.8484
        49.2504         37.2504
 -26472920.37549 -24799062.26548  20158251.9774                   20158251.0394
        52.0004         41.0004
 -18186593.64149 -15674254.72047  21913820.7974                   21913820.2344
        49.5004         36.0004
 -33806961.89549 -26328550.18848  20840631.2734                   20840630.1174
        50.0004         40.0004
 -24870993.71149 -19336079.87347  22384674.3984                   22384674.0864
        47.5004         30.5004
  -3327814.023 9                  23898553.500
        36.500
  -2399665.44949  -1809860.15046  25109679.7344                   25109682.6174
        41.5004         20.2504
 03  1 16  0 15  0.0000000  0  8G17G10G30G 6G 5G24G23G25
  -4595916.76249  -5796745.22346  23967471.4924                   23967473.5704
        36.7504         19.2504
 -24125955.75449 -19617413.89347  21024346.2274                   21024344.4774
        48.5004         37.5004
 -26516650.06249 -24833137.33648  20149930.7344                   20149929.3874
        52.5004         41.7504
 -18275534.40249 -15743559.15947  21896896.2504                   21896895.3874
        49.7504         35.7504
 -33772073.25849 -26301364.25848  20847270.5164                   20847269.1564
        48.7504         40.2504
 -24819300.64149 -19295799.55847  22394511.1254                   22394510.5124
        46.7504         29.0004
  -3460871.062 9                  23873232.734
        37.000
  -2449809.81649  -1848933.64346  25100138.1334                   25100139.8284
        41.7504         20.0004
 03  1 16  0 15 30.0000000  0  8G17G10G30G 6G 5G24G23G25
  -4710395.50049  -5885949.27646  23945687.1174                   23945689.3404
        36.5004         19.7504
 -24181605.09849 -19660776.96447  21013756.5164                   21013754.5354
        47.0004         37.2504
 -26559810.30549 -24866768.69448  20141717.6094                   20141716.5164
        52.5004         41.7504
 -18364377.20349 -15812787.26447  21879990.1414                   21879989.0904
        50.2504         36.5004
 -33736736.11749 -26273828.84048  20853994.9304                   20853993.7774
        48.5004         40.0004
 -24767484.41049 -19255423.30047  22404371.0704                   22404371.0394
        45.7504         28.7504
  -3593876.168 8                  23847922.633
        35.750
  -2499499.38849  -1887652.84746  25090682.1024                   25090684.4574
        41.5004         20.5004
 03  1 16  0 16  0.0000000  0  8G17G10G30G 6G 5G24G23G25
  -4824703.46949  -5975020.08046  23923934.9064                   23923937.1564
        37.0004         19.7504
 -24236649.57049 -19703668.71547  21003281.5634                   21003280.1994
        48.2504         37.7504
 -26602403.20749 -24899957.95548  20133612.4774                   20133611.1174
        53.0004         41.0004
 -18453124.38349 -15881940.84947  21863101.9454                   21863100.6644
        50.5004         37.0004
 -33700955.08649 -26245947.53448  20860803.8134                   20860802.4384
        49.2504         40.0004
 -24715550.07849 -19214954.99247  22414254.0864                   22414253.8244
        46.0004         28.7504
  -3726829.734 8                  23822622.461
        34.500
  -2548736.95749  -1926019.64046  25081312.7424                   25081314.8164
        41.5004         20.5004
 03  1 16  0 16 29.9990000  0  8G17G10G30G 6G 5G24G23G25
  -4938835.82449  -6063954.29346  23902216.3394                   23902217.7694
        36.7504         18.5004
 -24291086.12549 -19746086.76947  20992922.5264                   20992921.3824
        49.7504         37.5004
 -26644426.26249 -24932703.18148  20125615.7304                   20125614.3624
        53.2504         41.5004
 -18541772.08649 -15951016.92047  21846232.6284                   21846232.1014
        50.0004         36.0004
 -33664732.89149 -26217722.46648  20867696.8084                   20867695.4404
        50.2504         40.5004
 -24663500.83249 -19174397.14347  22424159.2144                   22424158.2804
        45.7504         28.0004
  -3859724.504 8                  23797333.190
        35.750
  -2597520.34449  -1964032.64946  25072029.3864                   25072032.1324
        40.2504         21.0004
 03  1 16  0 16 59.9990000  0  8G17G10G30G 6G 5G24G23G25
  -5052797.50048  -6152755.46946  23880529.4954                   23880531.8554
        35.7504         19.5004
 -24344915.51649 -19788031.69747  20982679.1904                   20982677.9094
        49.2504         37.5004
 -26685879.65249 -24965004.52648  20117727.4564                   20117726.2264
        53.2504         41.7504
 -18630323.90249 -16020018.27247  21829381.8234                   21829381.0624
        50.0004         36.5004
 -33628067.10949 -26189151.74448  20874673.8084                   20874672.9214
        50.2504         40.7504
 -24611334.00449 -19133747.67347  22434085.5194                   22434085.6124
        46.2504         28.0004
  -3992564.805 9                  23772054.144
        37.000
  -2645851.20349  -2001692.98646  25062831.5114                   25062834.7414
        38.7504         20.0004
 03  1 16  0 17 29.9990000  0  8G17G10G30G 6G 5G24G23G25
  -5166586.95349  -6241422.36146  23858876.6284                   23858877.9604
        37.5004         20.0004
 -24398137.33649 -19829503.19747  20972551.1904                   20972549.8354
        49.0004         37.2504
 -26726763.72349 -24996862.23348  20109947.6204                   20109946.2454
        53.2504         41.5004
 -18718778.68449 -16088944.01747  21812549.3234                   21812548.6084
        49.5004         36.5004
 -33590963.18049 -26160239.60848  20881734.5424                   20881733.5544
        51.0004         41.0004
 -24559055.23049 -19093010.99347  22444033.6364                   22444033.6674
        46.0004         26.7504
  -4125346.05549  -3169426.09056  23746786.5584                   23746789.4174
        39.0004         16.7504
  -2693730.60249  -2039001.62646  25053720.3314                   25053723.4524
        39.0004         19.2504
 03  1 16  0 17 59.9990000  0  8G17G10G30G 6G 5G24G23G25
  -5280198.78148  -6329950.91046  23837256.5734                   23837258.1714
        35.7504         18.5004
 -24450746.28549 -19870497.14947  20962540.0344                   20962538.5224
        49.7504         37.7504
 -26767073.43449 -25028272.39248  20102276.8154                   20102275.3704
        53.0004         41.0004
 -18807131.28949 -16157790.14047  21795736.7304                   21795735.6904
        50.2504         37.0004
 -33553418.75449 -26130984.23548  20888879.2924                   20888878.2454
        51.0004         40.5004
 -24506662.27349 -19052185.30947  22454004.7144                   22454003.7614
        44.2504         27.5004
  -4258061.33649  -3272840.41446  23721531.5894                   23721533.3944
        40.2504         16.7504
  -2741154.07849  -2075954.94146  25044696.3864                   25044699.6834
        38.5004         17.7504
 03  1 16  0 18 29.9990000  0  8G17G10G30G 6G 5G24G23G25
  -5393634.18449  -6418341.97446  23815669.7924                   23815671.9334
        36.2504         18.2504
 -24502743.19549 -19911014.16947  20952645.4174                   20952643.9804
        50.2504         37.5004
 -26806809.95349 -25059235.89948  20094715.4564                   20094713.8154
        52.7504         41.7504
 -18895382.92249 -16226557.57547  21778942.6284                   21778942.1794
        50.0004         37.2504
 -33515437.17249 -26101388.20548  20896106.8234                   20896105.7844
        51.5004         40.2504
 -24454158.69149 -19011273.42847  22463994.9724                   22463994.5624
        42.7504         26.5004
  -4390709.80549  -3376202.73446  23696289.7694                   23696291.7654
        40.7504         17.2504
  -2788123.64149  -2112554.61546  25035758.3084                   25035760.7454
        37.7504         19.0004
 03  1 16  0 18 59.9990000  0  8G17G10G30G 6G 5G24G23G25
  -5506893.45349  -6506595.71346  23794116.7694                   23794119.3704
        37.0004         18.5004
 -24554128.35549 -19951054.50547  20942866.9874                   20942865.7224
        50.0004         37.7504
 -26845973.62549 -25089753.04148  20087262.5194                   20087260.8004
        53.0004         41.5004
 -18983534.34049 -16295246.91947  21762168.1054                   21762166.9014
        50.7504         37.0004
 -33477021.60949 -26071454.01248  20903417.0894                   20903416.1474
        50.7504         41.0004
 -24401548.09449 -18970278.16547  22474006.5344                   22474006.3474
        42.0004         26.5004
  -4523289.93749  -3479511.73846  23671060.4564                   23671062.5934
        40.5004         17.7504
  -2834640.66049  -2148801.56846  25026905.2694                   25026909.1084
        36.5004         18.5004
 03  1 16  0 19 29.9990000  0  8G17G10G30G 6G 5G24G23G25
  -5619975.27349  -6594711.27646  23772598.3784                   23772600.8434
        39.0004         20.0004
 -24604900.25049 -19990616.97847  20933205.5114                   20933204.2534
        49.0004         38.0004
 -26884563.46549 -25119823.03648  20079919.1754                   20079917.6474
        52.5004         41.0004
 -19071584.40249 -16363857.29247  21745412.8154                   21745412.1444
        50.7504         37.0004
 -33438173.46149 -26041182.74948  20910809.4174                   20910808.4764
        51.0004         40.5004
 -24348831.96149 -18929200.65747  22484038.5194                   22484037.9874
        43.0004         26.7504
  -4655798.78949  -3582765.21746  23645844.9174                   23645846.7574
        40.5004         18.2504
  -2880704.50449  -2184695.36346  25018139.6674                   25018142.6554
        37.7504         17.2504
 03  1 16  0 19 59.9990000  0  8G17G10G30G 6G 5G24G23G25
  -5732872.62149  -6682683.06646  23751114.6594                   23751116.2494
        39.0004         19.0004
 -24655051.21949 -20029695.62247  20923661.8474                   20923660.6324
        47.7504         37.5004
 -26922572.14849 -25149440.18048  20072686.5734                   20072684.9094
        52.7504         41.0004
 -19159525.72349 -16432382.92747  21728678.1834                   21728677.3084
        50.5004         37.5004
 -33398887.95349 -26010570.68248  20918285.5114                   20918284.5304
        50.2504         41.0004
 -24296005.21149 -18888036.93747  22494090.7764                   22494090.2654
        41.5004         26.7504
  -4788227.20349  -3685956.11646  23620644.3474                   23620646.5654
        41.2504         18.5004
  -2926308.62549  -2220230.97746  25009462.1674                   25009464.3474
        36.7504         16.7504
 03  1 16  0 20 29.9990000  0  8G17G10G30G 6G 5G24G23G25
  -5845579.07049  -6770506.14546  23729666.8234                   23729668.3824
        38.7504         17.7504
 -24704575.10549 -20068285.63247  20914238.2534                   20914236.6634
        46.7504         37.5004
 -26959993.55949 -25178599.70448  20065565.3864                   20065563.6754
        53.0004         41.2504
 -19247352.17249 -16500819.04047  21711965.0424                   21711964.4374
        51.0004         37.2504
 -33359161.35249 -25979614.90548  20925845.2694                   20925844.1944
        49.2504         41.0004
 -24243064.28549 -18846784.29747  22504165.5654                   22504164.7574
        40.5004         25.7504
  -4920566.60949  -3789077.53546  23595461.1204                   23595463.1054
        40.0004         18.5004
  -2971447.94149  -2255404.41846  25000872.5974                   25000874.9404
        36.0004         16.2504
 03  1 16  0 20 59.9990000  0  8G17G10G30G 6G 5G24G23G25
  -5958096.05149  -6858181.53146  23708255.8154                   23708257.1634
        40.5004         18.5004
 -24753472.66049 -20106387.59847  20904932.7844                   20904931.6284
        47.0004         37.7504
 -26996828.55549 -25207302.28248  20058555.9874                   20058554.2144
        53.0004         41.2504
 -19335064.61749 -16569166.33947  21695273.7614                   21695272.9644
        51.0004         37.7504
 -33318997.12549 -25948318.11348  20933488.3944                   20933487.3044
        50.5004         41.0004
 -24190012.91049 -18805445.57946  22514260.2144                   22514259.8864
        40.7504         25.5004
  -5052816.15249  -3892128.97746  23570293.6674                   23570296.4444
        39.2504         16.7504
  -3016124.30148  -2290217.07446  24992370.4954                   24992372.8314
        35.0004         15.5004
 03  1 16  0 21 29.9990000  0  8G17G10G30G 6G 5G24G23G25
  -6070421.95749  -6945708.08346  23686880.6834                   23686881.9834
        40.2504         18.5004
 -24801742.15649 -20144000.16647  20895747.4804                   20895746.0974
        46.5004         37.2504
 -27033076.18049 -25235547.16048  20051658.0654                   20051656.4834
        53.2504         40.7504
 -19422661.82849 -16637423.82247  21678604.4174                   21678603.6594
        50.2504         37.5004
 -33278396.66849 -25916681.41048  20941214.4174                   20941213.5114
        49.0004         41.0004
 -24136852.41449 -18764021.77946  22524377.0584                   22524376.2334
        40.2504         25.2504
  -5184972.67249  -3995108.03046  23545145.0734                   23545147.1084
        39.0004         18.2504
  -3060337.02048  -2324668.45746  24983955.7304                   24983958.6554
        32.5004         14.7504
 03  1 16  0 21 59.9990000  0  8G17G10G30G 6G 5G24G23G25
  -6182558.40649  -7033086.96446  23665541.4404                   23665543.6674
        41.0004         18.5004
 -24849385.14849 -20181124.55547  20886681.4014                   20886679.9804
        47.7504         37.5004
 -27068737.85249 -25263335.45248  20044871.9564                   20044869.9724
        52.2504         40.5004
 -19510145.30149 -16705592.69047  21661956.4954                   21661956.2104
        49.5004         37.2504
 -33237363.91849 -25884707.85748  20949022.7374                   20949021.7334
        50.0004         40.5004
 -24083586.56249 -18722515.90547  22534513.0194                   22534512.5584
        42.0004         25.7504
  -5317035.41849  -4098013.78146  23520014.3004                   23520017.1324
        39.0004         16.7504
  -3104088.777 8                  24975630.651
        32.250
 03  1 16  0 22 29.9990000  0  8G17G10G30G 6G 5G24G23G25
  -6294503.64849  -7120316.90846  23644238.7454                   23644240.8704
        41.2504         20.5004
 -24896400.12949 -20217759.57147  20877734.9254                   20877733.1324
        47.5004         38.5004
 -27103812.33249 -25290666.20148  20038197.3784                   20038195.6474
        52.2504         40.5004
 -19597513.56649 -16773671.79147  21645330.8624                   21645330.3584
        50.0004         37.5004
 -33195900.17249 -25852398.45048  20956913.1594                   20956911.7724
        49.2504         41.0004
 -24030216.67249 -18680928.98647  22544668.2844                   22544668.5974
        42.5004         27.0004
  -5449001.16449  -4200844.11746  23494901.5734                   23494904.6594
        39.7504         16.7504
  -3147378.719 8                  24967394.292
        31.250
 03  1 16  0 22 59.9990000  0  8G17G10G30G 6G 5G24G23G25
  -6406257.59849  -7207397.74046  23622973.0344                   23622975.3154
        40.0004         20.0004
 -24942786.71149 -20253904.92347  20868907.6594                   20868905.9294
        48.5004         38.0004
 -27138299.43749 -25317539.25048  20031634.6674                   20031632.9094
        53.0004         40.5004
 -19684766.37149 -16841660.91647  21628727.4014                   21628726.9054
        49.5004         37.0004
 -33154007.78949 -25819755.04948  20964884.7224                   20964883.5814
        50.2504         40.5004
 -23976745.37549 -18639263.02846  22554844.2764                   22554844.1054
        41.7504         25.2504
  -5580867.43449  -4303596.88746  23469808.5424                   23469811.5774
        40.5004         17.2504
  -3190207.332 8                  24959244.347
        32.500
 03  1 16  0 23 29.9990000  0  8G17G10G30G 6G 5G24G23G25
  -6517820.26649  -7294329.57146  23601743.1204                   23601745.3744
        40.5004         19.2504
 -24988544.53149 -20289560.35147  20860200.4484                   20860198.5384
        50.0004         37.7504
 -27172199.16449 -25343954.58948  20025184.0654                   20025182.0224
        52.2504         41.0004
 -19771903.16449 -16909559.64647  21612146.0584                   21612145.4054
        50.2504         37.7504
 -33111689.08649 -25786779.44848  20972937.7144                   20972936.8824
        51.2504         40.7504
 -23923174.43049 -18597519.41346  22565038.1984                   22565038.0694
        42.5004         25.2504
  -5712632.22349  -4406270.64746  23444734.5654                   23444736.8744
        40.2504         18.2504
  -3232575.219 8                  24951182.105
        33.000
 03  1 16  0 23 59.9990000  0  8G17G10G30G 6G 5G24G23G25
  -6629194.94149  -7381114.81346  23580549.6364                   23580550.6474
        40.5004         19.5004
 -25033676.65249 -20324728.20147  20851612.2224                   20851610.4644
        50.7504         38.2504
 -27205514.81649 -25369914.82448  20018844.1594                   20018842.5894
        52.7504         40.2504
 -19858927.18449 -16977370.50347  21595585.6444                   21595585.2654
        50.0004         38.0004
 -33068949.74649 -25753476.08548  20981070.8154                   20981069.5734
        51.2504         40.7504
 -23869509.53949 -18555702.59246  22575250.2224                   22575250.4914
        43.0004         24.7504
  -5844296.53949  -4508865.99146  23419679.5034                   23419681.7844
        41.2504         18.5004
  -3274487.000 8                  24943205.886
        33.750
 03  1 16  0 24 29.9990000  0  8G17G10G30G 6G 5G24G23G25
  -6740377.61349  -7467750.56946  23559391.3084                   23559394.0504
        40.5004         20.0004
 -25078179.56249 -20359405.75147  20843143.4174                   20843141.7304
        50.2504         38.0004
 -27238243.06249 -25395417.32448  20012615.9094                   20012614.1164
        52.7504         40.7504
 -19945834.70749 -17045090.57447  21579047.7304                   21579047.3704
        50.2504         37.7504
 -33025788.84849 -25719844.22748  20989284.1284                   20989283.0694
        51.2504         40.2504
 -23815749.71949 -18513811.82147  22585480.7844                   22585481.0734
        43.5004         26.2504
  -5975854.77349  -4611378.74446  23394644.8474                   23394647.1084
        39.7504         18.5004
  -3315939.83648  -2523839.10956  24935317.3784                   24935320.9564
        35.2504         17.2504
 03  1 16  0 24 59.9990000  0  8G17G10G30G 6G 5G24G23G25
  -6851367.97349  -7554236.41446  23538270.8624                   23538273.2184
        41.0004         21.5004
 -25122052.65249 -20393592.53947  20834794.8154                   20834792.9014
        51.0004         38.7504
 -27270383.48049 -25420461.78548  20006500.1284                   20006498.2724
        53.0004         40.5004
 -20032625.24249 -17112719.49147  21562531.6594                   21562531.4484
        50.5004         37.7504
 -32982208.74649 -25685885.72048  20997576.7764                   20997575.9954
        51.5004         40.2504
 -23761897.06249 -18471848.69947  22595728.3154                   22595728.3864
        42.5004         25.7504
  -6107304.49249  -4713806.82246  23369630.8234                   23369633.3784
        40.0004         19.0004
  -3356934.03149  -2555782.63346  24927517.2064                   24927520.3004
        37.0004         17.7504
 03  1 16  0 25 29.9990000  0  8G17G10G30G 6G 5G24G23G25
  -6962165.06249  -7640571.57146  23517186.5194                   23517189.2144
        41.0004         21.5004
 -25165295.14849 -20427287.93847  20826565.7844                   20826564.2414
        51.0004         38.5004
 -27301935.81649 -25445047.99548  20000495.5034                   20000493.8124
        52.7504         41.0004
 -20119297.91449 -17180256.57647  21546038.8234                   21546037.6474
        50.2504         38.0004
 -32938211.21149 -25651601.94448  21005949.3394                   21005948.1474
        52.0004         40.0004
 -23707953.41849 -18429814.68246  22605993.4724                   22605993.3944
        43.0004         25.0004
  -6238642.82049  -4816148.23446  23344637.1984                   23344640.2694
        38.5004         19.2504
  -3397469.75449  -2587368.81646  24919801.8474                   24919806.7924
        36.0004         17.7504
 03  1 16  0 25 59.9990000  0  8G17G10G30G 6G 5G24G23G25
  -7072770.10949  -7726757.16046  23496138.5974                   23496140.6634
        40.7504         20.2504
 -25207908.68449 -20460493.24947  20818456.4724                   20818455.0544
        51.2504         38.5004
 -27332901.41049 -25469177.01448  19994602.9174                   19994601.3194
        52.2504         41.0004
 -20205853.77349 -17247702.63947  21529567.5264                   21529567.1324
        50.5004         38.2504
 -32893800.00049 -25616995.81248  21014400.6124                   21014399.5654
        51.7504         40.0004
 -23653922.34449 -18387712.51946  22616275.0734                   22616275.5224
        42.7504         24.7504
  -6369868.98049  -4918402.14746  23319666.1364                   23319669.2454
        39.5004         19.2504
  -3437549.19949  -2618599.53546  24912175.8554                   24912180.3154
        37.0004         15.5004
 03  1 16  0 26 29.9990000  0  8G17G10G30G 6G 5G24G23G25
  -7183181.81649  -7812792.07046  23475128.3624                   23475130.5694
        40.5004         21.5004
 -25249891.65249 -20493207.21047  20810467.6754                   20810465.7574
        51.2504         39.0004
 -27363278.75449 -25492847.64648  19988822.3864                   19988820.5074
        52.5004         40.7504
 -20292290.94549 -17315056.20147  21513119.4804                   21513118.3824
        50.2504         38.2504
 -32848976.01249 -25582068.04048  21022930.5584                   21022929.4174
        52.2504         40.5004
 -23599804.24249 -18345542.56447  22626573.1594                   22626573.7304
        43.0004         25.7504
  -6500979.21149  -5020565.83846  23294715.8004                   23294719.0224
        37.5004         19.0004
  -3477171.81249  -2649474.17646  24904635.4174                   24904640.6474
        37.0004         16.7504
 03  1 16  0 26 59.9990000  0  8G17G10G30G 6G 5G24G23G25
  -7293398.69549  -7898675.14446  23454154.0504                   23454156.3434
        42.0004         21.7504
 -25291242.61349 -20525428.68048  20802598.6204                   20802596.9564
        51.2504         39.5004
 -27393067.10249 -25516059.32748  19983153.6904                   19983152.2494
        52.2504         41.2504
 -20378608.26249 -17382316.39947  21496693.2224                   21496692.7724
        49.5004         37.5004
 -32803740.87149 -25546819.89748  21031538.4724                   21031537.8394
        51.7504         40.0004
 -23545600.84449 -18303306.12146  22636887.7534                   22636888.5544
        42.7504         24.0004
  -6631970.33649  -5122636.67346  23269788.8554                   23269792.0584
        37.5004         19.0004
  -3516337.50849  -2679992.83246  24897182.6674                   24897186.8234
        37.2504         17.2504
 03  1 16  0 27 29.9990000  0  8G17G10G30G 6G 5G24G23G25
  -7403419.91849  -7984405.73246  23433216.9874                   23433219.4134
        41.7504         21.0004
 -25331960.57449 -20557156.90748  20794850.4804                   20794848.5624
        51.5004         39.7504
 -27422265.55149 -25538811.34548  19977597.8314                   19977596.1164
        52.5004         41.0004
 -20464804.34449 -17449482.10047  21480291.0034                   21480289.9804
        50.2504         37.5004
 -32758096.14549 -25511252.58248  21040224.2224                   21040223.2574
        51.7504         39.7504
 -23491313.14149 -18261004.01646  22647218.7064                   22647218.9444
        43.2504         25.0004
  -6762839.19548  -5224612.19646  23244885.1754                   23244888.6944
        35.2504         18.5004
  -3555046.28949  -2710155.44946  24889816.2924                   24889820.5934
        37.0004         19.2504
 03  1 16  0 27 59.9990000  0  8G17G10G30G 6G 5G24G23G25
  -7513245.72749  -8069984.07446  23412318.2224                   23412319.5814
        40.7504         22.7504
 -25372046.17249 -20588392.38648  20787222.3314                   20787220.5544
        50.7504         39.5004
 -27450875.02049 -25561104.41348  19972153.4334                   19972151.5224
        51.5004         41.0004
 -20550879.51649 -17516553.62347  21463911.0814                   21463910.7414
        48.0004         37.5004
 -32712044.91849 -25475368.53248  21048987.5974                   21048986.7574
        52.0004         39.5004
 -23436944.08249 -18218638.51746  22657564.9334                   22657564.5974
        43.0004         24.5004
  -6893584.17249  -5326491.23946  23220005.4404                   23220007.6984
        39.0004         19.2504
  -3593299.37949  -2739963.06346  24882538.9954                   24882541.9724
        39.7504         20.0004
 03  1 16  0 28 29.9990000  0  8G17G10G30G 6G 5G24G23G25
  -7622874.43449  -8155408.82846  23391456.4094                   23391458.6324
        42.0004         22.7504
 -25411497.80949 -20619133.86248  20779714.8154                   20779712.9054
        51.0004         40.0004
 -27478893.75049 -25582937.17448  19966821.8944                   19966820.1474
        51.0004         41.5004
 -20636831.48449 -17583529.12747  21447555.2304                   21447554.3974
        47.0004         38.0004
 -32665587.92649 -25439168.29848  21057828.0814                   21057827.2184
        51.7504         39.5004
 -23382493.98849 -18176209.86947  22667925.9954                   22667926.6164
        42.0004         26.0004
  -7024201.14549  -5428270.48046  23195150.2144                   23195151.2454
        38.7504         21.0004
  -3631095.98049  -2769414.92446  24875345.1984                   24875349.1674
        38.5004         19.5004
 03  1 16  0 28 59.9990000  0  8G17G10G30G 6G 5G24G23G25
  -7732307.34449  -8240681.00246  23370632.0194                   23370634.0344
        42.2504         22.2504
 -25450316.89549 -20649382.44048  20772327.6594                   20772325.6904
        51.0004         39.5004
 -27506323.52349 -25604311.00848  19961601.8784                   19961600.5464
        51.2504         41.2504
 -20722661.58649 -17650409.65547  21431221.8944                   21431221.1244
        48.0004         38.2504
 -32618729.34049 -25402655.12448  21066745.2304                   21066743.6444
        51.7504         39.5004
 -23327966.87949 -18133721.19046  22678301.9804                   22678303.4764
        43.5004         24.2504
  -7154689.49249  -5529949.55746  23170318.5424                   23170320.0034
        40.0004         21.2504
  -3668438.28149  -2798512.72946  24868239.0034                   24868242.9874
        37.5004         18.5004
 03  1 16  0 29 29.9990000  0  8G17G10G30G 6G 5G24G23G25
  -7841543.55149  -8325799.91046  23349844.9954                   23349846.9484
        42.2504         25.0004
 -25488502.96149 -20679137.76148  20765060.8864                   20765059.0974
        50.0004         39.7504
 -27533163.77349 -25625225.48148  19956494.4174                   19956492.8084
        51.5004         41.5004
 -20808368.66449 -17717194.34247  21414912.7374                   21414911.6474
        49.5004         39.0004
 -32571470.88349 -25365830.37747  21075738.2304                   21075736.7654
        51.5004         38.5004
 -23273363.87549 -18091173.37847  22688692.9014                   22688693.6124
        42.7504         26.5004
  -7285046.03549  -5631525.86646  23145512.6364                   23145514.0504
        40.5004         21.7504
  -3705326.91448  -2827257.07046  24861219.2924                   24861223.4294
        33.7504         18.2504
 03  1 16  0 29 59.9990000  0  8G17G10G30G 6G 5G24G23G25
  -7950585.87549  -8410767.74946  23329094.6984                   23329096.5384
        42.0004         22.7504
 -25526059.12949 -20708402.26847  20757914.1904                   20757912.2654
        50.5004         39.0004
 -27559417.97749 -25645683.28848  19951498.3944                   19951496.4604
        52.5004         42.0004
 -20893955.57049 -17783885.36847  21398626.1834                   21398625.0304
        49.5004         39.0004
 -32523818.24249 -25328698.45647  21084805.9564                   21084804.5654
        51.5004         38.5004
 -23218690.42649 -18048570.69447  22699096.8864                   22699097.4604
        42.5004         26.2504
  -7415272.03949  -5733000.48246  23120730.9484                   23120732.7764
        40.5004         22.0004
  -3741765.56658  -2855650.78556  24854285.1674                   24854289.7804
        32.2504         17.7504
 03  1 16  0 30 29.9990000  0  8G17G10G30G 6G 5G24G23G25
  -8059431.46549  -8495582.28546  23308382.2144                   23308383.3664
        41.7504         23.0004
 -25562981.97749 -20737173.26947  20750888.0584                   20750886.2654
        50.0004         39.0004
 -27585083.12149 -25665682.08448  19946614.3864                   19946612.8664
        52.2504         41.7504
 -20979418.52049 -17850479.82347  21382362.5974                   21382362.0814
        49.5004         38.0004
 -32475770.59049 -25291258.74547  21093948.9564                   21093947.9604
        51.0004         39.0004
 -23163945.47749 -18005912.28646  22709514.0504                   22709514.4954
        41.7504         25.5004
  -7545361.94149  -5834369.04546  23095975.5344                   23095977.7924
        41.2504         22.0004
  -3777752.33248  -2883692.35546  24847437.4174                   24847441.3044
        33.5004         16.7504
 03  1 16  0 30 59.9990000  0  8G17G10G30G 6G 5G24G23G25
  -8168077.60549  -8580241.40746  23287707.7924                   23287708.2264
        43.0004         24.5004
 -25599269.46149 -20765449.18848  20743982.7614                   20743981.3084
        50.5004         40.0004
 -27610157.01649 -25685220.16348  19941842.9484                   19941841.6364
        52.0004         41.2504
 -21064754.67649 -17916975.46547  21366123.9014                   21366122.9404
        50.0004         38.2504
 -32427328.05549 -25253511.33347  21103167.4174                   21103166.5424
        51.2504         39.0004
 -23109128.71149 -17963197.92447  22719945.8944                   22719945.9874
        41.5004         26.0004
  -7675310.95749  -5935627.77546  23071246.9334                   23071248.4914
        40.5004         22.0004
  -3813285.59448  -2911380.52346  24840675.8314                   24840679.6514
        34.5004         15.5004
 03  1 16  0 31 29.9990000  0  8G17G10G30G 6G 5G24G23G25
  -8276522.33649  -8664743.61246  23267070.4954                   23267071.8154
        42.0004         22.5004
 -25634919.91449 -20793228.71048  20737198.6444                   20737197.4914
        50.7504         39.5004
 -27634638.45349 -25704296.60248  19937183.9804                   19937182.7614
        51.5004         41.0004
 -21149962.20749 -17983370.88347  21349909.4804                   21349907.9524
        48.5004         38.0004
 -32378491.71949 -25215457.06147  21112460.8004                   21112459.6714
        51.5004         38.5004
 -23054240.77349 -17920428.04446  22730390.6204                   22730390.8434
        41.5004         25.2504
  -7805115.30949  -6036773.83146  23046545.7534                   23046547.3904
        38.5004         22.7504
  -3848364.39848  -2938714.70346  24834001.1284                   24834003.3824
        34.7504         16.2504
 03  1 16  0 31 59.9990000  0  8G17G10G30G 6G 5G24G23G25
  -8384765.48849  -8749088.75846  23246472.7454                   23246473.3124
        41.7504         22.5004
 -25669934.06249 -20820512.41648  20730535.9254                   20730534.0344
        51.2504         39.7504
 -27658528.11749 -25722911.91448  19932638.3154                   19932636.6084
        51.0004         41.5004
 -21235040.96949 -18049665.98147  21333719.1834                   21333718.0224
        47.0004         37.5004
 -32329264.71549 -25177098.37647  21121828.3784                   21121827.4174
        51.0004         38.7504
 -22999284.23849 -17877604.80146  22740848.6834                   22740848.7264
        42.0004         25.2504
  -7934773.10949  -6137805.66046  23021872.9644                   23021874.4014
        40.0004         23.7504
  -3882990.46548  -2965696.09446  24827412.3234                   24827414.3944
        31.7504         16.7504
 03  1 16  0 32 29.9990000  0  8G17G10G30G 6G 5G24G23G25
  -8492807.48049  -8833277.20246  23225912.0734                   23225913.8124
        40.7504         21.7504
 -25704311.86349 -20847300.27148  20723993.6124                   20723991.8974
        51.0004         40.2504
 -27681825.80149 -25741065.93948  19928205.0344                   19928203.4684
        51.2504         41.5004
 -21319989.89549 -18115859.88747  21317554.2614                   21317552.8514
        48.7504         38.0004
 -32279648.93049 -25138436.74147  21131270.0894                   21131268.8974
        52.2504         38.2504
 -22944260.51649 -17834729.16046  22751319.5894                   22751319.7334
        40.7504         25.5004
  -8064281.57849  -6238721.10746  22997228.5894                   22997229.6714
        42.0004         22.2504
  -3917164.34848  -2992324.94546  24820909.6124                   24820910.6874
        35.5004         16.7504
 03  1 16  0 32 59.9990000  0  8G17G10G30G 6G 5G24G23G25
  -8600646.44549  -8917307.38346  23205391.3474                   23205391.9954
        42.0004         22.0004
 -25738051.85949 -20873591.14448  20717573.3784                   20717571.4564
        50.7504         40.0004
 -27704530.50049 -25758757.89748  19923884.2374                   19923882.7764
        52.7504         41.2504
 -21404807.28949 -18181951.31647  21301413.7224                   21301412.8354
        50.0004         39.0004
 -32229645.63749 -25099473.15747  21140785.4804                   21140783.7184
        51.7504         38.5004
 -22889170.51249 -17791801.85246  22761802.0584                   22761802.7414
        40.5004         24.5004
  -8193637.05949  -6339517.35646  22972612.6594                   22972613.2844
        42.0004         24.2504
  -3950885.492 8                  24814491.933
        34.500
 03  1 16  0 33 29.9990000  0  8G17G10G30G 6G 5G24G23G25
  -8708286.51649  -9001182.67746  23184907.8394                   23184908.7764
        42.0004         22.0004
 -25771158.93449 -20899388.82848  20711273.1514                   20711270.9914
        50.7504         39.5004
 -27726647.03549 -25775991.54348  19919675.4724                   19919674.1444
        51.5004         41.2504
 -21489497.20749 -18247943.40448  21285297.6834                   21285296.6674
        49.5004         39.7504
 -32179261.69549 -25060212.96447  21150373.4954                   21150371.8084
        51.7504         38.7504
 -22834020.48849 -17748827.84046  22772296.7694                   22772297.1794
        41.5004         25.0004
  -8322841.89549  -6440196.20046  22948024.8864                   22948026.4294
        42.2504         23.5004
  -3984159.637 8                  24808160.440
        34.000
 03  1 16  0 33 59.9990000  0  8G17G10G30G 6G 5G24G23G25
  -8815721.60949  -9084898.18846  23164463.9564                   23164464.0344
        42.5004         21.0004
 -25803626.71949 -20924688.36747  20705094.6984                   20705092.7844
        50.7504         39.2504
 -27748169.41049 -25792762.21148  19915579.9804                   19915578.2764
        52.7504         41.5004
 -21574052.60249 -18313830.66647  21269207.4404                   21269206.3354
        50.7504         38.7504
 -32128493.30149 -25020653.20147  21160034.2534                   21160032.6714
        51.5004         38.0004
 -22778806.30549 -17705803.77446  22782803.3474                   22782804.0894
        43.0004         25.2504
  -8451887.16849  -6540750.70047  22923468.5194                   22923469.7574
        42.0004         26.0004
  -4016980.750 9                  24801914.378
        37.250
 03  1 16  0 34 29.9990000  0  8G17G10G30G 6G 5G24G23G25
  -8922951.75449  -9168453.98346  23144058.7224                   23144058.8554
        43.5004         22.2504
 -25835456.26249 -20949490.57747  20699037.2844                   20699036.0934
        51.0004         39.0004
 -27769098.64149 -25809070.68048  19911597.5424                   19911596.0114
        52.0004         41.5004
 -21658473.61749 -18379613.20147  21253142.7064                   21253141.5304
        50.7504         39.2504
 -32077343.70749 -24980796.36847  21169767.5264                   21169766.1244
        51.0004         37.7504
 -22723530.69549 -17662731.84546  22793322.4564                   22793322.4524
        44.0004         25.0004
  -8580771.20349  -6641179.56546  22898942.1594                   22898943.3274
        43.0004         25.0004
  -4049351.023 9                  24795755.198
        38.000
 03  1 16  0 34 59.9990000  0  8G17G10G30G 6G 5G24G23G25
  -9029979.19549  -9251851.89346  23123692.0424                   23123691.9014
        43.0004         22.7504
 -25866650.38349 -20973797.64148  20693101.2844                   20693099.6984
        51.0004         39.5004
 -27789437.64149 -25824919.23248  19907727.1054                   19907725.4804
        52.2504         41.5004
 -21742762.25049 -18445292.58947  21237102.7614                   21237101.8154
        50.0004         39.0004
 -32025818.12549 -24940646.59147  21179572.3704                   21179571.1324
        51.2504         37.5004
 -22668197.85949 -17619615.37047  22803852.0424                   22803851.9054
        44.2504         26.2504
  -8709494.21149  -6741482.93146  22874447.0114                   22874447.7534
        43.2504         22.7504
  -4081274.004 9                  24789679.956
        38.000
 03  1 16  0 35 29.9990000  0  8G17G10G30G 6G 5G24G23G25
  -9136802.44549  -9335090.69646  23103364.2454                   23103364.1834
        42.5004         22.5004
 -25897207.55549 -20997608.39647  20687286.6754                   20687285.2844
        50.5004         39.2504
 -27809185.19549 -25840306.91048  19903968.9404                   19903967.2144
        52.5004         41.2504
 -21826916.19149 -18510867.01547  21221088.9874                   21221087.5934
        50.5004         38.7504
 -31973917.40249 -24900204.48547  21189448.6834                   21189447.0264
        50.7504         37.0004
 -22612808.56249 -17576454.85646  22814391.8394                   22814391.8474
        44.0004         24.2504
  -8838052.18749  -6841657.72546  22849982.9724                   22849983.9874
        43.5004         24.5004
  -4112749.250 9                  24783690.784
        37.250
 03  1 16  0 35 59.9990000  0  8G17G10G30G 6G 5G24G23G25
  -9243419.02349  -9418168.45946  23083075.4334                   23083076.3354
        42.5004         22.2504
 -25927125.88349 -21020921.33648  20681593.4254                   20681591.9374
        50.5004         40.0004
 -27828339.52349 -25855232.35548  19900324.0814                   19900322.4764
        52.0004         41.0004
 -21910932.70749 -18576334.36647  21205100.9254                   21205100.1514
        50.5004         38.7504
 -31921642.04749 -24859470.46847  21199396.6984                   21199395.0734
        50.7504         36.7504
 -22557362.35949 -17533249.99346  22824943.1284                   22824943.4834
        44.2504         25.5004
  -8966440.58649  -6941700.35846  22825551.0114                   22825552.1554
        43.0004         24.0004
  -4143775.477 8                  24777785.956
        34.000
 03  1 16  0 36 29.9990000  0  8G17G10G30G 6G 5G24G23G25
  -9349828.78149  -9501085.07046  23062826.0814                   23062826.5034
        41.0004         22.7504
 -25956405.48849 -21043736.56548  20676021.5344                   20676019.7144
        50.2504         39.7504
 -27846900.65649 -25869695.55248  19896792.0114                   19896790.0464
        52.2504         40.7504
 -21994810.99249 -18641694.00147  21189139.2534                   21189138.0974
        50.5004         38.5004
 -31868994.07449 -24818446.09347  21209414.9804                   21209413.4604
        50.2504         37.0004
 -22501860.58249 -17490001.83346  22835504.9254                   22835504.9444
        42.7504         23.5004
  -9094656.82449  -7041608.84747  22801152.6674                   22801153.2334
        43.2504         25.7504
  -4174353.289 9                  24771967.925
        37.500
 03  1 16  0 36 59.9990000  0  8G17G10G30G 6G 5G24G23G25
  -9456032.05149  -9583840.77646  23042616.2764                   23042616.3474
        42.5004         21.7504
 -25985047.44949 -21066054.94148  20670571.4484                   20670569.5654
        50.2504         40.2504
 -27864869.86349 -25883697.51748  19893372.6364                   19893371.0424
        52.7504         41.0004
 -22078551.29349 -18706946.11147  21173203.9174                   21173203.0224
        51.0004         39.0004
 -31815977.09049 -24777134.19047  21219503.8624                   21219502.6054
        50.0004         36.7504
 -22446305.86749 -17446712.44546  22846076.4724                   22846076.4484
        41.0004         24.7504
  -9222699.47749  -7141382.09547  22776786.8154                   22776787.7534
        44.2504         27.0004
  -4204484.824 9                  24766233.761
        37.500
 03  1 16  0 37 29.9990000  0  8G17G10G30G 6G 5G24G23G25
  -9562028.28149  -9666435.18346  23022446.5424                   23022445.5654
        41.0004         22.0004
 -26013052.27349 -21087876.83248  20665242.0654                   20665240.4054
        50.0004         40.0004
 -27882247.73049 -25897238.69048  19890065.7144                   19890063.8664
        52.7504         40.5004
 -22162152.86349 -18772090.12748  21157295.0894                   21157294.2184
        50.5004         39.5004
 -31762593.64849 -24735536.72947  21229662.4174                   21229661.1204
        50.5004         36.7504
 -22390700.81649 -17403383.85846  22856657.5264                   22856657.8784
        44.0004         24.5004
  -9350566.09449  -7241018.19047  22752454.2454                   22752455.0814
        43.2504         26.5004
  -4234170.984 9                  24760583.612
        36.000
 03  1 16  0 37 59.9990000  0  8G17G10G30G 6G 5G24G23G25
  -9667817.66849  -9748868.45346  23002314.8394                   23002314.5654
        39.0004         22.0004
 -26040419.65649 -21109202.00748  20660034.0194                   20660032.5694
        50.0004         40.2504
 -27899034.23449 -25910319.06448  19886871.4334                   19886869.5304
        51.5004         41.0004
 -22245614.52049 -18837125.10947  21141412.6284                   21141412.2024
        51.0004         39.2504
 -31708845.55949 -24693655.11847  21239890.3704                   21239889.3904
        50.2504         37.2504
 -22335046.53949 -17360016.86546  22867248.4804                   22867248.4444
        44.0004         24.2504
  -9478253.62949  -7340514.70247  22728156.1904                   22728157.0344
        43.5004         27.0004
  -4263412.301 9                  24755019.784
        37.750
 03  1 16  0 38 29.9990000  0  8G17G10G30G 6G 5G24G23G25
  -9773396.25049  -9831137.38346  22982224.3314                   22982223.3584
        41.0004         22.5004
 -26067146.80949 -21130028.30848  20654948.1904                   20654946.4094
        51.0004         39.7504
 -27915226.17249 -25922936.13648  19883789.8704                   19883788.3084
        51.5004         40.7504
 -22328932.17249 -18902047.87748  21125557.6904                   21125556.5894
        51.0004         40.0004
 -31654732.05149 -24651488.77747  21250188.0034                   21250186.5304
        49.5004         36.2504
 -22279341.22349 -17316610.10146  22877848.7374                   22877848.9404
        43.5004         23.7504
  -9605756.23049  -7439867.16947  22703892.4334                   22703893.4254
        42.5004         27.0004
  -4292206.371 9                  24749541.003
        38.000
 03  1 16  0 38 59.9990000  0  8G17G10G30G 6G 5G24G23G25
  -9878765.96549  -9913243.53546  22962172.7614                   22962172.0114
        41.2504         23.0004
 -26093236.04349 -21150357.53748  20649983.4254                   20649981.9174
        51.2504         39.7504
 -27930826.46949 -25935092.19448  19880821.2454                   19880819.4954
        51.5004         40.5004
 -22412107.16449 -18966859.50147  21109730.1754                   21109729.2494
        51.2504         39.0004
 -31600257.81649 -24609041.34047  21260554.0734                   21260552.9524
        50.0004         36.2504
 -22223588.74249 -17273166.62246  22888458.0114                   22888458.2104
        43.5004         23.5004
  -9733073.77049  -7539075.45647  22679665.0584                   22679665.5384
        44.7504         27.0004
  -4320556.715 9                  24744145.433
        38.000
 03  1 16  0 39 29.9990000  0  8G17G10G30G 6G 5G24G23G25
  -9983931.17249  -9995190.37846  22942160.6594                   22942160.1794
        41.2504         22.7504
 -26118692.94549 -21170194.03548  20645139.1054                   20645137.3194
        50.7504         40.5004
 -27945840.70749 -25946791.57948  19877964.0114                   19877962.5114
        51.0004         40.2504
 -22495143.89849 -19031563.36648  21093929.3554                   21093927.7534
        51.5004         39.7504
 -31545430.55549 -24566318.82347  21270986.8474                   21270985.8314
        48.5004         36.0004
 -22167796.17249 -17229691.85446  22899075.1284                   22899075.0654
        40.7504         22.2504
  -9860208.92649  -7638141.63347  22655471.7844                   22655472.4994
        44.0004         28.5004
  -4348469.301 9                  24738833.605
        37.000
 03  1 16  0 39 59.9990000  0  8G17G10G30G 6G 5G24G23G25
 -10088884.14549 -10076971.86946  22922188.2694                   22922188.4994
        41.0004         22.5004
 -26143509.87549 -21189531.84448  20640416.6514                   20640414.7024
        49.7504         40.5004
 -27960260.96149 -25958028.12248  19875220.0894                   19875218.7334
        51.7504         40.2504
 -22578033.36349 -19096152.48947  21078155.2844                   21078154.3744
        49.5004         39.2504
 -31490244.38349 -24523316.64247  21281488.6284                   21281487.2454
        47.7504         35.0004
 -22111957.23449 -17186180.99046  22909700.9094                   22909700.8124
        39.0004         22.7504
  -9987150.91449  -7737057.29147  22631315.5034                   22631315.9914
        44.5004         29.0004
  -4375936.910 9                  24733606.198
        37.500
 03  1 16  0 40 29.9990000  0  8G17G10G30G 6G 5G24G23G25
 -10193625.76249 -10158588.62346  22902256.8474                   22902255.9724
        42.0004         22.0004
 -26167688.64849 -21208372.40448  20635815.4254                   20635813.7184
        48.7504         40.2504
 -27974089.25849 -25968803.40548  19872588.4014                   19872586.9254
        51.7504         40.2504
 -22660776.34449 -19160627.46647  21062409.8474                   21062409.1594
        48.5004         39.0004
 -31434703.40249 -24480037.98047  21292057.7764                   21292056.5584
        48.0004         34.7504
 -22056075.09449 -17142636.46546  22920334.7224                   22920334.4254
        41.5004         22.5004
 -10113898.83249  -7835821.74447  22607196.3784                   22607196.4254
        45.0004         28.5004
  -4402962.379 9                  24728463.542
        37.500
 03  1 16  0 40 59.9990000  0  8G17G10G30G 6G 5G24G23G25
 -10298154.22349 -10240039.27246  22882366.0654                   22882365.4994
        42.0004         25.5004
 -26191228.04349 -21226714.74548  20631336.2374                   20631334.2964
        50.2504         40.0004
 -27987324.54349 -25979116.59348  19870069.8004                   19870067.9604
        51.2504         40.5004
 -22743370.38749 -19224986.40847  21046692.9334                   21046691.6634
        50.0004         39.0004
 -31378808.60949 -24436483.62147  21302694.2374                   21302692.8624
        48.7504         35.2504
 -22000149.45749 -17099058.01246  22930977.2844                   22930977.2334
        40.5004         22.5004
 -10240448.62549  -7934431.79047  22583114.3554                   22583114.2844
        46.5004         29.5004
  -4429545.047 8                  24723404.753
        35.500
 03  1 16  0 41 29.9990000  0  8G17G10G30G 6G 5G24G23G25
 -10402467.27749 -10321322.06547  22862515.4954                   22862515.5584
        43.0004         25.7504
 -26214126.34049 -21244557.53948  20626978.9874                   20626976.7024
        51.0004         40.0004
 -27999965.17249 -25988966.41848  19867664.6984                   19867663.1054
        52.0004         41.0004
 -22825812.46549 -19289226.92147  21031004.5814                   21031003.8624
        50.5004         39.2504
 -31322560.26649 -24392653.78447  21313398.0424                   21313396.7614
        48.7504         35.2504
 -21944180.21549 -17055445.61446  22941627.9644                   22941627.5854
        40.5004         22.5004
 -10366795.60949  -8032883.82647  22559071.1674                   22559071.9724
        46.2504         30.2504
  -4455683.672 8                  24718430.565
        34.750
 03  1 16  0 41 59.9990000  0  8G17G10G30G 6G 5G24G23G25
 -10506563.30949 -10402435.76247  22842706.9014                   22842706.4804
        44.0004         26.7504
 -26236383.01649 -21261900.35748  20622743.5114                   20622741.2334
        51.2504         40.5004
 -28012010.69549 -25998352.53148  19865372.0814                   19865370.6874
        51.2504         40.0004
 -22908100.81649 -19353347.65247  21015345.5734                   21015344.4294
        50.5004         39.0004
 -31265960.05149 -24348549.75447  21324168.4484                   21324167.9764
        47.7504         34.7504
 -21888168.04749 -17011799.76346  22952286.2924                   22952286.3824
        39.5004         22.2504
 -10492936.31249  -8131175.15147  22535066.4174                   22535067.9214
        45.2504         30.0004
  -4481378.516 8                  24713542.128
        32.750
 03  1 16  0 42 29.9990000  0  8G17G10G30G 6G 5G24G23G25
 -10610444.55149 -10483382.08047  22822938.5194                   22822938.7614
        43.7504         25.7504
 -26258000.44549 -21278745.07148  20618630.0194                   20618627.5154
        50.2504         40.0004
 -28023463.65649 -26007276.89548  19863192.9954                   19863191.3044
        51.5004         40.5004
 -22990236.57449 -19417349.47648  20999715.4174                   20999714.3314
        49.0004         39.5004
 -31209012.30949 -24304174.92647  21335005.5194                   21335004.4094
        49.0004         34.5004
 -21832116.48849 -16968123.20446  22962952.7144                   22962952.4724
        42.0004         21.5004
 -10618870.18749  -8229305.31247  22511102.1594                   22511103.6444
        44.7504         29.2504
  -4506632.87918                  24708736.003
        32.500
 03  1 16  0 42 59.9990000  0  8G17G10G30G 6G 5G24G23G25
 -10714113.77349 -10564163.21147  22803210.3554                   22803210.9834
        44.2504         27.0004
 -26278982.46149 -21295094.66148  20614637.1674                   20614635.1794
        47.7504         40.5004
 -28034327.77049 -26015742.42548  19861125.4564                   19861123.9334
        52.0004         40.5004
 -23072221.91049 -19481234.07747  20984114.4484                   20984112.7884
        47.0004         38.7504
 -31151722.64149 -24259533.65247  21345907.5584                   21345906.3044
        48.7504         35.0004
 -21776030.28549 -16924419.65746  22973625.3314                   22973625.5424
        41.2504         21.5004
 -10744597.74649  -8327274.71947  22487176.8704                   22487178.5034
        45.0004         29.7504
  -4531450.977 8                  24704013.276
        29.750
 03  1 16  0 43 29.9990000  0  8G17G10G30G 6G 5G24G23G25
 -10817566.43749 -10644775.56747  22783524.2454                   22783524.2614
        44.2504         27.2504
 -26299325.49249 -21310946.34248  20610765.7534                   20610763.8434
        50.0004         40.0004
 -28044599.48049 -26023746.34348  19859170.7924                   19859169.3394
        51.7504         41.0004
 -23154051.68749 -19544997.49647  20968542.7694                   20968541.1404
        49.0004         38.7504
 -31094089.49649 -24214624.73247  21356874.6514                   21356873.0384
        47.7504         34.7504
 -21719906.97349 -16880687.16646  22984305.3554                   22984304.8664
        41.7504         20.2504
 -10870112.27349  -8425078.12547  22463292.4174                   22463293.5114
        45.5004         29.2504
  -4555829.51618                  24699375.440
        31.750
 03  1 16  0 43 59.9990000  0  8G17G10G30G 6G 5G24G23G25
 -10920799.37949 -10725216.74247  22763879.7144                   22763879.6514
        44.2504         27.2504
 -26319027.33249 -21326298.38348  20607016.5584                   20607014.4174
        51.0004         39.5004
 -28054276.56649 -26031286.91448  19857329.3154                   19857327.7304
        52.0004         41.0004
 -23235722.29349 -19608636.86747  20953001.2764                   20952999.9094
        50.5004         38.7504
 -31036112.60949 -24169447.96847  21367907.3234                   21367905.5734
        48.5004         34.5004
 -21663745.28949 -16836924.82646  22994992.5424                   22994992.0344
        40.7504         21.2504
 -10995408.62149  -8522711.51247  22439449.1514                   22439449.8004
        45.7504         30.2504
  -4579766.988 8                  24694819.019
        28.500
 03  1 16  0 44 29.9980000  0  8G17G10G30G 6G 5G24G23G25
 -11023816.42249 -10805489.63947  22744276.0684                   22744275.9434
        45.2504         28.5004
 -26338095.22749 -21341156.45547  20603388.2014                   20603385.7484
        51.5004         39.2504
 -28063366.69149 -26038370.12648  19855599.2874                   19855597.9864
        50.7504         41.5004
 -23317237.54749 -19672155.17647  20937488.9284                   20937487.5414
        50.2504         38.7504
 -30977803.68749 -24124012.47947  21379002.9284                   21379002.0534
        48.5004         35.2504
 -21607556.16849 -16793141.05746  23005685.5764                   23005685.0764
        40.2504         20.2504
 -11120487.42649  -8620175.39647  22415647.3894                   22415647.8114
        46.0004         30.5004
  -4603270.84018                  24690350.756
        31.500
 03  1 16  0 44 59.9980000  0  7G17G10G30G 6G 5G24G23
 -11126619.80149 -10885596.05347  22724713.1154                   22724713.1504
        44.7504         27.2504
 -26356526.81649 -21355518.69447  20599880.7014                   20599878.6864
        52.2504         39.2504
 -28071866.90649 -26044993.64648  19853981.7564                   19853980.1894
        51.7504         41.0004
 -23398597.53149 -19735552.52547  20922006.4434                   20922004.9164
        50.7504         38.0004
 -30919157.05949 -24078313.83947  21390163.1314                   21390161.9164
        48.7504         35.7504
 -21551332.68449 -16749330.62346  23016384.1394                   23016383.6474
        37.7504         19.2504
 -11245350.05949  -8717470.80047  22391886.5294                   22391886.9944
        45.5004         30.2504
 03  1 16  0 45 29.9980000  0  7G17G10G30G 6G 5G24G23
 -11229205.30949 -10965532.68647  22705191.6624                   22705192.1744
        43.5004         27.5004
 -26374321.44149 -21369384.60847  20596494.5844                   20596492.3504
        51.2504         39.2504
 -28079776.85949 -26051157.23348  19852476.9124                   19852474.8694
        52.0004         41.0004
 -23479797.99249 -19798825.55247  20906554.9124                   20906553.1234
        51.0004         38.7504
 -30860176.43749 -24032354.94347  21401387.0924                   21401385.8574
        49.0004         35.2504
 -21495078.14549 -16705495.86446  23027088.8654                   23027089.0724
        39.2504         20.0004
 -11369989.23049  -8814592.06547  22368168.3574                   22368168.6624
        46.0004         30.0004
 03  1 16  0 45 59.9980000  0  7G17G10G30G 6G 5G24G23
 -11331572.28949 -11045299.04347  22685711.3574                   22685712.0254
        43.2504         27.2504
 -26391479.03949 -21382754.12347  20593229.1864                   20593226.8544
        51.5004         39.0004
 -28087096.62549 -26056860.93348  19851083.8894                   19851082.2564
        51.7504         41.2504
 -23560837.16049 -19861972.90347  20891133.3814                   20891131.9634
        50.7504         38.5004
 -30800863.71949 -23986137.26647  21412673.4674                   21412672.2364
        48.2504         35.5004
 -21438793.24249 -16661637.45346  23037799.4824                   23037798.5064
        38.5004         18.5004
 -11494401.68449  -8911536.67847  22344493.7174                   22344493.5924
        46.0004         30.5004
 03  1 16  0 46 29.9980000  0  7G17G10G30G 6G 5G24G23
 -11433718.59049 -11124893.45947  22666273.3814                   22666273.9904
        44.0004         29.0004
 -26407998.49249 -21395626.39247  20590085.8034                   20590083.3934
        51.0004         38.5004
 -28093824.95349 -26062103.76748  19849803.7014                   19849802.0684
        53.0004         41.2504
 -23641712.42649 -19924992.51947  20875743.4434                   20875741.9324
        51.2504         38.5004
 -30741219.71549 -23939661.45347  21424023.1544                   21424022.3774
        47.7504         35.0004
 -21382477.75849 -16617755.26246  23048516.3504                   23048515.6154
        38.0004         16.7504
 -11618583.12549  -9008301.27447  22320862.5144                   22320862.6744
        46.0004         29.5004
 03  1 16  0 46 59.9980000  0  7G17G10G30G 6G 5G24G23
 -11535645.04349 -11204316.53747  22646877.5294                   22646878.2954
        44.7504         28.5004
 -26423881.77349 -21408002.94747  20587063.5534                   20587061.2404
        51.2504         38.2504
 -28099964.10549 -26066887.52248  19848635.3814                   19848633.8304
        52.5004         41.7504
 -23722424.28149 -19987884.82347  20860384.3424                   20860382.6274
        50.5004         38.5004
 -30681248.31249 -23892930.52347  21435435.7794                   21435434.4674
        48.0004         34.5004
 -21326134.39549 -16573851.32846  23059238.4124                   23059237.7214
        37.0004         17.7504
 -11742532.65649  -9104885.14347  22297275.7404                   22297276.0254
        46.2504         31.5004
 03  1 16  0 47 29.9980000  0  7G17G10G30G 6G 5G24G23
 -11637353.53949 -11283569.79147  22627523.1624                   22627523.7604
        46.0004         28.7504
 -26439132.00049 -21419886.21047  20584161.3814                   20584159.3694
        52.0004         39.0004
 -28105517.00449 -26071214.42548  19847578.7094                   19847577.2644
        51.5004         42.0004
 -23802973.83649 -20050650.65347  20845056.1704                   20845054.5764
        51.5004         37.7504
 -30620954.30949 -23845948.20347  21446909.3574                   21446908.2754
        47.5004         34.7504
 -21269766.87949 -16529928.57846  23069964.7954                   23069963.3144
        36.0004         15.5004
 -11866249.93749  -9201288.02747  22273732.7404                   22273733.5644
        45.5004         31.5004
 03  1 16  0 47 59.9980000  0  7G17G10G30G 6G 5G24G23
 -11738841.48849 -11362651.19947  22608210.5374                   22608211.4004
        45.5004         30.2504
 -26453747.04349 -21431274.52747  20581380.0374                   20581377.9754
        51.0004         38.2504
 -28110481.53949 -26075082.87848  19846633.7874                   19846632.1624
        52.2504         41.5004
 -23883357.37549 -20113287.11147  20829759.7094                   20829758.0334
        51.5004         37.7504
 -30560337.44949 -23798714.31147  21458443.9514                   21458443.5494
        48.0004         35.0004
 -21213374.05548 -16485986.03546  23080695.7874                   23080694.1934
        34.7504         16.2504
 -11989729.44549  -9297505.62347  22250235.7324                   22250235.9364
        46.7504         33.0004
 03  1 16  0 48 29.9980000  0  7G17G10G30G 6G 5G24G23
 -11840107.21149 -11441559.42547  22588940.4754                   22588940.7754
        45.0004         30.0004
 -26467726.54349 -21442167.60847  20578719.9284                   20578717.6004
        50.2504         38.5004
 -28114857.43749 -26078492.65848  19845801.0614                   19845799.8974
        51.2504         41.5004
 -23963572.78549 -20175792.57147  20814495.4754                   20814493.4674
        51.0004         38.0004
 -30499399.09849 -23751229.89147  21470040.2874                   21470039.3424
        48.0004         35.5004
                                  23091431.8734                   23091429.6074
        31.5004         16.7504
 -12112967.60949  -9393535.19047  22226783.8344                   22226784.3894
        44.5004         32.5004
 03  1 16  0 48 59.9980000  0  7G17G10G30G 6G 5G24G23
 -11941148.47349 -11520292.76347  22569712.3974                   22569713.2794
        44.5004         30.7504
 -26481069.18449 -21452564.44347  20576180.4204                   20576178.5844
        50.0004         38.0004
 -28118643.43749 -26081442.76848  19845080.8504                   19845079.1044
        52.0004         41.5004
 -24043616.92249 -20238164.55047  20799263.3734                   20799261.2994
        51.0004         38.5004
 -30438139.82449 -23703495.41547  21481697.5224                   21481696.3934
        47.7504         36.0004
 -21100512.84858 -16398042.34456  23102171.6004                   23102171.3974
        32.0004         15.5004
 -12235959.86349  -9489373.09547  22203379.1004                   22203379.1194
        46.5004         33.2504
 03  1 16  0 49 29.9980000  0  7G17G10G30G 6G 5G24G23
 -12041969.38749 -11598854.39647  22550527.0614                   22550527.5144
        44.2504         30.7504
 -26493779.62949 -21462468.65347  20573761.8184                   20573759.8034
        50.0004         37.2504
 -28121844.29749 -26083936.92148  19844471.6314                   19844470.1934
        51.0004         41.5004
 -24123492.53149 -20300405.22647  20784063.5534                   20784061.2404
        51.5004         38.0004
 -30376565.92249 -23655515.76547  21493415.0454                   21493413.9324
        48.5004         35.5004
 -21044048.89118                  23112918.131
        30.750
 -12358707.49649  -9585020.42547  22180020.9124                   22180020.7524
        43.7504         32.0004
 03  1 16  0 49 59.9980000  0  8G17G10G30G 6G 5G24G23G25
 -12142568.72349 -11677243.34647  22531383.5764                   22531383.8504
        43.7504         30.2504
 -26505858.33649 -21471880.59747  20571463.1234                   20571461.3854
        49.2504         37.0004
 -28124460.35949 -26085975.39948  19843974.0454                   19843972.4794
        52.0004         42.0004
 -24203198.13349 -20362513.42647  20768895.9514                   20768894.0334
        51.0004         38.2504
 -30314679.56649 -23607292.65747  21505191.4984                   21505190.6004
        48.0004         35.2504
 -20987565.64518                  23123666.982
        31.000
 -12481207.45749  -9680474.76447  22156709.4044                   22156709.4164
        45.0004         32.5004
   -116442.16418                  24646586.006
        32.000
 03  1 16  0 50 29.9980000  0  8G17G10G30G 6G 5G24G23G25
 -12242944.10949 -11755457.80547  22512283.2014                   22512282.6394
        45.5004         30.7504
 -26517303.88749 -21480799.18147  20569285.4204                   20569283.5884
        49.0004         37.2504
 -28126489.93749 -26087556.86248  19843587.6474                   19843585.8424
        52.0004         42.0004
 -24282730.25049 -20424486.43847  20753761.3894                   20753758.9434
        51.5004         37.5004
 -30252480.71149 -23558826.01447  21517027.4984                   21517026.8034
        47.5004         36.0004
                                  23134416.967
        27.250
 -12603454.79749  -9775732.23947  22133446.1624                   22133446.3384
        45.5004         33.0004
   -134774.062 8                  24643092.904
        29.250
 03  1 16  0 50 59.9980000  0  8G17G10G30G 6G 5G24G23G25
 -12343094.04749 -11833496.61247  22493224.7014                   22493224.7644
        46.0004         30.5004
 -26528116.03149 -21489224.19347  20567227.8184                   20567225.7094
        49.2504         37.2504
 -28127932.97349 -26088681.28948  19843313.1784                   19843311.1544
        52.2504         41.7504
 -24362086.80949 -20486322.64947  20738660.5614                   20738658.3034
        51.5004         38.2504
 -30189970.91049 -23510117.09147  21528922.8344                   21528921.7564
        48.0004         35.5004
                                  23145174.522
        27.500
 -12725446.03549  -9870790.17647  22110232.2094                   22110232.5494
        44.7504         33.5004
   -152679.94918                  24639689.061
        35.000
 03  1 16  0 51 29.9980000  0  8G17G10G30G 6G 5G24G23G25
 -12443018.59049 -11911359.76947  22474210.0454                   22474208.9714
        45.7504         31.0004
 -26538296.12549 -21497156.69747  20565290.7794                   20565288.5064
        49.5004         36.7504
 -28128790.96149 -26089349.84448  19843150.1394                   19843148.0184
        51.7504         41.5004
 -24441267.23449 -20548021.62247  20723592.8114                   20723590.3974
        51.7504         38.5004
 -30127153.31649 -23461168.33547  21540876.7254                   21540875.6274
        48.2504         35.7504
 -20817996.87518                  23155933.506
        30.000
 -12847179.25449  -9965647.08547  22087067.0224                   22087067.0884
        44.0004         33.7504
   -170161.625 9                  24636363.576
        36.500
 03  1 16  0 51 59.9980000  0  8G17G10G30G 6G 5G24G23G25
 -12542718.66049 -11989048.02147  22455237.7174                   22455236.9794
        46.7504         31.7504
 -26547845.62149 -21504597.83147  20563473.5844                   20563471.6704
        50.0004         37.7504
 -28129065.04349 -26089563.39448  19843097.5454                   19843095.7564
        51.7504         41.5004
 -24520270.91049 -20609582.86647  20708559.2324                   20708556.6354
        52.0004         38.5004
 -30064030.93449 -23411982.08147  21552888.3344                   21552887.4284
        47.7504         35.7504
                                  23166696.029
        29.250
 -12968652.39549 -10060301.34447  22063951.1074                   22063951.9004
        45.2504         34.0004
   -187220.746 9                  24633117.029
        36.000
 03  1 16  0 52 29.9980000  0  8G17G10G30G 6G 5G24G23G25
 -12642195.44949 -12066562.29947  22436307.7404                   22436307.2604
        45.2504         30.7504
 -26556767.36749 -21511549.79447  20561775.6474                   20561773.7364
        49.0004         36.5004
 -28128758.05949 -26089324.17148  19843155.9904                   19843154.2994
        52.5004         41.5004
 -24599098.54349 -20671006.92147  20693558.6704                   20693556.4044
        51.7504         38.7504
 -30000607.98049 -23362561.59547  21564957.4044                   21564956.5294
        49.0004         36.5004
                                  23177461.061
        26.750
 -13089864.52049 -10154752.21347  22040885.5614                   22040885.5494
        46.5004         34.5004
   -203860.41449  -3622901.02056  24629951.2954                   24629952.0024
        36.2504         16.7504
 03  1 16  0 52 59.9980000  0  7G17G10G30G 6G 5G23G25
 -12741447.30549 -12143901.33747  22417420.2254                   22417420.0844
        45.0004         30.0004
 -26565060.74249 -21518012.13247  20560197.3974                   20560195.2254
        49.2504         37.5004
 -28127869.40649 -26088631.69848  19843325.0454                   19843323.4594
        52.5004         41.7504
 -24677747.43049 -20732291.71047  20678591.9674                   20678590.1044
        51.7504         38.2504
 -29936885.58249 -23312907.80847  21577083.2324                   21577082.6784
        47.7504         37.2504
 -13210811.64849 -10248996.59647  22017869.5144                   22017870.0724
        45.5004         34.5004
   -220080.41849  -3635539.90246  24626863.5374                   24626865.5184
        36.0004         14.7504
 03  1 16  0 53 29.9980000  0  7G17G10G30G 6G 5G23G25
 -12840473.15649 -12221064.19747  22398576.2954                   22398576.1824
        45.5004         31.0004
 -26572725.94149 -21523984.99047  20558738.8504                   20558736.8264
        49.2504         37.5004
 -28126399.55949 -26087486.33848  19843604.7484                   19843603.3224
        52.2504         41.0004
 -24756216.01249 -20793435.99247  20663660.1784                   20663657.7914
        51.5004         38.5004
 -29872865.67249 -23263022.16247  21589266.0454                   21589265.3344
        47.0004         36.2504
 -13331490.69949 -10343032.09347  21994905.0534                   21994905.0844
        47.0004         33.5004
   -235881.69148  -3647852.56246  24623856.3654                   24623859.4364
        35.0004         15.5004
 03  1 16  0 53 59.9980000  0  7G17G10G30G 6G 5G23G25
 -12939273.45749 -12298051.37347  22379775.2564                   22379774.9754
        46.0004         30.0004
 -26579764.52349 -21529469.56947  20557399.7644                   20557397.4004
        49.5004         37.7504
 -28124349.86749 -26085889.15548  19843994.5614                   19843992.7014
        52.0004         40.5004
 -24834503.52349 -20854439.18347  20648762.5924                   20648760.0494
        51.7504         38.0004
 -29808551.18449 -23212906.99647  21601504.4594                   21601503.9284
        47.5004         36.5004
 -13451899.50049 -10436857.02347  21971991.5294                   21971991.9004
        47.5004         34.0004
   -251265.91048  -3659840.29746  24620930.1314                   24620930.5064
        35.5004         14.7504
 03  1 16  0 54 29.9980000  0  7G17G10G30G 6G 5G23G25
 -13037847.57449 -12374862.27947  22361016.7094                   22361016.5494
        46.5004         30.0004
 -26586176.63349 -21534465.98547  20556179.1234                   20556177.1434
        49.7504         38.0004
 -28121720.64149 -26083840.39548  19844494.9044                   19844492.9474
        51.5004         41.0004
 -24912608.01649 -20915299.77547  20633899.8114                   20633897.0884
        51.7504         38.5004
 -29743943.94549 -23162563.71547  21613799.0764                   21613798.4244
        46.7504         37.0004
 -13572034.80949 -10530468.82547  21949131.1544                   21949130.7564
        47.2504         34.0004
   -266234.05148  -3671503.85546  24618079.9364                   24618082.1824
        35.5004         13.7504
 03  1 16  0 54 59.9980000  0  7G17G10G30G 6G 5G23G25
 -13136194.15649 -12451495.88947  22342301.5534                   22342301.3074
        46.2504         29.7504
 -26591963.12149 -21538974.92647  20555078.4514                   20555076.3464
        50.0004         37.5004
 -28118512.36749 -26081340.42948  19845105.6074                   19845103.6974
        51.5004         41.0004
 -24990527.75849 -20976016.40147  20619071.5614                   20619069.4514
        52.2504         38.2504
 -29679046.10549 -23111993.98647  21626148.5844                   21626147.5224
        46.5004         37.2504
 -13691893.60249 -10623865.16247  21926322.1474                   21926322.1314
        46.7504         34.0004
   -280786.98048  -3682843.74646  24615311.9824                   24615313.7134
        34.7504         14.7504
 03  1 16  0 55 29.9980000  0  8G17G10G30G 6G 5G24G23G25
 -13234312.27049 -12527951.45647  22323630.4754                   22323630.2604
        47.0004         30.0004
 -26597123.52349 -21542995.99547  20554096.3264                   20554094.1864
        49.7504         37.0004
 -28114724.77049 -26078389.04048  19845826.2014                   19845824.6074
        51.0004         40.5004
 -25068260.23049 -21036587.09047  20604279.7094                   20604277.4754
        51.2504         38.7504
 -29613858.80149 -23061198.69447  21638553.4514                   21638552.4164
        46.0004         36.5004
     72933.03918                  23242100.381
        31.750
 -13811472.00849 -10717043.01547  21903566.8574                   21903567.1004
        48.0004         34.2504
   -294924.953 8                  24612620.826
        34.250
 03  1 16  0 55 59.9980000  0  8G17G10G30G 6G 5G24G23G25
 -13332200.20749 -12604227.70047  22305003.1154                   22305002.3504
        46.7504         30.0004
 -26601658.11749 -21546529.41147  20553232.8894                   20553231.2134
        50.2504         37.2504
 -28110357.91049 -26074986.28948  19846657.2254                   19846655.4794
        51.0004         40.5004
 -25145803.23049 -21097010.15047  20589523.7484                   20589521.4754
        51.5004         38.2504
 -29548383.46149 -23010178.98347  21651013.0534                   21651011.9984
        47.0004         37.0004
    129580.24618                  23252878.482
        30.750
 -13930766.40649 -10809999.56347  21880866.0224                   21880866.1394
        47.2504         35.0004
   -308648.223 8                  24610009.904
        33.000
 03  1 16  0 56 29.9980000  0  9G17G15G10G30G 6G 5G24G23G25
 -13429862.37949 -12680328.02047  22286418.4824                   22286418.0184
        47.2504         29.2504
   -154126.28919                  24725937.475
        38.250
 -26605572.29749 -21549579.39447  20552488.2014                   20552486.3224
        49.7504         37.0004
 -28105417.33649 -26071136.46248  19847597.5614                   19847595.3734
        51.0004         40.5004
 -25223160.07449 -21157288.13247  20574803.2174                   20574801.2094
        51.2504         38.0004
 -29482627.06649 -22958940.25347  21663526.2954                   21663525.1974
        48.0004         36.7504
    186231.348 8                  23263658.686
        31.750
 -14049778.73449 -10902736.31047  21858218.8264                   21858218.7364
        47.0004         34.5004
   -321962.770 8                  24607474.732
        31.750
 03  1 16  0 56 59.9980000  0  9G17G15G10G30G 6G 5G24G23G25
 -13527307.65649 -12756259.31947  22267875.2324                   22267875.5684
        46.5004         30.5004
   -275422.602 9                  24702855.014
        38.500
 -26608876.47749 -21552154.06247  20551859.4904                   20551857.2484
        49.5004         37.2504
 -28099913.42249 -26066847.68548  19848644.7644                   19848642.6784
        50.7504         40.0004
 -25300339.00449 -21217427.50147  20560116.1154                   20560114.2484
        50.7504         37.7504
 -29416601.68449 -22907491.92547  21676090.4754                   21676089.4794
        48.2504         37.0004
                                  23274436.975
        31.500
 -14168515.80149 -10995258.56947  21835623.4044                   21835623.7914
        47.0004         34.5004
   -334879.078 8                  24605017.764
        33.000
 03  1 16  0 57 29.9980000  0  9G17G15G10G30G 6G 5G24G23G25
 -13624543.95749 -12832027.77047  22249371.6074                   22249371.9944
        47.0004         30.7504
   -396625.828 9                  24679790.607
        36.250
 -26611579.78149 -21554260.49447  20551344.8424                   20551342.9044
        50.5004         37.0004
 -28093855.06649 -26062126.88448  19849797.5764                   19849795.5964
        51.0004         40.5004
 -25377346.32049 -21277433.15047  20545462.2874                   20545460.4044
        50.5004         38.5004
 -29350317.42649 -22855841.86947  21688704.0064                   21688703.0144
        48.2504         36.7504
    299504.637 8                  23285214.303
        32.750
 -14286982.78149 -11087570.35547  21813080.1074                   21813080.3304
        47.2504         35.2504
   -347406.547 8                  24602634.490
        31.750
 03  1 16  0 57 59.9980000  0  9G17G15G10G30G 6G 5G24G23G25
 -13721569.59049 -12907632.07647  22230908.6394                   22230908.1194
        48.0004         30.7504
   -517733.621 9                  24656744.201
        36.500
 -26613681.62149 -21555898.26047  20550945.0224                   20550943.3934
        49.5004         37.0004
 -28087241.73849 -26056973.62048  19851056.0374                   19851053.9434
        50.7504         39.5004
 -25454179.33249 -21337302.96647  20530841.3264                   20530839.5294
        51.2504         38.7504
 -29283775.40649 -22803990.96847  21701366.5924                   21701365.4084
        48.7504         37.7504
    356117.973 8                  23295987.092
        34.750
 -14405175.62149 -11179668.53747  21790588.9044                   21790588.9434
        47.5004         35.0004
   -359545.191 8                  24600324.467
        32.000
 03  1 16  0 58 29.9980000  0  9G17G15G10G30G 6G 5G24G23G25
 -13818385.82049 -12983073.20847  22212484.9434                   22212485.2404
        47.2504         31.0004
   -638747.469 8                  24633715.193
        35.000
 -26615185.22749 -21557069.87447  20550658.7794                   20550656.6864
        49.2504         37.5004
 -28080076.53149 -26051390.33848  19852419.6074                   19852417.6974
        50.5004         39.5004
 -25530838.52349 -21397037.34247  20516253.4514                   20516251.7874
        51.0004         39.2504
 -29216979.93749 -22751942.57047  21714077.5454                   21714076.1274
        48.2504         37.0004
    412713.203 8                  23306757.498
        34.750
 -14523093.54749 -11271552.49547  21768149.2954                   21768148.9904
        48.0004         35.5004
   -371297.97718                  24598086.498
        32.000
 03  1 16  0 58 59.9980000  0  9G17G15G10G30G 6G 5G24G23G25
 -13914990.67649 -13058349.63747  22194101.2954                   22194101.4044
        48.2504         30.7504
                                  24610705.373
        28.250
 -26616089.64149 -21557774.58547  20550487.1394                   20550484.8694
        49.5004         37.7504
 -28072358.62549 -26045376.37147  19853888.1474                   19853886.3264
        50.5004         39.0004
 -25607320.89149 -21456633.93147  20501699.3424                   20501697.5804
        51.5004         39.0004
 -29149931.72749 -22699697.21847  21726835.9824                   21726835.5804
        48.2504         36.5004
    469290.715 8                  23317524.232
        35.500
 -14640732.27049 -11363218.89347  21745763.5534                   21745763.3464
        47.7504         35.5004
   -382664.852 8                  24595922.100
        31.250
 03  1 16  0 59 29.9980000  0  9G17G29G10G30G 6G 5G24G23G25
 -14011376.55949 -13133455.43347  22175759.7324                   22175759.4394
        48.0004         30.7504
   -204238.94518                  24460374.201
        33.500
 -26616388.74649 -21558007.62247  20550429.9204                   20550427.9324
        50.0004         37.5004
 -28064081.66849 -26038926.78147  19855463.1864                   19855461.0374
        49.0004         39.2504
 -25683617.63349 -21516085.86747  20487180.5614                   20487178.5414
        51.0004         38.7504
 -29082625.74249 -22647251.01147  21739644.1474                   21739643.4204
        46.2504         36.0004
    525857.066 9                  23328287.803
        37.000
 -14758081.64849 -11454659.82047  21723432.9754                   21723432.2724
        48.0004         35.5004
   -393639.652 8                  24593833.928
        32.750
 03  1 16  0 59 59.9980000  0  9G17G29G10G30G 6G 5G24G23G25
 -14107545.40249 -13208392.09847  22157459.1784                   22157459.1864
        48.2504         32.0004
   -305021.504 8                  24441196.475
        30.000
 -26616085.79349 -21557771.51747  20550487.7484                   20550484.9714
        50.0004         37.7504
 -28055248.92249 -26032044.10848  19857143.9364                   19857141.9634
        50.2504         39.7504
 -25759729.49649 -21575393.76147  20472696.9204                   20472694.9244
        50.5004         39.0004
 -29015066.64549 -22594607.59147  21752500.0534                   21752499.3344
        48.0004         36.5004
    582409.441 9                  23339049.248
        37.500
 -14875141.12949 -11545874.86847  21701156.8264                   21701156.1234
        48.0004         35.5004
   -404226.039 8                  24591821.936
        31.750
 03  1 16  1  0 29.9980000  0  9G17G29G10G30G 6G 5G24G23G25
 -14203493.19949 -13283156.53147  22139200.8974                   22139200.6114
        48.0004         32.2504
                                  24422024.186
        25.250
 -26615178.50849 -21557064.50247  20550660.4204                   20550657.8934
        50.2504         38.0004
 -28045858.13349 -26024726.59947  19858930.8654                   19858928.9514
        50.2504         39.2504
 -25835651.85949 -21634553.97747  20458249.2954                   20458247.1784
        50.7504         38.0004
 -28947253.55949 -22541766.25647  21765404.5614                   21765403.9394
        47.7504         36.5004
    638949.422 8                  23349807.951
        35.000
 -14991904.88349 -11636859.50147  21678937.3114                   21678936.8224
        47.5004         35.5004
   -414422.281 8                  24589879.709
        30.750
 03  1 16  1  0 59.9980000  0  8G17G10G30G 6G 5G24G23G25
 -14299220.52349 -13357749.15947  22120985.1934                   22120984.4124
        48.0004         33.2504
 -26613669.02349 -21555888.23447  20550947.2794                   20550945.1664
        50.5004         38.0004
 -28035911.22349 -26016975.75148  19860823.8264                   19860822.1114
        51.0004         39.7504
 -25911383.80949 -21693565.83547  20443837.8034                   20443835.8694
        51.2504         39.0004
 -28879189.40649 -22488729.27847  21778356.7484                   21778355.8934
        48.2504         36.2504
    695475.625 8                  23360564.303
        35.250
 -15108371.14149 -11727612.29847  21656774.7724                   21656773.9794
        47.5004         35.7504
   -424230.379 8                  24588012.998
        31.500
 03  1 16  1  1 29.9980000  0  9G17G15G10G30G 6G 5G24G23G25
 -14394724.32449 -13432167.60047  22102811.2484                   22102810.5254
        48.0004         33.2504
   -333315.74618                  24495962.725
        35.250
 -26611555.66449 -21554241.41947  20551349.7874                   20551347.2484
        49.7504         38.0004
 -28025406.48849 -26008790.22748  19862823.0534                   19862821.0964
        51.5004         39.7504
 -25986921.18749 -21752426.06047  20429463.5924                   20429461.7174
        51.0004         38.5004
 -28810874.01249 -22435496.53347  21791356.6934                   21791356.1154
        48.5004         35.7504
    751990.102 8                  23371319.654
        35.500
 -15224534.31249 -11818128.93847  21634669.4674                   21634668.7214
        47.5004         35.5004
   -433648.71118                  24586222.084
        33.250
 03  1 16  1  1 59.9980000  0  9G17G15G10G30G 6G 5G24G23G25
 -14490005.82849 -13506412.83947  22084679.6314                   22084679.1044
        48.0004         33.0004
   -453586.734 9                  24473075.404
        37.250
 -26608841.37949 -21552126.35047  20551866.1704                   20551863.4084
        50.0004         38.5004
 -28014346.80949 -26000172.28348  19864927.4754                   19864925.7364
        51.7504         40.5004
 -26062264.29749 -21811134.91947  20415126.3184                   20415124.2834
        51.2504         39.0004
 -28742311.55149 -22382071.25647  21804403.7404                   21804403.2254
        48.5004         36.0004
    808490.145 8                  23382071.318
        34.250
 -15340393.53949 -11908408.75547  21612622.2484                   21612621.4514
        47.5004         36.0004
   -442680.75818                  24584502.404
        32.750
 03  1 16  1  2 29.9980000  0  9G17G15G10G30G 6G 5G24G23G25
 -14585063.23849 -13580483.43447  22066590.9044                   22066590.4794
        48.0004         33.5004
   -573744.953 8                  24450209.951
        35.000
 -26605525.37949 -21549542.42847  20552497.3814                   20552494.5574
        49.2504         37.7504
 -28002731.65649 -25991121.50348  19867137.6784                   19867135.6074
        52.0004         40.2504
 -26137409.80549 -21869689.79247  20400826.1074                   20400824.0614
        51.0004         39.2504
 -28673502.60549 -22328453.93547  21817497.7954                   21817496.7914
        48.5004         35.5004
    864976.504 8                  23392819.818
        32.750
 -15455944.50849 -11998448.37247  21590633.7094                   21590632.5494
        47.0004         36.2504
   -451326.246 8                  24582856.639
        31.250
 03  1 16  1  2 59.9980000  0  9G17G15G10G30G 6G 5G24G23G25
 -14679893.14549 -13654376.75847  22048545.2794                   22048544.6154
        48.5004         33.5004
   -693786.953 8                  24427367.217
        32.250
 -26601606.60549 -21546488.78447  20553242.8424                   20553240.8304
        50.0004         37.7504
 -27990559.46549 -25981636.66348  19869453.9284                   19869452.3814
        51.2504         40.2504
 -26212353.64549 -21928087.53247  20386564.7954                   20386562.7994
        50.7504         39.2504
 -28604446.90249 -22274644.32247  21830638.7724                   21830637.7174
        49.2504         36.5004
    921451.047 8                  23403566.943
        31.500
 -15571181.85249 -12088243.60447  21568704.1474                   21568703.7364
        47.5004         35.5004
   -459583.711 8                  24581286.576
        31.250
 03  1 16  1  3 29.9980000  0  9G17G15G10G30G 6G 5G24G23G25
 -14774496.05949 -13728093.22347  22030541.9754                   22030542.9164
        48.5004         34.2504
   -813712.297 8                  24404545.022
        32.000
 -26597086.67649 -21542966.72447  20554102.8184                   20554100.1894
        50.0004         37.5004
 -27977831.88349 -25971719.05248  19871875.8184                   19871873.8224
        51.2504         40.0004
 -26287094.80949 -21986327.34747  20372341.8814                   20372340.1274
        50.7504         38.7504
 -28535147.23849 -22220644.61347  21843826.3574                   21843824.7254
        50.0004         36.0004
    977912.145 8                  23414311.803
        31.750
 -15686103.21949 -12177792.63347  21546835.3654                   21546834.7484
        47.5004         36.0004
   -467455.090 8                  24579790.818
        31.250
 03  1 16  1  3 59.9980000  0  8G17G15G10G30G 6G 5G24G23
 -14868870.84449 -13801631.90747  22012583.1394                   22012583.3694
        47.7504         34.5004
   -933519.437 8                  24381745.920
        32.750
 -26591966.01649 -21538976.55647  20555077.3034                   20555074.3144
        50.2504         37.7504
 -27964549.20749 -25961368.89648  19874403.3574                   19874401.5414
        50.5004         40.5004
 -26361630.98449 -22044407.44048  20358158.2254                   20358156.5644
        49.5004         39.5004
 -28465605.14149 -22166456.00347  21857059.6154                   21857058.3734
        49.5004         35.5004
                                  23425052.475
        30.750
 -15800705.23049 -12267092.81347  21525027.4044                   21525026.7524
        48.0004         35.5004
 03  1 16  1  4 29.9980000  0  8G17G15G10G30G 6G 5G24G23
 -14963018.33649 -13874993.46647  21994667.6624                   21994667.6974
        48.7504         35.0004
                                  24358969.076
        29.500
 -26586247.10949 -21534520.21947  20556165.6544                   20556162.5614
        50.0004         37.0004
 -27950713.93449 -25950588.14548  19877036.0374                   19877034.4004
        50.5004         40.2504
 -26435961.82049 -22102327.51648  20344013.5224                   20344011.0804
        49.7504         39.7504
 -28395824.26649 -22112081.33147  21870338.3654                   21870337.2294
        48.5004         35.0004
   1090792.29718                  23435789.740
        28.750
 -15914986.36749 -12356142.95947  21503280.1784                   21503279.5414
        47.7504         35.7504
 03  1 16  1  4 59.9980000  0  7G17G15G10G30G 6G 5G23
 -15056937.69949 -13948177.27947  21976795.3424                   21976794.9984
        48.5004         34.7504
  -1172778.54318                  24336214.873
        32.250
 -26579931.09849 -21529598.62247  20557367.1074                   20557364.7254
        50.5004         37.0004
 -27936327.17249 -25939377.66448  19879773.7794                   19879772.0964
        48.7504         40.5004
 -26510085.71549 -22160086.34648  20329908.2874                   20329906.2364
        47.7504         39.5004
 -28325807.18449 -22057522.59447  21883662.3114                   21883661.4164
        49.0004         34.5004
 -16028944.16049 -12444941.13547  21481594.7644                   21481594.2364
        48.0004         35.7504
 03  1 16  1  5 29.9980000  0  7G17G15G10G30G 6G 5G23
 -15150625.97349 -14021181.01447  21958966.8034                   21958966.8074
        49.0004         34.7504
  -1292225.613 8                  24313483.139
        33.250
 -26573016.11349 -21524210.28947  20558682.9434                   20558680.3654
        49.5004         37.0004
 -27921387.16049 -25927736.08948  19882617.0454                   19882615.1394
        50.0004         40.5004
 -26583997.84449 -22217680.16948  20315843.4204                   20315841.2484
        48.5004         39.7504
 -28255552.82849 -22002778.96747  21897031.5374                   21897030.0724
        48.7504         33.7504
 -16142572.64549 -12533482.73447  21459971.7794                   21459971.4714
        46.7504         36.0004
 03  1 16  1  5 59.9980000  0  7G17G15G10G30G 6G 5G23
 -15244086.09049 -14094006.95547  21941181.9824                   21941181.8264
        48.2504         35.0004
  -1411552.60518                  24290775.318
        32.500
 -26565506.96549 -21518358.98747  20560112.0294                   20560109.7564
        49.0004         37.0004
 -27905898.44549 -25915666.93948  19885564.0534                   19885562.5764
        51.0004         40.5004
 -26657700.28549 -22275110.59748  20301818.3574                   20301816.1234
        50.2504         39.7504
 -28185066.96949 -21947854.97347  21910444.3034                   21910442.9434
        48.2504         34.2504
 -16255872.58249 -12621768.29847  21438411.3504                   21438410.9084
        46.2504         35.7504
 03  1 16  1  6 29.9980000  0  8G17G15G10G30G 6G 5G24G23
 -15337314.76649 -14166652.55147  21923441.3814                   21923440.3544
        48.7504         35.0004
  -1530756.13318                  24268090.170
        28.500
 -26557402.37549 -21512043.70047  20561654.2564                   20561651.5764
        49.0004         36.5004
 -27889859.42649 -25903168.99048  19888616.2874                   19888614.6584
        51.0004         40.2504
 -26731188.84049 -22332374.36848  20287834.0144                   20287831.8654
        51.0004         39.5004
 -28114349.43049 -21892750.43647  21923901.1314                   21923900.0454
        48.5004         34.0004
   1316359.28118                  23478717.154
        32.500
 -16368838.57449 -12709793.66347  21416914.3424                   21416914.1584
        46.5004         35.7504
 03  1 16  1  6 59.9980000  0  9G17G15G29G10G30G 6G 5G24G23
 -15430311.17249 -14239117.15947  21905744.1474                   21905744.4904
        49.0004         34.7504
  -1649834.324 8                  24245431.615
        31.500
   -403520.17618                  24172982.467
        35.250
 -26548703.04349 -21505264.98247  20563309.5294                   20563307.1394
        49.2504         36.0004
 -27873270.96149 -25890242.91048  19891773.1864                   19891771.8504
        52.5004         40.7504
 -26804461.23849 -22389469.70248  20273890.3114                   20273888.7834
        52.5004         40.2504
 -28043401.80949 -21837466.61247  21937402.0844                   21937401.0064
        47.5004         33.5004
   1372712.074 8                  23489439.170
        31.000
 -16481467.39149 -12797556.28647  21395481.6004                   21395481.0454
        45.0004         35.0004
 03  1 16  1  7 29.9980000  0  9G17G15G29G10G30G 6G 5G24G23
 -15523073.27349 -14311399.20247  21888092.0224                   21888091.8614
        48.7504         35.5004
  -1768784.375 8                  24222794.897
        33.750
   -503945.352 8                  24153871.615
        33.750
 -26539408.21949 -21498022.25447  20565078.2324                   20565075.8144
        49.2504         35.5004
 -27856132.32049 -25876888.09948  19895034.5374                   19895032.5294
        51.0004         40.5004
 -26877514.00849 -22446393.90848  20259988.7644                   20259986.9434
        50.7504         40.0004
 -27972224.67649 -21782003.96147  21950946.6474                   21950945.7094
        46.7504         33.0004
   1429049.813 8                  23500160.467
        32.000
 -16593754.40649 -12885052.56147  21374114.0224                   21374113.6044
        46.2504         34.5004
 03  1 16  1  7 59.9980000  0  9G17G15G29G10G30G 6G 5G24G23
 -15615605.20749 -14383501.89047  21870483.7174                   21870483.5684
        49.0004         35.5004
  -1887609.918 9                  24200182.740
        36.000
   -604321.824 8                  24134769.326
        34.000
 -26529523.99649 -21490320.24847  20566959.3814                   20566956.6864
        49.2504         36.0004
 -27838449.53949 -25863109.30148  19898399.5374                   19898397.4434
        51.0004         41.0004
 -26950349.94149 -22503149.14948  20246128.5764                   20246126.4514
        49.5004         39.5004
 -27900824.98049 -21726367.87147  21964533.4364                   21964532.1044
        46.0004         32.0004
   1485367.316 8                  23510876.936
        33.000
 -16705701.84049 -12972284.22247  21352811.0764                   21352810.4364
        46.5004         34.7504
 03  1 16  1  8 29.9980000  0  9G17G15G29G10G30G 6G 5G24G23
 -15707905.52349 -14455424.08947  21852919.7174                   21852919.3074
        49.0004         36.0004
  -2006309.082 9                  24177595.193
        36.500
   -704645.375 8                  24115679.287
        34.500
 -26519050.73449 -21482159.25447  20568952.0844                   20568949.3854
        49.0004         35.0004
 -27820222.69949 -25848906.56748  19901867.6784                   19901865.8854
        48.7504         40.7504
 -27022966.19549 -22559733.21848  20232310.3114                   20232308.0254
        47.7504         39.5004
 -27829204.04749 -21670559.38747  21978162.4204                   21978161.4824
        45.7504         31.7504
   1541664.898 8                  23521590.600
        32.500
 -16817305.82849 -13059248.25947  21331573.7794                   21331572.5254
        47.0004         35.5004
 03  1 16  1  8 59.9980000  0  9G17G15G29G10G30G 6G 5G24G23
 -15799971.32049 -14527163.54247  21835400.0844                   21835399.8424
        48.7504         36.0004
  -2124878.867 9                  24155032.764
        36.500
   -804910.738 8                  24096599.436
        34.500
 -26507987.58649 -21473538.60547  20571057.4674                   20571054.6474
        49.5004         35.5004
 -27801450.74249 -25834279.05348  19905439.6394                   19905438.1314
        49.2504         39.7504
 -27095358.97349 -22616143.14048  20218534.5454                   20218532.5144
        49.0004         40.0004
 -27757361.85949 -21614578.50347  21991833.5374                   21991833.3464
        46.7504         31.0004
   1597944.195 8                  23532299.881
        31.500
 -16928561.51649 -13145940.88447  21310402.2484                   21310401.5884
        47.7504         35.2504
 03  1 16  1  9 29.9980000  0  9G17G15G29G10G30G 6G 5G24G23
 -15891803.60249 -14598721.05047  21817924.7094                   21817924.6004
        48.5004         36.7504
  -2243319.684 8                  24132491.889
        33.250
   -905115.766 9                  24077531.045
        36.250
 -26496337.37949 -21464460.51547  20573274.3184                   20573271.6234
        50.0004         35.5004
 -27782136.66849 -25819229.11548  19909115.3184                   19909113.4204
        49.2504         40.2504
 -27167528.21149 -22672378.86848  20204801.2644                   20204799.1544
        49.0004         40.0004
 -27685302.31649 -21558428.25347  22005545.8814                   22005545.5064
        46.5004         30.7504
   1654202.977 8                  23543005.389
        31.000
 -17039467.86749 -13232361.30747  21289297.8894                   21289296.7094
        48.0004         34.7504
 03  1 16  1  9 59.9980000  0  9G17G15G29G10G30G 6G 5G24G23
 -15983399.73449 -14670094.52747  21800494.7724                   21800493.6894
        48.5004         36.5004
  -2361627.703 8                  24109979.022
        34.000
  -1005254.926 8                  24058474.912
        35.500
 -26484098.67649 -21454923.85147  20575603.1074                   20575600.7684
        49.7504         35.5004
 -27762279.02049 -25803755.60648  19912893.8654                   19912892.3344
        50.5004         40.2504
 -27239469.27349 -22728436.79248  20191111.1864                   20191109.0614
        49.7504         40.5004
 -27613024.85949 -21502108.20747  22019299.8894                   22019299.7134
        45.5004         30.7504
   1710443.60518                  23553708.467
        31.500
 -17150019.18449 -13318505.06947  21268260.1394                   21268259.3974
        47.7504         35.5004
 03  1 16  1 10 29.9980000  0 10G17G15G29G10G30G 6G 5G24G23G25
 -16074760.65649 -14741284.73547  21783109.2324                   21783108.4364
        49.2504         37.0004
  -2479803.828 9                  24087491.795
        38.750
  -1105326.395 9                  24039431.311
        36.000
 -26471274.26649 -21444930.78947  20578043.9434                   20578041.3034
        49.7504         35.2504
 -27741880.44149 -25787860.59348  19916775.8424                   19916774.1074
        51.7504         40.0004
 -27311181.98449 -22784316.79448  20177464.4984                   20177462.3544
        51.2504         40.0004
 -27540533.03149 -21445621.10447  22033094.7954                   22033094.4824
        45.7504         30.7504
   1766664.125 8                  23564405.217
        32.000
 -17260214.17249 -13404371.18947  21247290.8264                   21247289.8034
        47.5004         35.2504
                                  24566397.232
        31.250
 03  1 16  1 10 59.9980000  0  9G17G15G29G10G30G 6G 5G23G25
 -16165886.81249 -14812292.00547  21765768.5144                   21765767.7174
        49.0004         36.5004
  -2597848.027 9                  24065028.561
        39.500
  -1205327.633 9                  24020402.045
        38.750
 -26457866.75049 -21434483.35747  20580594.9674                   20580592.4594
        49.5004         35.0004
 -27720943.38349 -25771545.98848  19920760.1394                   19920758.2214
        52.0004         40.5004
 -27382665.68449 -22840018.33548  20163861.6784                   20163859.6234
        52.2504         40.5004
 -27467829.97749 -21388969.40647  22046929.6074                   22046929.4714
        45.0004         30.2504
 -17370051.25849 -13489958.41747  21226389.2094                   21226388.2094
        47.5004         35.0004
    -11627.758 8                  24565971.740
        32.500
 03  1 16  1 11 29.9980000  0  9G17G15G29G10G30G 6G 5G23G25
 -16256777.53549 -14883115.82447  21748472.4674                   21748471.7094
        49.0004         36.2504
  -2715759.445 9                  24042589.670
        38.750
  -1305255.719 8                  24001386.662
        34.750
 -26443877.57049 -21423582.69847  20583257.0534                   20583254.7014
        48.5004         35.5004
 -27699469.07449 -25754812.75448  19924846.3344                   19924844.4944
        53.0004         40.2504
 -27453918.44949 -22895539.92348  20150302.6784                   20150300.4674
        52.5004         40.5004
 -27394918.20349 -21332155.08547  22060804.5534                   22060804.0534
        43.2504         30.2504
 -17479527.75449 -13575264.66547  21205556.1544                   21205555.4754
        47.2504         35.5004
    -13497.45718                  24565617.975
        33.500
 03  1 16  1 11 59.9980000  0  8G17G15G29G10G30G 6G 5G23
 -16347431.78149 -14953755.38247  21731221.4284                   21731220.3304
        48.5004         35.5004
  -2833535.883 9                  24020178.162
        40.000
  -1405105.953 8                  23982384.998
        34.750
 -26429306.75849 -21412228.78347  20586029.6864                   20586026.9944
        49.5004         35.5004
 -27677457.59849 -25737660.94048  19929035.0064                   19929032.9984
        51.7504         40.5004
 -27524937.32049 -22950879.25848  20136788.3114                   20136786.2254
        52.7504         40.7504
 -27321798.66049 -21275178.86747  22074718.5064                   22074717.9474
        44.5004         28.5004
 -17588639.76249 -13660286.90147  21184792.9044                   21184791.8894
        48.0004         34.7504
 03  1 16  1 12 29.9970000  0  9G17G15G29G10G30G 6G 5G23G25
 -16437846.00849 -15024207.91447  21714015.4544                   21714014.9744
        48.0004         35.5004
  -2951172.99649  -2724589.01256  23997792.9154                   23997800.5834
        40.0004         17.2504
  -1504872.305 8                  23963399.798
        33.000
 -26414156.93749 -21400423.70747  20588912.5634                   20588910.1264
        49.0004         35.0004
 -27654911.71149 -25720092.70248  19933325.5324                   19933323.5284
        52.2504         40.0004
 -27595718.62149 -23006033.46148  20123318.9544                   20123316.9424
        52.5004         40.7504
 -27248476.62949 -21218044.85547  22088671.8684                   22088670.7744
        44.2504         28.2504
 -17697381.52749 -13745020.63547  21164100.4784                   21164098.9424
        48.2504         35.2504
    -16153.74618                  24565111.313
        32.500
 03  1 16  1 12 59.9970000  0  9G17G15G29G10G30G 6G 5G23G25
 -16528030.67649 -15094481.57147  21696853.5794                   21696853.2044
        47.2504         35.5004
  -3068682.26649  -2816154.27746  23975430.1034                   23975438.8104
        37.5004         13.7504
  -1604562.66048  -1270212.60556  23944430.0794                   23944429.7984
        35.2504         16.7504
 -26398433.10549 -21388171.35747  20591904.7904                   20591902.1574
        49.0004         35.0004
 -27631835.72349 -25702111.39148  19937716.4624                   19937714.7984
        52.5004         40.0004
 -27666269.80949 -23061008.37248  20109893.5244                   20109891.4194
        52.2504         40.5004
 -27174953.93449 -21160754.46847  22102662.2434                   22102661.5994
        43.7504         29.0004
 -17805762.12549 -13829472.93647  21143476.1734                   21143475.0794
        47.5004         35.5004
    -16942.246 8                  24564958.688
        28.500
 03  1 16  1 13 29.9970000  0  8G17G15G29G10G30G 6G 5G23
 -16617979.03149 -15164571.10147  21679737.1814                   21679736.0674
        47.5004         35.0004
  -3186055.766 9                  23953094.806
        38.750
  -1704167.29748  -1347826.46946  23925475.6264                   23925474.6384
        34.2504         17.2504
 -26382134.16849 -21375470.86647  20595006.2514                   20595003.8804
        49.2504         35.2504
 -27608228.61349 -25683716.22948  19942208.8134                   19942207.0094
        52.0004         40.2504
 -27736583.94949 -23115798.56748  20096512.9464                   20096510.9354
        52.0004         40.7504
 -27101232.24649 -21103309.02447  22116690.7744                   22116690.0214
        45.0004         28.0004
 -17913772.37549 -13913636.65947  21122922.4464                   21122921.4704
        48.0004         35.7504
 03  1 16  1 13 59.9970000  0  8G17G15G29G10G30G 6G 5G23
 -16707688.98849 -15234474.86447  21662666.0954                   21662665.2744
        48.5004         35.0004
  -3303290.559 9                  23930785.079
        38.500
  -1803681.08248  -1425369.50046  23906538.7514                   23906538.8134
        33.0004         14.7504
 -26365259.60549 -21362321.82747  20598217.0714                   20598214.6494
        49.0004         35.5004
 -27584089.90649 -25664906.82448  19946802.2984                   19946800.5714
        51.2504         40.7504
 -27806657.08249 -23170400.96448  20083178.5404                   20083176.5834
        52.0004         41.2504
 -27027311.60549 -21045708.55147  22130757.8374                   22130756.6464
        45.0004         27.5004
 -18021407.43449 -13997508.02647  21102440.1104                   21102438.6964
        47.2504         35.5004
 03  1 16  1 14 29.9970000  0  8G17G15G29G10G30G 6G 5G23
 -16797154.72349 -15304188.30447  21645641.1184                   21645640.2514
        48.0004         35.0004
  -3420380.730 8                  23908502.673
        35.500
  -1903095.45758  -1502835.01656  23887620.5874                   23887620.2084
        32.2504         14.7504
 -26347805.88749 -21348721.51147  20601538.7284                   20601536.3804
        49.0004         35.5004
 -27559415.79349 -25645680.21548  19951497.7674                   19951495.7084
        52.7504         41.0004
 -27876482.17249 -23224810.08748  20069891.4934                   20069889.3214
        52.2504         41.7504
 -26953189.25449 -20987950.91647  22144863.3844                   22144861.8134
        44.5004         26.7504
 -18128659.50849 -14081080.96547  21082030.6184                   21082029.2044
        48.2504         36.0004
 03  1 16  1 14 59.9970000  0  8G17G15G29G10G30G 6G 5G23
 -16886373.21549 -15373709.10747  21628663.4624                   21628662.2394
        48.2504         35.0004
  -3537322.398 8                  23886249.642
        34.500
                                  23868724.5244                   23868721.5954
        31.0004         13.7504
 -26329771.37149 -21334668.60547  20604970.3604                   20604968.3534
        48.0004         34.5004
 -27534204.85549 -25626035.31448  19956294.9784                   19956293.5714
        52.0004         40.7504
 -27946054.48449 -23279022.23148  20056652.1814                   20056650.2004
        52.5004         41.5004
 -26878864.51249 -20930035.56147  22159007.1264                   22159005.1304
        43.5004         26.2504
 -18235523.16049 -14164351.23947  21061695.0324                   21061693.7204
        47.5004         35.7504
 03  1 16  1 15 29.9970000  0  8G17G15G29G10G30G 6G 5G23
 -16975339.43049 -15443033.33647  21611733.2674                   21611732.5214
        48.0004         34.7504
  -3654110.340 8                  23864025.423
        33.000
  -2101599.56218                  23849846.665
        31.750
 -26311153.32049 -21320161.02047  20608513.2354                   20608510.8414
        47.5004         35.0004
 -27508454.31249 -25605969.93048  19961195.5484                   19961193.9424
        52.2504         40.2504
 -28015367.82449 -23333032.58148  20043462.0714                   20043459.9074
        51.7504         41.5004
 -26804335.29749 -20871960.90147  22173189.0244                   22173187.6494
        44.0004         26.5004
 -18341991.36349 -14247313.37247  21041434.6964                   21041433.5794
        48.0004         36.0004
 03  1 16  1 15 59.9970000  0  9G17G15G29G10G30G 6G 5G23G26
 -17064057.54749 -15512164.23947  21594850.5324                   21594850.0094
        47.0004         33.7504
  -3770748.070 8                  23841829.438
        35.000
  -2200683.02718                  23830993.149
        31.500
 -26291958.04749 -21305203.63847  20612166.1964                   20612163.7314
        45.7504         34.2504
 -27482170.24249 -25585488.81448  19966196.9234                   19966195.1264
        52.5004         40.7504
 -28084425.10549 -23386843.40048  20030321.0954                   20030318.9314
        51.0004         42.0004
 -26729608.53149 -20813732.27847  22187409.2204                   22187407.5524
        44.2504         26.0004
 -18448066.09049 -14329968.88747  21021249.4624                   21021247.5914
        48.7504         34.7504
   -135197.35918                  24037966.087
        35.750
 03  1 16  1 16 29.9970000  0  9G17G15G29G10G30G 6G 5G23G26
 -17152533.98449 -15581106.82847  21578014.0714                   21578013.4274
        47.2504         34.0004
  -3887241.250 9                  23819661.790
        36.500
                                  23812156.743
        29.000
 -26272193.38749 -21289802.57747  20615926.9624                   20615925.0364
        47.0004         35.0004
 -27455360.42649 -25564598.03248  19971298.7044                   19971296.6654
        51.7504         40.5004
 -28153231.00849 -23440458.34348  20017227.6104                   20017225.2354
        51.2504         42.0004
 -26654692.88349 -20755356.47546  22201664.8294                   22201663.9704
        45.2504         25.0004
 -18553751.28949 -14412320.88147  21001137.9784                   21001136.0524
        49.0004         35.5004
   -251768.598 8                  24015782.103
        32.500
 03  1 16  1 16 59.9970000  0  9G17G15G29G10G30G 6G 5G23G26
 -17240771.43749 -15649863.19947  21561222.8214                   21561221.8454
        47.5004         34.5004
  -4003592.176 8                  23797521.212
        33.250
                                  23793345.048
        27.500
 -26251864.51649 -21273961.88147  20619795.4624                   20619793.0914
        46.7504         35.0004
 -27428029.86349 -25543301.46848  19976499.3764                   19976497.5954
        52.0004         40.7504
 -28221786.90649 -23493878.48048  20004182.0634                   20004179.9624
        51.7504         42.5004
 -26579593.84049 -20696837.78746  22215955.9934                   22215954.8334
        43.0004         25.5004
 -18659047.61349 -14494369.85947  20981100.8994                   20981099.1734
        49.0004         35.5004
   -368380.699 8                  23993595.454
        30.250
 03  1 16  1 17 29.9970000  0  7G17G15G10G30G 6G 5G23
 -17328774.44949 -15718436.87447  21544476.3684                   21544475.0674
        47.0004         34.2504
  -4119805.062 8                  23775405.235
        30.500
 -26230977.85549 -21257686.52647  20623770.2594                   20623767.5754
        47.7504         34.7504
 -27400184.88749 -25521604.05948  19981798.2514                   19981796.2784
        52.0004         40.0004
 -28290095.91449 -23547106.23448  19991183.2044                   19991180.6734
        51.7504         41.7504
 -26504318.47749 -20638181.68847  22230280.1034                   22230279.6884
        44.5004         26.0004
 -18763957.35249 -14576117.59647  20961137.0484                   20961135.3924
        49.0004         35.2504
 03  1 16  1 17 59.9970000  0  7G17G15G10G30G 6G 5G23
 -17416540.94949 -15786826.27847  21527775.2904                   21527773.6694
        47.5004         34.0004
  -4235877.09818                  23753317.313
        31.250
 -26209533.39549 -21240976.53347  20627850.8374                   20627848.8724
        48.0004         35.0004
 -27371825.24649 -25499505.61448  19987194.9544                   19987193.0564
        52.5004         39.7504
 -28358154.16849 -23600138.58748  19978232.0324                   19978229.7044
        52.0004         42.2504
 -26428867.23449 -20579388.54846  22244638.6574                   22244637.9814
        44.0004         24.7504
 -18868476.10249 -14657560.67147  20941247.8924                   20941245.9664
        49.0004         34.7504
 03  1 16  1 18 29.9970000  0  7G17G15G10G30G 6G 5G23
 -17504065.85949 -15855027.41047  21511119.7434                   21511118.7044
        46.7504         34.7504
  -4351802.914 8                  23731257.290
        33.500
 -26187528.31649 -21223829.71147  20632037.8924                   20632035.8924
        49.7504         35.0004
 -27342948.06249 -25477003.89148  19992690.1184                   19992688.0244
        51.2504         39.7504
 -28425955.45749 -23652970.71848  19965330.0244                   19965327.5834
        52.7504         42.0004
 -26353238.02049 -20520456.71447  22259030.7124                   22259030.0834
        44.5004         27.2504
 -18972597.00449 -14738693.72247  20921434.3454                   20921432.2044
        49.2504         35.2504
 03  1 16  1 18 59.9970000  0  7G17G15G10G30G 6G 5G23
 -17591350.52749 -15923041.34947  21494510.1814                   21494508.6924
        48.0004         34.5004
  -4467582.926 8                  23709224.579
        30.500
 -26164965.50449 -21206248.26547  20636331.7824                   20636329.3724
        48.7504         35.7504
 -27313556.15249 -25454101.07548  19998283.0014                   19998280.8064
        51.2504         40.0004
 -28493499.32049 -23705602.25548  19952476.8924                   19952474.4504
        52.0004         41.5004
 -26277434.16049 -20461388.80247  22273455.4854                   22273455.0994
        44.5004         25.7504
 -19076318.75049 -14819515.76247  20901696.1494                   20901694.6144
        48.7504         35.2504
 03  1 16  1 19 29.9970000  0  9G17G15G10G30G 6G 5G24G23G26
 -17678392.52349 -15990866.20247  21477946.5564                   21477945.2124
        48.2504         34.7504
                                  23687217.017
        26.750
 -26141845.11349 -21188232.36547  20640731.5634                   20640729.3134
        47.0004         36.2504
 -27283649.69149 -25430797.33248  20003974.0404                   20003972.1224
        51.2504         40.0004
 -28560782.28549 -23758030.49548  19939672.7204                   19939670.8374
        52.0004         41.7504
 -26201456.48849 -20402185.43146  22287913.6884                   22287913.0754
        44.0004         25.0004
     67668.53118                  23756235.673
        34.000
 -19179637.30549 -14900023.61947  20882035.4384                   20882033.7714
        49.5004         35.2504
                                  23882537.149
        29.250
 03  1 16  1 19 59.9970000  0  8G17G10G30G 6G 5G24G23G26
 -17765195.19549 -16058504.56547  21461428.5484                   21461427.1064
        47.5004         35.2504
 -26118172.48449 -21169786.15347  20645236.5094                   20645234.4584
        47.0004         36.0004
 -27253233.91049 -25407096.70248  20009761.6814                   20009759.7474
        50.7504         39.5004
 -28627806.22349 -23810256.89848  19926918.8844                   19926916.7354
        51.0004         42.2504
 -26125311.05549 -20342851.39347  22302403.7204                   22302402.9664
        44.2504         26.0004
    123421.477 8                  23766845.665
        34.000
 -19282553.85949 -14980218.23647  20862451.1814                   20862449.1574
        50.0004         36.0004
   -255369.33618                  23860314.603
        33.250
 03  1 16  1 20 29.9970000  0  9G17G15G10G30G 6G 5G24G23G26
 -17851762.37549 -16125959.43147  21444955.2204                   21444953.6264
        47.7504         34.5004
    -79974.78918                  23643295.853
        35.000
 -26093952.87549 -21150913.71647  20649844.7124                   20649843.0714
        46.5004         36.0004
 -27222313.88349 -25383003.15248  20015645.5564                   20015643.7204
        51.0004         40.0004
 -28694572.83649 -23862282.78848  19914213.4704                   19914211.2204
        51.0004         41.5004
 -26049003.49249 -20283390.95647  22316924.6264                   22316924.0134
        43.0004         26.0004
    179138.129 8                  23777447.688
        33.000
 -19385069.23049 -15060100.25747  20842943.3604                   20842940.8884
        49.2504         35.7504
   -372182.848 8                  23838084.657
        33.000
 03  1 16  1 20 59.9970000  0  9G17G15G10G30G 6G 5G24G23G26
 -17938089.48849 -16193227.23347  21428527.6814                   21428526.0834
        47.2504         35.0004
   -195170.500 8                  23621373.345
        35.000
 -26069184.15649 -21131613.39947  20654558.4234                   20654556.3534
        47.0004         36.2504
 -27190887.46149 -25358515.00448  20021626.0014                   20021624.1534
        50.7504         39.7504
 -28761076.19149 -23914103.54648  19901558.2674                   19901556.0244
        50.0004         41.7504
 -25972532.15649 -20223802.96846  22331476.5484                   22331475.8924
        43.0004         24.2504
    234821.949 8                  23788044.063
        29.750
 -19487177.18049 -15139664.78347  20823512.5874                   20823510.2474
        49.7504         36.0004
                                  23815853.970
        28.250
 03  1 16  1 21 29.9970000  0  8G17G15G10G30G 6G 5G23G26
 -18024172.64849 -16260304.93147  21412146.6034                   21412144.8644
        47.5004         35.0004
   -310215.090 8                  23599481.384
        31.500
 -26043865.11749 -21111884.27347  20659376.8924                   20659374.5174
        48.2504         36.5004
 -27158953.28149 -25333631.20547  20027702.7594                   20027700.8844
        50.5004         39.2504
 -28827311.60549 -23965715.51948  19888953.9624                   19888952.0134
        50.7504         41.0004
 -25895896.41049 -20164086.80447  22346059.5484                   22346058.5954
        42.2504         25.7504
 -19588872.29749 -15218907.62447  20804160.0634                   20804158.6694
        49.5004         36.5004
   -605846.90218                  23793626.056
        31.000
 03  1 16  1 21 59.9970000  0  8G17G15G10G30G 6G 5G23G26
 -18110018.56649 -16327197.78147  21395810.8454                   21395809.1264
        47.0004         35.5004
   -425114.289 9                  23577617.915
        36.250
 -26018004.23449 -21091732.92847  20664297.7984                   20664295.4314
        48.0004         37.2504
 -27126519.86749 -25308358.39848  20033874.5404                   20033872.7354
        51.0004         39.7504
 -28893283.94549 -24017122.49448  19876399.7984                   19876397.5674
        51.0004         41.7504
 -25819105.11749 -20104249.47846  22360672.8684                   22360671.7354
        43.5004         25.2504
 -19690158.66449 -15297831.98447  20784885.9704                   20784884.3174
        50.2504         36.5004
                                  23771387.001
        29.500
 03  1 16  1 22 29.9970000  0  7G17G15G10G30G 6G 5G23
 -18195625.47349 -16393904.38547  21379519.9464                   21379518.5834
        47.0004         35.0004
   -539865.266 8                  23555780.618
        35.750
 -25991601.45349 -21071159.31947  20669321.8844                   20669319.9584
        49.0004         37.5004
 -27093587.06649 -25282696.45647  20040141.6034                   20040139.6264
        50.5004         39.2504
 -28958989.46549 -24068321.57148  19863896.4854                   19863894.3764
        51.0004         41.5004
 -25742158.60949 -20044291.17646  22375314.9704                   22375313.8134
        44.2504         22.2504
 -19791032.03149 -15376434.51047  20765690.2824                   20765688.5284
        50.5004         37.0004
 03  1 16  1 22 59.9970000  0  7G17G15G10G30G 6G 5G23
 -18280992.15249 -16460423.79347  21363275.8924                   21363274.1424
        47.2504         36.0004
   -654466.590 8                  23533971.767
        35.000
 -25964658.12149 -21050164.50347  20674449.3684                   20674447.1034
        48.7504         37.0004
 -27060155.91449 -25256646.18947  20046503.2824                   20046501.4074
        50.5004         39.2504
 -29024425.87149 -24119310.93348  19851444.2824                   19851442.1184
        51.0004         41.2504
 -25665058.54349 -19984213.20846  22389986.8374                   22389985.9384
        43.7504         22.0004
 -19891489.55549 -15454713.01347  20746574.0564                   20746572.2124
        50.0004         36.2504
 03  1 16  1 23 29.9970000  0  7G17G15G10G30G 6G 5G23
 -18366115.34049 -16526753.47347  21347076.8374                   21347075.5604
        47.2504         35.0004
   -768914.477 8                  23512193.290
        33.000
 -25937173.09849 -21028747.60847  20679679.5174                   20679677.3254
        50.2504         37.5004
 -27026225.46549 -25230206.85647  20052959.9624                   20052958.3454
        50.5004         39.0004
 -29089588.49249 -24170086.96848  19839043.9704                   19839042.2284
        51.0004         41.5004
 -25587804.43449 -19924015.22246  22404687.6814                   22404687.2354
        43.0004         24.0004
 -19991525.84849 -15532663.28147  20727537.8994                   20727535.6064
        50.2504         37.5004
 03  1 16  1 23 59.9970000  0  7G17G15G10G30G 6G 5G23
 -18450999.46949 -16592896.88547  21330924.0484                   21330922.8604
        47.7504         35.7504
   -883213.184 8                  23490442.845
        35.250
 -25909153.37949 -21006914.05347  20685011.4464                   20685009.2004
        50.0004         37.2504
 -26991802.21549 -25203383.54647  20059510.7124                   20059508.3374
        50.2504         38.5004
 -29154480.37149 -24220652.02948  19826695.8294                   19826693.7984
        51.2504         41.0004
 -25510403.43749 -19863702.84346  22419416.8214                   22419416.7124
        43.5004         24.0004
 -20091143.50849 -15610287.35047  20708581.1424                   20708578.8024
        50.7504         36.7504
 03  1 16  1 24 29.9970000  0  7G17G15G10G30G 6G 5G23
 -18535646.84449 -16658855.80847  21314816.0634                   21314814.6064
        47.7504         35.2504
   -997364.043 9                  23468721.603
        36.750
 -25880603.00849 -20984666.99347  20690444.1884                   20690442.6694
        49.5004         37.2504
 -26956890.33649 -25176179.46547  20066154.2514                   20066151.9424
        51.0004         39.0004
 -29219101.73449 -24271006.30448  19814398.5634                   19814396.5484
        51.2504         41.7504
 -25432860.04349 -19803279.43646  22434173.2044                   22434172.1654
        43.7504         21.7504
 -20190342.33249 -15687585.04947  20689704.2354                   20689702.1264
        51.5004         37.0004
 03  1 16  1 24 59.9970000  0  7G17G15G10G30G 6G 5G23
 -18620066.35949 -16724637.18347  21298751.3534                   21298749.8884
        48.0004         35.0004
  -1111374.988 9                  23447025.923
        37.250
 -25851532.50049 -20962014.64547  20695976.1264                   20695974.2674
        49.5004         37.2504
 -26921500.25049 -25148602.76147  20072888.7514                   20072886.7084
        50.5004         39.2504
 -29283459.34449 -24321155.04948  19802151.6424                   19802149.4934
        51.7504         41.2504
 -25355185.35549 -19742753.73746  22448953.6814                   22448953.3924
        43.5004         23.0004
 -20289128.64849 -15764561.30247  20670905.8534                   20670903.3174
        50.7504         36.7504
 03  1 16  1 25 29.9970000  0  7G17G15G10G30G 6G 5G23
 -18704254.50449 -16790238.24847  21282731.0324                   21282729.2394
        47.5004         35.0004
  -1225242.707 9                  23425356.845
        37.000
 -25821941.18049 -20938956.46347  20701607.6034                   20701605.0994
        50.0004         37.5004
 -26885631.37949 -25120652.96847  20079714.2124                   20079712.2784
        50.5004         38.5004
 -29347548.97349 -24371094.98848  19789955.5714                   19789953.7824
        51.7504         41.0004
 -25277379.03949 -19682125.45846  22463759.1734                   22463759.4384
        43.0004         22.5004
 -20387497.78149 -15841212.50147  20652186.7044                   20652184.6774
        51.2504         36.7504
 03  1 16  1 25 59.9970000  0  7G17G15G10G30G 6G 5G23
 -18788207.06649 -16855655.77047  21266755.0244                   21266753.7204
        47.0004         35.2504
  -1338962.539 9                  23403716.681
        36.500
 -25791827.16049 -20915490.99247  20707338.0094                   20707335.5834
        50.0004         37.0004
 -26849281.58649 -25092328.43947  20086631.2824                   20086629.6924
        51.0004         39.0004
 -29411364.70749 -24420821.50148  19777812.1884                   19777809.8214
        51.5004         41.0004
 -25199439.34049 -19621393.20646  22478591.2124                   22478590.9784
        43.0004         22.5004
 -20485443.23049 -15917533.54147  20633548.2284                   20633545.9314
        51.2504         37.5004
 03  1 16  1 26 29.9970000  0  8G17G15G10G30G 6G 5G23G26
 -18871925.02749 -16920890.47447  21250824.2354                   21250822.9354
        46.5004         34.5004
  -1452534.820 8                  23382104.063
        35.750
 -25761193.65249 -20891620.70847  20713167.2824                   20713165.0244
        49.7504         37.5004
 -26812453.84449 -25063631.48747  20093639.3994                   20093637.7554
        50.7504         39.0004
 -29474905.90649 -24470334.07648  19765720.3604                   19765718.3254
        51.2504         41.0004
 -25121369.59449 -19560559.69246  22493446.9854                   22493447.3134
        44.0004         22.7504
 -20582963.88349 -15993523.58247  20614990.5404                   20614988.5794
        51.7504         38.0004
                                  23571286.188
        33.000
 03  1 16  1 26 59.9970000  0  8G17G15G10G30G 6G 5G23G26
 -18955408.67649 -16985942.57647  21234937.5634                   21234936.0364
        46.0004         35.0004
  -1565958.910 9                  23360520.790
        38.000
 -25730042.82849 -20867347.34947  20719095.0174                   20719092.7634
        49.5004         37.0004
 -26775150.16849 -25034563.66947  20100738.3374                   20100736.1964
        51.2504         38.5004
 -29538170.87949 -24519631.43048  19753681.5564                   19753679.5874
        51.5004         41.0004
 -25043172.41449 -19499626.83646  22508327.3994                   22508327.7944
        44.2504         22.5004
 -20680057.69949 -16069181.02047  20596514.4784                   20596512.5094
        51.0004         37.7504
   -140156.277 8                  23549051.040
        34.750
 03  1 16  1 27 29.9970000  0  8G17G15G10G30G 6G 5G23G26
 -19038656.66449 -17050811.08247  21219095.6264                   21219094.6424
        45.0004         34.5004
  -1679233.258 8                  23338964.392
        35.750
 -25698375.82449 -20842671.73347  20725121.0714                   20725119.0054
        50.0004         36.2504
 -26737371.85949 -25005126.02447  20107927.1104                   20107924.7784
        50.5004         38.5004
 -29601156.99249 -24568711.47948  19741695.7594                   19741693.6264
        51.2504         41.0004
 -24964849.04749 -19438595.67046  22523232.5174                   22523231.8064
        44.5004         23.0004
 -20776721.53549 -16144503.42047  20578119.8374                   20578117.6144
        51.5004         38.7504
   -256925.078 8                  23526830.634
        34.000
 03  1 16  1 27 59.9970000  0  8G17G15G10G30G 6G 5G23G26
 -19121671.23049 -17115497.67747  21203298.4544                   21203297.3064
        44.0004         34.5004
  -1792359.520 8                  23317436.157
        35.250
 -25666196.94149 -20817597.27347  20731244.6734                   20731242.2394
        49.7504         36.5004
 -26699123.14849 -24975321.82247  20115205.4544                   20115203.5604
        50.7504         38.5004
 -29663864.84849 -24617574.71048  19729762.6654                   19729760.5094
        51.0004         40.7504
 -24886404.43449 -19377470.00546  22538160.4154                   22538159.5014
        45.5004         22.0004
 -20872955.67249 -16219490.98047  20559807.0404                   20559805.4504
        51.2504         39.2504
   -373669.738 8                  23504615.946
        35.000
 03  1 16  1 28 29.9970000  0  8G17G15G10G30G 6G 5G23G26
 -19204447.01249 -17179998.21947  21187546.8134                   21187545.7864
        44.5004         34.5004
  -1905331.645 9                  23295939.274
        38.500
 -25633502.61749 -20792121.16547  20737466.4314                   20737463.7284
        49.5004         36.5004
 -26660400.59049 -24945148.39847  20122574.3064                   20122571.8334
        50.7504         38.7504
 -29726287.28949 -24666215.53448  19717884.1884                   19717881.8564
        51.2504         40.7504
 -24807835.53549 -19316247.50646  22553111.6654                   22553110.3134
        45.0004         22.7504
 -20968752.52049 -16294137.80047  20541577.1104                   20541575.4784
        51.0004         39.0004
   -490381.59418                  23482404.626
        31.500
 03  1 16  1 28 59.9970000  0  8G17G15G10G30G 6G 5G23G26
 -19286986.27049 -17244314.44847  21171840.1344                   21171838.7354
        44.0004         34.0004
  -2018151.62549  -5542525.06656  23274468.9854                   23274472.5324
        37.7504         16.2504
 -25600298.02049 -20766247.44647  20743784.6344                   20743782.3374
        49.5004         36.5004
 -26621209.03549 -24914609.50647  20130032.0714                   20130029.6734
        50.7504         38.2504
 -29788425.14549 -24714634.61248  19706059.9704                   19706057.3414
        51.0004         40.2504
 -24729147.22349 -19254931.98346  22568085.3684                   22568084.3254
        45.2504         22.7504
 -21064112.47349 -16368444.17247  20523430.7434                   20523429.0404
        52.0004         39.2504
   -607059.281 8                  23460200.384
        30.500
 03  1 16  1 29 29.9970000  0  8G17G15G29G10G30G 6G 5G23
 -19369288.94549 -17308446.34247  21156178.1494                   21156176.5834
        45.2504         34.2504
  -2130819.14549  -5630317.62546  23253029.0324                   23253032.1534
        37.5004         16.2504
    -81239.75018                  23331339.142
        34.000
 -25566585.72749 -20739978.12047  20750199.4624                   20750197.9504
        49.5004         36.5004
 -26581550.80149 -24883706.97247  20137578.8764                   20137576.5754
        51.0004         38.2504
 -29850277.22749 -24762831.00548  19694289.5484                   19694287.3414
        51.7504         41.0004
 -24650342.32049 -19193525.56546  22583081.6734                   22583080.3104
        44.5004         22.5004
 -21159033.95749 -16442408.90147  20505367.4464                   20505366.0524
        50.7504         39.2504
 03  1 16  1 29 59.9970000  0  9G17G15G29G10G30G 6G 5G23G26
 -19451354.23049 -17372393.24547  21140561.6814                   21140560.5324
        45.5004         34.5004
  -2243332.61349  -5717990.13746  23231619.6654                   23231621.9784
        38.5004         17.2504
   -176270.035 8                  23313254.767
        33.250
 -25532366.75449 -20713313.98347  20756711.5404                   20756709.2784
        50.0004         37.0004
 -26541426.82049 -24852441.54247  20145214.3994                   20145211.8214
        51.2504         38.2504
 -29911840.40249 -24810802.27548  19682574.3064                   19682572.0994
        51.7504         41.0004
 -24571421.85549 -19132029.12146  22598099.9154                   22598098.6654
        46.0004         22.7504
 -21253513.72749 -16516029.42447  20487388.5634                   20487386.4744
        52.0004         38.5004
   -840299.64118                  23415818.423
        33.500
 03  1 16  1 30 29.9970000  0 10G17G15G29G10G30G 6G 5G24G23G26
 -19533183.07849 -17436155.92947  21124990.4854                   21124989.2474
        47.0004         34.5004
  -2355692.16049  -5805542.76246  23210237.1734                   23210240.6774
        37.7504         16.7504
   -271112.527 8                  23295207.688
        32.500
 -25497644.28549 -20686257.50047  20763319.1104                   20763317.1144
        49.0004         36.5004
 -26500840.12549 -24820815.52347  20152937.7284                   20152935.4504
        51.5004         38.5004
 -29973113.82049 -24858547.76148  19670914.6734                   19670912.3254
        52.0004         40.2504
 -24492389.16849 -19070445.24146  22613138.4784                   22613139.1854
        44.5004         25.0004
    189353.64118                  23987934.618
        33.250
 -21347550.53549 -16589304.79147  20469493.9544                   20469491.9234
        51.2504         39.0004
   -956854.020 8                  23393639.540
        34.500
 03  1 16  1 30 59.9970000  0 10G17G15G29G10G30G 6G 5G24G23G26
 -19614774.22349 -17499733.36747  21109464.3294                   21109462.5674
        47.5004         35.2504
  -2467896.56649  -5892974.48446  23188886.0484                   23188887.1774
        37.7504         17.2504
   -365763.39118                  23277194.618
        32.250
 -25462419.84449 -20658809.86847  20770022.1184                   20770020.0604
        49.2504         35.5004
 -26459792.21549 -24788830.12547  20160748.8764                   20160746.5604
        51.0004         37.7504
 -30034095.15649 -24906065.66348  19659310.3924                   19659307.8294
        51.2504         40.5004
 -24413246.09849 -19008775.33146  22628199.2204                   22628198.6344
        45.0004         24.0004
    244190.359 8                  23998369.798
        32.750
 -21441141.78149 -16662232.97548  20451684.0174                   20451682.2474
        51.2504         39.5004
  -1073360.082 8                  23371468.728
        33.000
 03  1 16  1 31 29.9970000  0 10G17G15G29G10G30G 6G 5G24G23G26
 -19696127.37949 -17563125.36247  21093983.2044                   21093981.3294
        47.5004         35.2504
  -2579944.67249  -5980284.49246  23167563.8684                   23167563.3804
        37.0004         15.5004
   -460219.125 8                  23259220.165
        33.500
 -25426695.03949 -20630972.35747  20776820.3134                   20776817.9114
        49.7504         35.5004
 -26418284.60949 -24756486.53547  20168647.4314                   20168645.4744
        51.5004         38.0004
 -30094782.22749 -24953354.26848  19647761.9544                   19647759.4354
        51.5004         41.0004
 -24333994.49249 -18947020.89346  22643280.0564                   22643280.2944
        45.2504         25.5004
    298980.996 8                  24008795.337
        31.000
 -21534284.87949 -16734811.95147  20433959.6654                   20433957.9544
        51.0004         39.2504
  -1189813.527 9                  23349309.251
        36.000
 03  1 16  1 31 59.9970000  0 10G17G15G29G10G30G 6G 5G24G23G26
 -19777241.96149 -17626331.45447  21078547.2354                   21078545.6064
        47.5004         35.5004
  -2691835.69948  -6067471.91046  23146270.2044                   23146269.9584
        35.7504         14.7504
   -554476.148 8                  23241283.985
        35.750
 -25390471.63749 -20602746.31047  20783712.9314                   20783710.8724
        48.5004         35.5004
 -26376319.14849 -24723786.17247  20176633.0404                   20176630.8214
        50.7504         38.0004
 -30155172.95749 -25000411.95548  19636269.7204                   19636267.5754
        52.0004         40.7504
 -24254636.64149 -18885183.65346  22658381.8604                   22658381.5244
        44.0004         24.5004
    353725.055 8                  24019212.603
        34.500
 -21626977.57049 -16807039.95048  20416320.6494                   20416318.9624
        50.7504         40.0004
  -1306210.574 8                  23327158.954
        35.000
 03  1 16  1 32 29.9970000  0 10G17G15G29G10G30G 6G 5G24G23G26
 -19858120.75449 -17689353.82947  21063156.9624                   21063155.0484
        47.5004         35.5004
  -2803571.13748  -6154538.30946  23125007.3844                   23125006.3254
        35.2504         16.7504
   -648533.574 9                  23223385.610
        36.500
 -25353754.19949 -20574135.32747  20790699.9784                   20790697.9854
        48.5004         34.7504
 -26333900.56249 -24690732.71447  20184704.9854                   20184702.6814
        51.5004         37.7504
 -30215267.80949 -25047239.08748  19624834.1344                   19624831.5834
        51.2504         40.2504
 -24175177.06249 -18823267.10846  22673502.0244                   22673502.0324
        43.5004         22.2504
    408420.496 9                  24029621.501
        36.000
 -21719220.04349 -16878917.14548  20398766.9704                   20398765.9154
        50.7504         39.5004
  -1422550.016 8                  23305019.149
        32.500
 03  1 16  1 32 59.9970000  0 10G17G15G29G10G30G 6G 5G24G23G26
 -19938758.62549 -17752188.47047  21047811.7124                   21047810.6464
        47.7504         35.5004
  -2915146.21948  -6241479.70746  23103773.9384                   23103774.2904
        33.0004         13.7504
   -742383.941 9                  23205525.962
        38.000
 -25316540.58249 -20545137.68247  20797781.6574                   20797779.2714
        47.2504         35.0004
 -26291026.45749 -24657324.32747  20192863.5794                   20192861.4154
        51.2504         38.0004
 -30275060.52349 -25093830.78148  19613455.8374                   19613453.5214
        50.7504         41.2504
 -24095613.44149 -18761269.50046  22688643.2824                   22688642.2434
        44.7504         24.0004
    463071.230 8                  24040020.782
        34.500
 -21811005.80549 -16950438.46548  20381300.7434                   20381299.6064
        50.0004         40.0004
  -1538823.852 8                  23282892.915
        35.000
 03  1 16  1 33 29.9970000  0 10G17G15G29G10G30G 6G 5G24G23G26
 -20019156.94149 -17814836.45147  21032512.6814                   21032511.5714
        47.7504         36.0004
  -3026561.84458  -6328296.82856  23082573.3534                   23082571.6224
        34.7504         15.5004
   -836025.516 9                  23187706.298
        38.000
 -25278834.64549 -20515756.42147  20804956.5564                   20804954.5564
        46.2504         34.0004
 -26247700.51649 -24623563.84547  20201108.4784                   20201106.3294
        50.7504         38.5004
 -30334551.04349 -25140187.00948  19602135.2674                   19602133.0794
        49.5004         40.2504
 -24015949.88349 -18699194.04046  22703802.6734                   22703801.7314
        45.0004         24.2504
    517675.328 8                  24050409.188
        31.000
 -21902334.52349 -17021603.64448  20363921.6734                   20363920.1464
        48.7504         40.0004
  -1655030.023 8                  23260780.821
        33.000
 03  1 16  1 33 59.9970000  0 10G17G15G29G10G30G 6G 5G24G23G26
 -20099318.13349 -17877299.66047  21017258.4234                   21017257.2514
        48.7504         37.2504
  -3137819.164 8                  23061401.743
        33.500
   -929457.168 9                  23169926.915
        39.250
 -25240640.46149 -20485994.71347  20812224.9074                   20812222.7824
        46.5004         34.5004
 -26203926.90249 -24589454.52247  20209438.3214                   20209435.9784
        50.7504         37.5004
 -30393739.59449 -25186307.93748  19590871.8214                   19590869.4424
        49.2504         41.0004
 -23936190.69949 -18637044.05146  22718980.2824                   22718979.8104
        44.2504         24.5004
    572230.852 8                  24060792.235
        33.250
 -21993206.27049 -17092412.73648  20346629.2514                   20346627.3134
        48.7504         40.5004
  -1771167.059 8                  23238679.931
        32.000
 03  1 16  1 34 29.9970000  0 10G17G15G29G10G30G 6G 5G24G23G26
 -20179239.43749 -17939575.95547  21002050.0794                   21002048.5674
        48.5004         36.7504
  -3248914.934 8                  23040261.556
        31.250
  -1022673.004 9                  23152188.392
        40.500
 -25201957.84449 -20455852.41047  20819585.6654                   20819583.9234
        46.0004         34.2504
 -26159705.17649 -24554996.02347  20217852.9234                   20217850.9354
        50.7504         37.2504
 -30452621.76249 -25232190.09948  19579667.1344                   19579664.6654
        48.7504         40.5004
 -23856335.58249 -18574819.34346  22734175.8454                   22734175.3134
        44.0004         24.0004
    626740.137 8                  24071165.853
        31.000
 -22083616.38349 -17162862.12848  20329424.8294                   20329423.4234
        49.0004         40.2504
  -1887228.684 8                  23216594.290
        32.250
 03  1 16  1 34 59.9970000  0 10G17G15G29G10G30G 6G 5G24G23G26
 -20258922.96549 -18001666.94647  20986886.3604                   20986885.0404
        47.5004         36.2504
  -3359851.12918                  23019151.040
        33.000
  -1115672.371 9                  23134490.829
        40.750
 -25162791.50049 -20425333.17647  20827038.8684                   20827036.9194
        45.7504         34.2504
 -26115039.93449 -24520191.93347  20226352.6574                   20226350.3924
        50.2504         37.0004
 -30511198.23049 -25277834.08448  19568520.2044                   19568517.8844
        49.2504         40.5004
 -23776389.46549 -18512523.68746  22749389.6104                   22749388.6264
        44.5004         24.0004
                                  24081527.329
        28.250
 -22173565.34849 -17232952.17748  20312308.0634                   20312306.1734
        49.5004         40.0004
  -2003213.68018                  23194522.587
        32.500
 03  1 16  1 35 29.9970000  0 10G17G15G29G10G30G 6G 5G24G23G26
 -20338366.83249 -18063571.20547  20971768.8924                   20971767.3924
        48.5004         36.0004
                                  22998069.345
        31.000
  -1208450.531 9                  23116836.056
        40.750
 -25123142.33249 -20394437.71047  20834584.1574                   20834582.1224
        45.2504         34.0004
 -26069931.93749 -24485042.83347  20234936.5094                   20234934.2084
        50.7504         37.5004
 -30569465.75849 -25323237.33048  19557432.2744                   19557429.9354
        51.0004         40.5004
 -23696352.98849 -18450157.65346  22764620.0564                   22764618.8804
        44.5004         22.7504
    735613.05118                  24091883.587
        29.250
 -22263049.71149 -17302680.19048  20295279.5174                   20295278.3844
        50.2504         40.5004
  -2119116.867 8                  23172466.220
        34.000
 03  1 16  1 35 59.9970000  0 10G17G15G29G10G30G 6G 5G24G23G26
 -20417571.89849 -18125289.37947  20956696.5954                   20956695.2004
        48.0004         36.2504
  -3581238.10518                  22977018.493
        31.000
  -1301004.891 9                  23099224.071
        41.000
 -25083013.14149 -20363168.21747  20842220.3374                   20842218.4624
        46.0004         34.0004
 -26024384.02749 -24449550.94447  20243603.9544                   20243601.8924
        50.5004         37.2504
 -30627423.19949 -25368398.94348  19546403.4854                   19546401.0524
        49.2504         40.5004
 -23616229.14549 -18387723.52546  22779867.1574                   22779865.8104
        44.5004         22.7504
    789977.15218                  24102228.345
        29.500
 -22352068.25449 -17372045.22948  20278340.1814                   20278338.4424
        49.0004         40.7504
  -2234935.402 8                  23150426.610
        34.000
 03  1 16  1 36 29.9970000  0 10G17G15G29G10G30G 6G 5G24G23G26
 -20496535.24249 -18186819.21447  20941670.3374                   20941668.9384
        49.5004         36.5004
  -3691685.703 8                  22956002.743
        34.000
  -1393329.590 9                  23081655.095
        41.500
 -25042403.32849 -20331524.20547  20849947.7204                   20849946.0214
        46.7504         35.2504
 -25978395.61349 -24413715.81847  20252355.1574                   20252353.1184
        51.2504         37.5004
 -30685065.91449 -25413315.31248  19535434.5714                   19535431.9814
        49.0004         40.5004
 -23536017.48849 -18325220.98546  22795130.6104                   22795130.1144
        44.2504         22.5004
    844295.227 8                  24112563.938
        29.750
 -22440616.21149 -17441043.58448  20261490.1964                   20261488.3884
        48.2504         40.7504
  -2350662.879 8                  23128404.399
        35.000
 03  1 16  1 36 59.9970000  0 10G17G15G29G10G30G 6G 5G24G23G26
 -20575258.01249 -18248161.56547  20926689.8534                   20926688.5484
        49.0004         36.5004
  -3801968.918 8                  22935014.368
        30.500
  -1485422.773 9                  23064130.079
        42.500
 -25001316.54349 -20299508.53347  20857766.5404                   20857764.8724
        47.7504         33.5004
 -25931970.25049 -24377540.20247  20261189.3454                   20261187.4974
        50.5004         37.0004
 -30742393.28149 -25457985.96848  19524525.3604                   19524522.7984
        50.7504         40.7504
 -23455721.55949 -18262652.78946  22810410.7044                   22810409.6494
        44.5004         22.7504
    898565.906 8                  24122891.142
        29.000
 -22528692.98449 -17509674.77748  20244729.2904                   20244727.8064
        50.2504         40.7504
  -2466296.863 8                  23106398.345
        35.000
 03  1 16  1 37 29.9970000  0 10G17G15G29G10G30G 6G 5G24G23G26
 -20653738.29749 -18309315.00047  20911755.5324                   20911754.4274
        49.5004         36.2504
  -3912085.10918                  22914060.821
        32.750
  -1577279.367 9                  23046650.024
        42.000
 -24959753.32049 -20267121.58847  20865676.2434                   20865673.8334
        47.5004         33.7504
 -25885108.41049 -24341024.48047  20270107.0954                   20270104.8764
        50.5004         37.0004
 -30799401.76249 -25502408.13148  19513677.0954                   19513674.6384
        51.5004         40.7504
 -23375341.93049 -18200019.35546  22825706.2434                   22825704.8764
        44.0004         21.5004
    952791.09018                  24133208.665
        29.000
 -22616295.01649 -17577936.04048  20228059.1964                   20228057.2594
        51.5004         40.7504
  -2581831.957 8                  23084413.931
        31.500
 03  1 16  1 37 59.9970000  0 10G17G15G29G10G30G 6G 5G24G23G26
 -20731976.61349 -18370279.86447  20896867.4384                   20896865.7084
        48.5004         37.0004
  -4022034.461 8                  22893136.868
        33.500
  -1668896.51649  -3374171.12956  23029216.1734                   23029209.6654
        41.2504         17.2504
 -24917716.37149 -20234365.51847  20873675.4074                   20873673.1964
        46.5004         34.0004
 -25837812.90249 -24304170.83247  20279107.3534                   20279105.1574
        50.0004         37.0004
 -30856090.09849 -25546580.83648  19502889.5014                   19502887.0524
        51.0004         40.7504
 -23294881.50849 -18137322.96646  22841017.1344                   22841016.1884
        44.2504         20.5004
   1006969.96918                  24143520.157
        31.500
 -22703420.96149 -17645826.33348  20211479.8994                   20211477.9274
        50.2504         40.5004
  -2697264.926 8                  23062447.298
        35.750
 03  1 16  1 38 29.9970000  0 10G17G15G29G10G30G 6G 5G24G23G26
 -20809973.30149 -18431056.45447  20882024.8374                   20882022.9354
        49.0004         36.5004
  -4131816.859 8                  22872245.696
        32.500
  -1760271.99649  -3445372.68446  23011827.5954                   23011823.1384
        40.5004         15.5004
 -24875208.75849 -20201242.69147  20881764.1264                   20881761.9974
        45.5004         34.0004
 -25790086.56249 -24266981.46447  20288189.1494                   20288187.2314
        50.7504         36.5004
 -30912457.25849 -25590503.26248  19492163.2284                   19492160.5014
        51.2504         40.5004
 -23214343.23449 -18074565.87246  22856343.0564                   22856341.7674
        43.0004         21.7504
   1061101.785 8                  24153822.392
        31.500
 -22790069.63349 -17713344.72048  20194991.2984                   20194988.9934
        51.2504         40.7504
  -2812592.973 8                  23040500.587
        31.000
 03  1 16  1 38 59.9970000  0 10G17G15G29G10G30G 6G 5G24G23G26
 -20887731.52349 -18491647.22347  20867227.9544                   20867226.3494
        47.5004         36.5004
  -4241434.566 8                  22851387.938
        35.250
  -1851405.44149  -3516385.65246  22994484.9934                   22994481.6734
        40.7504         13.7504
 -24832235.48449 -20167757.00347  20889941.8764                   20889939.4974
        46.2504         34.2504
 -25741934.44149 -24229460.32247  20297352.3374                   20297349.9234
        50.7504         36.7504
 -30968504.34449 -25634176.29248  19481497.7204                   19481495.2904
        51.7504         41.0004
 -23133732.11749 -18011752.05746  22871683.4934                   22871681.7554
        41.2504         19.2504
   1115183.480 8                  24164114.017
        30.750
 -22876241.86349 -17780491.85548  20178592.7044                   20178590.7984
        51.5004         40.5004
  -2927815.05518                  23018574.501
        31.250
 03  1 16  1 39 29.9970000  0 10G17G15G29G10G30G 6G 5G24G23G26
 -20965250.97749 -18552051.96047  20852476.2124                   20852475.0094
        47.5004         36.5004
  -4350886.652 8                  22830558.845
        34.000
  -1942293.16449  -3587207.19146  22977189.4384                   22977186.0094
        40.0004         14.7504
 -24788798.82849 -20133910.26047  20898207.7204                   20898205.2744
        45.7504         35.0004
 -25693358.53549 -24191608.96547  20306595.9384                   20306593.5914
        50.7504         37.2504
 -31024229.00849 -25677598.08548  19470893.5794                   19470891.1144
        51.2504         41.0004
 -23053050.17249 -17948882.99546  22887036.7514                   22887035.5134
        39.7504         19.2504
                                  24174392.915
        29.000
 -22961935.43749 -17847266.02348  20162285.9464                   20162284.1884
        51.0004         40.7504
  -3042927.234 8                  22996669.985
        30.750
 03  1 16  1 39 59.9970000  0 10G17G15G29G10G30G 6G 5G24G23G26
 -21042529.33249 -18612268.81147  20837770.8764                   20837769.4074
        48.0004         36.7504
  -4460170.676 9                  22809764.493
        38.000
  -2032930.26249  -3657833.27046  22959941.8064                   22959937.3994
        40.0004         14.7504
 -24744899.27049 -20099702.80447  20906561.1884                   20906558.6924
        46.2504         35.5004
 -25644359.23049 -24153427.69947  20315920.6814                   20315917.9034
        50.7504         37.0004
 -31079627.61749 -25720765.79748  19460351.9784                   19460349.3134
        51.2504         40.7504
 -22972297.79349 -17885959.17246  22902403.3924                   22902402.1884
        40.5004         18.5004
   1223198.70318                  24184668.360
        29.250
 -23047146.69149 -17913664.34748  20146070.8684                   20146068.9854
        50.0004         40.2504
  -3157923.87118                  22974787.290
        32.500
 03  1 16  1 40 29.9960000  0 10G17G15G29G10G30G 6G 5G24G23G26
 -21119565.76649 -18672297.14647  20823111.1524                   20823109.9184
        48.0004         35.7504
  -4569284.680 9                  22789000.277
        39.250
  -2123312.57849  -3728260.91446  22942742.6914                   22942738.3324
        39.5004         15.5004
 -24700542.46549 -20065139.05747  20915002.6064                   20915000.3524
        46.2504         35.0004
 -25594942.72349 -24114921.32347  20325324.1454                   20325321.4884
        51.0004         37.5004
 -31134698.69549 -25763678.30548  19449872.0904                   19449869.3404
        51.0004         41.0004
 -22891481.94949 -17822985.82046  22917781.5904                   22917780.7894
        37.5004         17.7504
                                  24194932.223
        29.750
 -23131873.16049 -17979684.91848  20129947.7624                   20129945.4144
        50.5004         40.5004
                                  22952925.824
        34.500
 03  1 16  1 40 59.9960000  0 10G17G15G29G10G30G 6G 5G24G23G26
 -21196361.84449 -18732138.19347  20808497.4654                   20808495.6174
        49.2504         36.0004
  -4678231.61749  -7615310.35256  22768267.0434                   22768267.6174
        37.7504         15.5004
  -2213439.51149  -3798489.55546  22925592.0824                   22925587.4534
        39.2504         14.7504
 -24655724.25449 -20030215.76047  20923531.0824                   20923528.7314
        47.0004         34.5004
 -25545104.21149 -24076086.13047  20334808.0274                   20334805.3014
        51.2504         36.5004
 -31189440.37549 -25806334.12848  19439454.9654                   19439452.2814
        51.7504         41.2504
 -22810596.04749 -17759957.93446  22933174.6604                   22933173.4024
        37.2504         16.7504
                                  24205188.512
        25.750
 -23216115.15249 -18045327.98248  20113917.1454                   20113915.0354
        49.5004         40.0004
  -3387554.746 8                  22931089.559
        34.250
 03  1 16  1 41 29.9960000  0  9G17G15G29G10G30G 6G 5G23G26
 -21272917.95749 -18791792.27847  20793929.0274                   20793927.4264
        48.7504         35.5004
  -4787009.83649  -7700072.40246  22747567.3244                   22747567.8364
        38.0004         15.5004
  -2303307.25449  -3868516.23446  22908489.6454                   22908486.9654
        36.0004         15.5004
 -24610451.28549 -19994938.12047  20932146.0354                   20932144.0744
        48.0004         35.2504
 -25494850.44549 -24036927.34447  20344370.8714                   20344368.5394
        51.0004         36.7504
 -31243851.63349 -25848732.49048  19429100.9024                   19429098.2274
        50.7504         41.2504
 -22729647.78149 -17696881.40546  22948578.1214                   22948576.3524
        38.5004         19.0004
 -23299870.85949 -18110592.11748  20097978.7854                   20097976.5124
        49.7504         40.5004
  -3502184.445 9                  22909276.379
        36.000
 03  1 16  1 41 59.9960000  0  9G17G15G29G10G30G 6G 5G23G26
 -21349234.42249 -18851259.59747  20779406.6914                   20779404.8444
        50.0004         36.2504
  -4895619.48049  -7784703.12946  22726899.4494                   22726898.1644
        39.0004         16.7504
  -2392913.66848  -3938339.29746  22891438.4024                   22891436.3834
        35.5004         13.7504
 -24564726.61349 -19959308.48647  20940847.0664                   20940844.7274
        47.0004         34.7504
 -25444184.48049 -23997447.37347  20354012.4104                   20354009.9064
        50.5004         36.7504
 -31297931.43749 -25890872.57048  19418809.7774                   19418806.8674
        51.2504         41.2504
 -22648640.00449 -17633758.50346  22963993.3244                   22963992.1994
        38.5004         18.2504
 -23383139.14849 -18175476.43848  20082133.0824                   20082131.3324
        48.7504         40.2504
  -3616685.707 9                  22887486.910
        36.000
 03  1 16  1 42 29.9960000  0  9G17G15G29G10G30G 6G 5G23G26
 -21425310.20749 -18910539.38747  20764929.6524                   20764928.0864
        49.2504         37.0004
  -5004058.71149  -7869201.10546  22706264.6214                   22706261.9694
        39.2504         17.2504
  -2482254.41449  -4007955.42646  22874437.3794                   22874435.7974
        36.2504         13.7504
 -24518551.42249 -19923327.80547  20949633.8634                   20949631.5004
        47.7504         34.5004
 -25393107.37549 -23957647.03347  20363731.9494                   20363729.7274
        50.5004         37.0004
 -31351676.93049 -25932752.14948  19408582.3244                   19408579.5594
        50.5004         41.5004
 -22567573.89549 -17570590.22646  22979420.4264                   22979418.8794
        39.0004         19.7504
 -23465917.07049 -18239978.66948  20066380.8564                   20066378.8524
        48.0004         40.0004
  -3731053.707 9                  22865723.606
        36.750
 03  1 16  1 42 59.9960000  0  9G17G15G29G10G30G 6G 5G23G26
 -21501144.64549 -18969631.11547  20750499.0744                   20750497.1564
        49.5004         36.2504
  -5112326.78549  -7953565.72146  22685662.9344                   22685660.6644
        39.0004         18.2504
  -2571325.820 8                  22857485.981
        32.000
 -24471927.62149 -19886997.55947  20958506.4104                   20958503.9184
        48.7504         34.7504
 -25341621.18449 -23917527.91947  20373529.3794                   20373526.7274
        51.2504         36.7504
 -31405085.83649 -25974369.44648  19398418.9024                   19398416.5944
        50.5004         41.2504
 -22486451.15249 -17507377.75646  22994857.5124                   22994855.8014
        39.0004         19.0004
 -23548202.67649 -18304097.26548  20050722.4884                   20050720.4774
        48.5004         40.0004
  -3845284.223 9                  22843985.934
        37.500
 03  1 16  1 43 29.9960000  0  9G17G15G29G10G30G 6G 5G23G26
 -21576737.12149 -19028534.31747  20736114.2384                   20736112.6764
        49.5004         36.5004
  -5220422.24649  -8037795.76246  22665092.4414                   22665091.4614
        40.5004         19.7504
  -2660123.836 8                  22840588.004
        30.750
 -24424856.71149 -19850318.92147  20967463.4184                   20967460.7034
        48.2504         34.5004
 -25289727.34449 -23877091.16347  20383404.4964                   20383402.1844
        50.5004         36.7504
 -31458155.56649 -26015722.45848  19388320.3014                   19388317.6414
        50.5004         41.5004
 -22405273.10949 -17444122.14346  23010305.2464                   23010303.9574
        39.5004         18.5004
 -23629993.23049 -18367830.11948  20035158.6064                   20035156.2734
        48.5004         39.7504
  -3959372.746 9                  22822275.363
        37.750
 03  1 16  1 43 59.9960000  0  9G17G15G29G10G30G 6G 5G23G26
 -21652091.37549 -19087251.86047  20721774.8484                   20721773.2704
        50.0004         36.5004
  -5328348.34049  -8121893.84346  22644554.5354                   22644553.0944
        41.0004         20.2504
  -2748649.285 8                  22823744.731
        32.000
 -24377345.32849 -19813297.05347  20976504.6134                   20976501.9694
        48.5004         34.2504
 -25237432.16049 -23836341.67447  20393355.8874                   20393353.7664
        50.5004         36.7504
 -31510888.20349 -26056812.79848  19378285.3564                   19378282.7504
        48.5004         41.2504
 -22324046.10549 -17380828.53746  23025762.0744                   23025761.4224
        40.0004         18.5004
 -23711291.18049 -18431179.13048  20019687.8954                   20019685.7344
        46.0004         40.5004
  -4073319.387 9                  22800592.129
        38.250
 03  1 16  1 44 29.9960000  0 10G17G15G29G10G30G 6G 5G23G26G18
 -21727207.42649 -19145783.81247  20707480.4494                   20707478.6844
        49.7504         36.0004
  -5436104.67649  -8205859.64946  22624049.6604                   22624048.2114
        40.0004         19.2504
  -2836899.422 8                  22806950.785
        31.000
 -24329396.00449 -19775933.92547  20985629.1684                   20985626.3284
        49.0004         34.0004
 -25184738.41049 -23795281.61347  20403383.3324                   20403380.8404
        51.2504         37.0004
 -31563282.28549 -26097639.33848  19368315.2154                   19368312.3244
        51.0004         41.0004
 -22242772.54349 -17317498.54646  23041227.9024                   23041226.7074
        40.5004         18.5004
 -23792095.16049 -18494143.21348  20004311.1994                   20004309.0704
        49.0004         40.0004
  -4187120.738 9                  22778936.988
        39.250
   -352016.34418                  23294868.863
        33.500
 03  1 16  1 44 59.9960000  0  9G17G15G10G30G 6G 5G23G26G18
 -21802081.50449 -19204127.20047  20693232.4654                   20693231.1134
        49.2504         36.0004
  -5543687.11749  -8289690.04946  22603576.7774                   22603575.1254
        40.7504         19.5004
 -24281006.98449 -19738228.18747  20994837.2544                   20994834.7504
        49.5004         34.0004
 -25131644.44549 -23753909.69847  20413486.7154                   20413484.2074
        50.5004         37.5004
 -31615332.03549 -26138197.55548  19358410.2854                   19358407.3444
        50.2504         41.7504
 -22161450.81649 -17254131.03646  23056703.6764                   23056701.8284
        40.2504         19.5004
 -23872399.48449 -18556717.97148  19989029.9964                   19989027.2774
        48.7504         39.5004
  -4300769.160 9                  22757309.012
        38.250
   -490073.902 8                  23268597.246
        32.000
 03  1 16  1 45 29.9960000  0  9G17G15G10G30G 6G 5G23G26G18
 -21876716.57849 -19262284.37047  20679029.7314                   20679028.0394
        49.5004         36.0004
  -5651098.35249  -8373386.94846  22583136.8794                   22583135.5274
        38.5004         20.2504
 -24232184.14549 -19700184.40047  21004127.7544                   21004125.1684
        48.7504         33.7504
 -25078156.03549 -23712230.42147  20423665.0594                   20423662.8134
        50.7504         37.0004
 -31667039.02749 -26178488.69448  19348570.8714                   19348568.3014
        51.5004         41.0004
 -22080086.54349 -17190730.34446  23072186.6524                   23072185.2734
        40.5004         18.5004
 -23952205.84049 -18618904.69748  19973842.9494                   19973840.9534
        50.0004         40.5004
  -4414264.184 9                  22735711.246
        38.500
   -628034.742 8                  23242342.832
        31.500
 03  1 16  1 45 59.9960000  0  9G17G15G10G30G 6G 5G23G26G18
 -21951112.93449 -19320255.51347  20664872.3014                   20664870.5124
        49.7504         35.5004
  -5758337.65649  -8456949.93846  22562730.1374                   22562729.1094
        38.2504         21.5004
 -24182930.09049 -19661804.61047  21013500.6764                   21013498.0084
        48.5004         33.5004
 -25024275.33249 -23670245.46147  20433918.3244                   20433915.7074
        50.0004         36.7504
 -31718401.37149 -26218511.26648  19338797.3874                   19338794.2504
        51.0004         41.5004
 -21998681.90249 -17127298.25446  23087677.0044                   23087676.7234
        39.0004         16.7504
 -24031512.69149 -18680702.20548  19958751.5514                   19958749.2114
        50.0004         39.7504
  -4527602.016 9                  22714144.731
        38.000
                                  23216107.816
        29.750
 03  1 16  1 46 29.9960000  0  9G17G15G10G30G 6G 5G23G26G18
 -22025269.10249 -19378039.50547  20650761.2154                   20650759.0864
        49.7504         36.0004
  -5865403.34849  -8540377.59546  22542356.4264                   22542355.3094
        40.0004         21.5004
 -24133246.05149 -19623089.76647  21022955.2154                   21022952.3244
        49.5004         33.5004
 -24970004.00449 -23627956.12047  20444246.0744                   20444243.1254
        50.7504         37.5004
 -31769416.18049 -26258263.04848  19329089.1454                   19329086.4304
        51.0004         41.2504
 -21917238.12949 -17063835.63746  23103175.3404                   23103174.6064
        39.0004         16.2504
 -24110317.40649 -18742108.42948  19943755.1844                   19943753.0474
        49.2504         39.5004
  -4640777.809 9                  22692606.762
        37.750
   -903655.29718                  23189889.699
        30.000
 03  1 16  1 46 59.9960000  0  9G17G15G10G30G 6G 5G23G26G18
 -22099184.75049 -19435636.07147  20636695.4414                   20636693.4224
        49.7504         36.2504
  -5972294.55549  -8623669.36646  22522015.6604                   22522014.3094
        40.5004         22.5004
 -24083134.05949 -19584041.45447  21032491.3484                   21032488.0984
        47.7504         33.2504
 -24915344.01249 -23585363.92647  20454647.3404                   20454644.7194
        50.0004         37.2504
 -31820081.46949 -26297742.46548  19319447.6604                   19319445.1064
        50.7504         40.5004
 -21835757.12549 -17000344.06246  23118681.1604                   23118679.8594
        38.2504         15.5004
 -24188618.05149 -18803121.86348  19928855.0044                   19928852.6024
        49.7504         39.7504
  -4753787.492 9                  22671101.801
        37.250
  -1041308.36318                  23163695.621
        31.000
 03  1 16  1 47 29.9960000  0  9G17G15G10G30G 6G 5G23G26G18
 -22172854.25449 -19493040.82747  20622676.4574                   20622674.7934
        50.5004         36.7504
  -6079004.94149  -8706820.23746  22501708.7464                   22501708.5394
        39.0004         22.7504
 -24032590.77749 -19544657.05547  21042109.2934                   21042106.0514
        48.5004         32.7504
 -24860292.04349 -23542466.29447  20465123.5514                   20465120.9574
        51.0004         37.0004
 -31870389.51249 -26336943.50948  19309874.2934                   19309871.6524
        51.5004         41.0004
 -21754235.25448 -16936820.57446  23134193.7074                   23134193.5784
        34.7504         15.5004
 -24266407.35549 -18863736.87548  19914052.4184                   19914049.9024
        50.7504         40.0004
  -4866621.703 9                  22649630.613
        36.750
  -1178847.316 8                  23137522.731
        31.500
 03  1 16  1 47 59.9960000  0 10G17G15G29G10G30G 6G 5G23G26G18
 -22246273.53549 -19550250.62547  20608705.4264                   20608703.4654
        51.0004         36.7504
  -6185530.09049  -8789826.75646  22481437.2934                   22481437.1524
        40.0004         22.7504
   -132890.09418                  22690927.356
        32.500
 -23981614.87949 -19504935.58547  21051809.9344                   21051806.9924
        48.7504         32.7504
 -24804846.49649 -23499261.98547  20475674.3484                   20475671.7734
        51.0004         37.2504
 -31920334.65249 -26375861.78348  19300370.1844                   19300367.4344
        51.5004         41.2504
 -21672670.73848 -16873263.86746  23149715.3014                   23149714.5314
        33.0004         13.7504
 -24343679.74649 -18923949.08448  19899348.0904                   19899345.4534
        50.7504         40.2504
  -4979272.418 9                  22628193.199
        37.500
  -1316265.37918                  23111371.785
        30.500
 03  1 16  1 48 29.9960000  0 10G17G15G29G10G30G 6G 5G23G26G18
 -22319444.23849 -19607266.71847  20594781.1454                   20594779.4774
        50.5004         36.2504
  -6291871.37149  -8872690.01646  22461201.7934                   22461201.2814
        40.0004         22.7504
   -218786.801 8                  22674581.918
        32.500
 -23930210.66849 -19464880.33147  21061591.5124                   21061588.5824
        48.5004         32.2504
 -24749011.83249 -23455754.45647  20486299.4574                   20486297.1524
        50.7504         37.0004
 -31969917.07049 -26414497.40848  19290934.9884                   19290931.9224
        51.5004         41.2504
 -21591067.79718                  23165243.668
        34.250
 -24420435.89549 -18983759.02848  19884741.7854                   19884739.2274
        51.0004         40.2504
  -5091738.02349  -4917282.87156  22606791.5274                   22606790.9964
        37.5004         16.2504
  -1453562.15218                  23085245.824
        31.500
 03  1 16  1 48 59.9960000  0 10G17G15G29G10G30G 6G 5G23G26G18
 -22392367.53549 -19664090.02847  20580904.4574                   20580902.5594
        50.5004         37.0004
  -6398029.00849  -8955410.14546  22441000.1064                   22441000.0354
        39.2504         22.5004
   -304371.105 8                  22658294.832
        32.250
 -23878381.00849 -19424493.55947  21071454.3794                   21071451.1174
        48.2504         31.7504
 -24692791.03149 -23411946.05347  20496997.9024                   20496995.4264
        51.2504         36.7504
 -32019135.52349 -26452849.42148  19281568.7774                   19281566.3714
        52.0004         40.7504
 -21509429.141 8                  23180778.074
        33.750
 -24496674.82849 -19043165.94748  19870234.0984                   19870231.3404
        51.0004         40.2504
  -5204015.41049  -5004771.61746  22585426.0354                   22585424.7384
        38.2504         16.2504
  -1590735.69118                  23059142.410
        31.250
 03  1 16  1 49 29.9960000  0 10G17G15G29G10G30G 6G 5G23G26G18
 -22465042.07449 -19720719.50447  20567075.0274                   20567073.2424
        50.0004         37.0004
  -6504001.28549  -9037985.90846  22420833.9734                   22420833.0164
        40.7504         21.5004
   -389638.602 8                  22642069.629
        34.750
 -23826127.65649 -19383776.64847  21081397.8164                   21081394.9024
        47.7504         32.0004
 -24636185.62549 -23367837.94047  20507769.6374                   20507767.0744
        51.2504         37.7504
 -32067987.42249 -26490915.81448  19272272.8404                   19272269.9964
        51.2504         41.0004
 -21427755.980 8                  23196322.012
        35.000
 -24572394.00049 -19102167.85548  19855825.0434                   19855822.3364
        51.5004         40.5004
  -5316099.66749  -5092109.78546  22564097.5514                   22564096.2034
        38.2504         14.7504
  -1727782.402 8                  23033063.660
        31.750
 03  1 16  1 49 59.9960000  0 10G17G15G29G10G30G 6G 5G23G26G18
 -22537470.82849 -19777157.45747  20553292.2154                   20553289.9184
        50.0004         37.2504
  -6609790.86349  -9120419.30046  22400703.7704                   22400701.8594
        39.5004         23.0004
   -474589.453 8                  22625903.566
        35.250
 -23773456.12549 -19342733.87947  21091420.8484                   21091418.0434
        47.0004         31.2504
 -24579201.14149 -23323434.45447  20518613.2384                   20518610.6724
        51.0004         37.2504
 -32116473.91849 -26528697.46548  19263045.8794                   19263043.5274
        51.5004         40.7504
 -21346053.875 8                  23211868.152
        35.000
 -24647595.28549 -19160766.22948  19841514.5274                   19841512.3594
        51.2504         39.7504
  -5427990.24649  -5179297.12946  22542804.0664                   22542803.1684
        37.2504         14.7504
  -1864702.840 8                  23007007.481
        34.750
 03  1 16  1 50 29.9960000  0 10G17G15G29G10G30G 6G 5G23G26G18
 -22609654.71549 -19833404.59247  20539556.1524                   20539553.6804
        51.0004         37.5004
  -6715398.16049  -9202710.61946  22380606.8404                   22380606.3914
        41.0004         24.5004
   -559221.797 9                  22609799.629
        37.000
 -23720369.93449 -19301367.99147  21101522.8404                   21101519.7734
        47.7504         31.7504
 -24521841.06649 -23278738.27947  20529528.1994                   20529525.9884
        50.7504         37.0004
 -32164594.28949 -26566193.83148  19253889.0044                   19253885.9304
        51.2504         41.0004
 -21264325.805 9                  23227421.520
        37.000
 -24722278.12549 -19218960.60848  19827302.8714                   19827300.6294
        50.7504         39.7504
  -5539684.26649  -5266331.34446  22521550.5824                   22521548.4144
        37.2504         14.7504
  -2001495.430 8                  22980977.215
        35.250
 03  1 16  1 50 59.9960000  0 10G17G15G29G10G30G 6G 5G23G26G18
 -22681595.04749 -19889461.95647  20525866.2704                   20525864.1174
        47.0004         37.5004
  -6820823.72349  -9284860.31846  22360544.7704                   22360543.6844
        40.2504         24.7504
   -643533.348 9                  22593755.316
        37.500
 -23666872.41449 -19259681.58747  21111703.1994                   21111700.0744
        46.7504         31.0004
 -24464108.87149 -23233752.16747  20540514.3244                   20540512.2734
        50.5004         37.5004
 -32212347.80949 -26603404.34148  19244801.6764                   19244798.9384
        51.0004         40.5004
 -21182574.980 9                  23242978.598
        37.500
 -24796442.05149 -19276750.64248  19813189.7074                   19813187.5744
        48.0004         40.0004
  -5651178.99648  -5353210.27046  22500332.0824                   22500332.6254
        33.7504         13.7504
  -2138158.402 8                  22954971.363
        35.500
 03  1 16  1 51 29.9960000  0 10G17G15G29G10G30G 6G 5G23G26G18
 -22753290.92649 -19945328.83147  20512222.9814                   20512221.0314
        50.5004         38.0004
  -6926066.84849  -9366867.84246  22340518.1064                   22340517.2854
        42.0004         24.7504
   -727520.941 9                  22577772.449
        38.000
 -23612965.68049 -19217676.33047  21121960.9184                   21121958.2424
        46.7504         31.0004
 -24406006.71149 -23188477.76047  20551570.9654                   20551568.8134
        50.7504         37.5004
 -32259732.39849 -26640327.37648  19235784.7154                   19235782.1374
        51.2504         41.2504
 -21100803.437 9                  23258539.176
        37.750
 -24870085.29349 -19334134.95748  19799176.1454                   19799173.5164
        51.5004         40.5004
  -5762470.21948  -5439930.44146  22479153.6294                   22479154.1764
        33.0004         13.7504
  -2274689.109 9                  22928990.270
        37.750
 03  1 16  1 51 59.9960000  0 10G17G15G29G10G30G 6G 5G23G26G18
 -22824746.08249 -20001008.15347  20498625.6454                   20498623.5554
        50.7504         38.0004
  -7031130.16049  -9448735.31246  22320525.2544                   22320524.1644
        42.5004         22.7504
   -811185.020 9                  22561851.973
        39.500
 -23558655.81649 -19175356.95747  21132296.0904                   21132293.2114
        46.7504         30.2504
 -24347540.69949 -23142919.82847  20562696.6764                   20562694.3164
        50.7504         37.5004
 -32306749.87949 -26676964.35248  19226837.4344                   19226835.0944
        51.2504         41.0004
 -21019016.62149 -16363923.90656  23274103.1454                   23274102.4024
        37.2504         17.2504
 -24943210.10249 -19391115.28848  19785261.4494                   19785258.6454
        51.7504         40.0004
  -5873557.859 8                  22458014.371
        34.000
  -2411088.266 9                  22903033.754
        38.000
 03  1 16  1 52 29.9960000  0 10G17G15G29G10G30G 6G 5G23G26G18
 -22895959.73049 -20056499.25847  20485074.1294                   20485072.0394
        51.2504         37.7504
  -7136012.73049  -9530461.91746  22300566.5904                   22300566.0824
        41.0004         25.0004
   -894521.707 9                  22545992.941
        38.750
 -23503944.54749 -19132724.81047  21142707.3094                   21142704.3834
        45.5004         29.7504
 -24288712.53149 -23097079.69147  20573891.1994                   20573889.3714
        50.5004         37.2504
 -32353397.75449 -26713313.32248  19217960.7464                   19217958.2624
        51.7504         41.0004
 -20937216.10249 -16300183.43046  23289669.1294                   23289667.7114
        37.2504         15.5004
 -25015814.35249 -19447689.99148  19771444.5984                   19771442.1954
        51.5004         40.0004
  -5984437.387 8                  22436915.395
        35.750
  -2547352.801 9                  22877102.684
        37.000
 03  1 16  1 52 59.9960000  0 10G17G15G29G10G30G 6G 5G23G26G18
 -22966932.75849 -20111802.89247  20471568.2384                   20471566.1914
        46.0004         38.0004
  -7240714.43049  -9612047.53546  22280642.2934                   22280641.4384
        41.2504         25.2504
   -977528.676 9                  22530197.324
        39.500
 -23448835.13749 -19089782.38647  21153194.0594                   21153191.3364
        45.5004         29.2504
 -24229525.36749 -23050959.83847  20585154.0744                   20585152.1954
        50.5004         37.0004
 -32399674.80149 -26749373.32548  19209154.2154                   19209151.6804
        51.0004         40.5004
 -20855404.74648 -16236434.41446  23305237.0124                   23305235.4734
        35.7504         15.5004
 -25087897.33649 -19503858.51948  19757727.8164                   19757725.1214
        47.0004         40.0004
  -6095105.508 9                  22415856.168
        36.000
  -2683480.375 9                  22851198.082
        37.000
 03  1 16  1 53 29.9960000  0 10G17G15G29G10G30G 6G 5G23G26G18
 -23037663.20749 -20166917.48647  20458108.4654                   20458106.9654
        47.2504         38.0004
  -7345233.58249  -9693490.97246  22260752.7464                   22260752.1914
        42.2504         25.0004
  -1060201.629 9                  22514465.004
        40.750
 -23393328.71549 -19046530.61947  21163756.4814                   21163754.2344
        45.2504         29.0004
 -24169980.47749 -23004561.21947  20596484.9814                   20596483.2384
        49.5004         37.5004
 -32445578.09049 -26785142.10948  19200419.5124                   19200416.6994
        50.5004         40.7504
 -20773583.40648 -16172677.57446  23320806.4574                   23320806.1024
        35.5004         14.7504
 -25159456.52749 -19559618.89048  19744110.4814                   19744107.7464
        48.7504         40.0004
  -6205557.141 9                  22394838.668
        37.000
  -2819467.38349  -2268245.15256  22825320.7704                   22825316.8484
        38.0004         15.5004
 03  1 16  1 53 59.9960000  0 10G17G15G29G10G30G 6G 5G23G26G18
 -23108153.24249 -20221844.76247  20444694.6844                   20444692.7194
        50.5004         37.7504
  -7449571.51649  -9774793.13046  22240897.5514                   22240896.4694
        41.7504         25.5004
  -1142539.34049  -5167145.70356  22498796.8484                   22498792.1604
        40.7504         17.2504
 -23337429.61749 -19002972.84647  21174393.5594                   21174391.2544
        45.2504         28.2504
 -24110082.05549 -22957887.13247  20607883.4574                   20607881.6724
        50.2504         37.5004
 -32491107.52749 -26820619.56948  19191755.3564                   19191752.8564
        50.2504         41.2504
 -20691755.879 8                  23336378.613
        35.250
 -25230492.32449 -19614971.42248  19730592.8954                   19730590.1414
        52.0004         40.2504
  -6315790.344 9                  22373861.863
        36.000
  -2955313.17249  -2374098.82846  22799469.5594                   22799466.9104
        36.5004         16.2504
 03  1 16  1 54 29.9960000  0 10G17G15G29G10G30G 6G 5G23G26G18
 -23178403.34849 -20276585.06447  20431326.6214                   20431324.2704
        51.0004         38.0004
  -7553727.82049  -9855953.82346  22221077.0514                   22221076.7074
        40.5004         25.0004
  -1224538.87149  -5231041.37146  22483192.9024                   22483188.8484
        41.5004         17.2504
 -23281140.25049 -18959111.00947  21185105.5594                   21185102.4884
        44.5004         27.7504
 -24049832.81649 -22910939.67247  20619348.6914                   20619346.7424
        50.7504         37.0004
 -32536261.53149 -26855804.47648  19183162.8244                   19183160.2894
        50.5004         40.7504
 -20609924.473 8                  23351951.324
        31.750
 -25301003.71949 -19669915.33948  19717175.1524                   19717172.3484
        52.2504         40.2504
  -6425801.410 9                  22352928.129
        36.000
  -3091015.21549  -2479840.43746  22773646.0594                   22773644.2424
        37.0004         17.2504
 03  1 16  1 54 59.9960000  0 10G17G15G29G10G30G 6G 5G23G26G18
 -23248412.27749 -20331137.44947  20418004.3874                   20418002.3834
        51.0004         38.0004
  -7657701.01649  -9936971.78146  22201292.1134                   22201290.6524
        40.2504         25.5004
  -1306196.21549  -5294670.37546  22467653.4734                   22467650.4264
        41.2504         19.5004
 -23224462.11749 -18914946.23247  21195890.2624                   21195888.3794
        44.5004         27.0004
 -23989234.22349 -22863719.98747  20630879.7464                   20630877.8524
        49.7504         37.2504
 -32581037.39149 -26890694.73548  19174642.1604                   19174639.7464
        51.0004         40.7504
 -20528090.434 8                  23367524.379
        31.750
 -25370988.42249 -19724448.82948  19703857.3014                   19703854.4654
        51.7504         40.2504
  -6535585.375 8                  22332035.691
        34.750
  -3226569.89549  -2585467.27346  22747850.3794                   22747848.9064
        37.0004         17.2504
 03  1 16  1 55 29.9960000  0 10G17G15G29G10G30G 6G 5G23G26G18
 -23318182.01649 -20385503.43847  20404727.3484                   20404725.5394
        50.5004         37.7504
  -7761492.86749 -10017848.39947  22181541.1684                   22181539.3674
        41.2504         26.0004
  -1387510.62949  -5358032.15646  22452180.4734                   22452178.1334
        42.2504         20.5004
 -23167399.98049 -18870482.20447  21206749.3164                   21206746.6094
        43.5004         27.0004
 -23928291.06249 -22816231.81647  20642476.9494                   20642475.5004
        50.2504         37.0004
 -32625435.54749 -26925290.67148  19166193.4414                   19166190.6804
        50.7504         40.5004
 -20446257.98018                  23383098.395
        29.750
 -25440447.44949 -19778572.71348  19690639.7934                   19690637.1884
        51.5004         40.5004
  -6645140.918 8                  22311187.176
        34.500
  -3361976.84049  -2690978.98146  22722083.3324                   22722082.3014
        37.5004         18.5004
 03  1 16  1 55 59.9960000  0  9G17G15G29G10G30G 6G23G26G18
 -23387712.07849 -20439682.68247  20391496.3484                   20391494.3284
        46.5004         37.2504
  -7865102.34849 -10098582.95247  22161824.8874                   22161823.5704
        40.7504         27.2504
  -1468478.74249  -5421124.08346  22436772.4654                   22436769.8014
        43.5004         22.0004
 -23109956.05149 -18825720.69747  21217680.4734                   21217678.5314
        42.7504         26.5004
 -23867005.43749 -22768476.78147  20654139.4344                   20654137.7344
        49.5004         35.5004
 -32669453.87949 -26959590.65348  19157816.7234                   19157814.3954
        49.7504         39.7504
 -25509379.19949 -19832285.73348  19677522.3634                   19677519.4694
        49.7504         39.7504
  -6754463.672 8                  22290383.348
        33.500
  -3497233.06249  -2796373.25546  22696345.0514                   22696344.0314
        37.7504         19.2504
 03  1 16  1 56 29.9960000  0  9G17G15G29G10G30G 6G23G26G18
 -23457004.27749 -20493676.56747  20378310.4574                   20378308.4534
        45.5004         37.7504
  -7968530.79349 -10179176.39447  22142142.7464                   22142141.3954
        41.0004         28.0004
  -1549099.52049  -5483945.38046  22421431.5594                   22421428.6294
        44.5004         22.0004
 -23052134.81249 -18780665.19746  21228683.7934                   21228681.0594
        43.2504         25.2504
 -23805381.77349 -22720458.33647  20665866.0744                   20665864.3324
        49.7504         36.7504
 -32713092.32449 -26993594.61048  19149512.9654                   19149510.1094
        50.0004         40.2504
 -25577784.32449 -19885588.38548  19664505.2934                   19664502.6564
        47.7504         40.5004
  -6863551.777 8                  22269625.246
        32.750
  -3632337.75049  -2901649.39646  22670635.9814                   22670634.4064
        39.5004         20.5004
 03  1 16  1 56 59.9960000  0  9G17G15G29G10G30G 6G23G26G18
 -23526060.60549 -20547486.66047  20365169.4734                   20365167.0864
        50.0004         37.5004
  -8071779.96549 -10259630.19347  22122494.5204                   22122493.6644
        42.2504         28.5004
  -1629371.86349  -5546495.18746  22406156.0204                   22406152.5704
        43.7504         21.5004
 -22993940.95349 -18735319.32246  21239757.6294                   21239755.3444
        43.0004         25.2504
 -23743424.93049 -22672180.28647  20677655.5984                   20677654.1214
        50.0004         36.5004
 -32756351.44949 -27027303.00048  19141281.2624                   19141278.3954
        50.7504         40.5004
 -25645663.79749 -19938481.44848  19651588.6524                   19651585.6764
        52.0004         40.2504
  -6972403.516 8                  22248910.902
        30.750
  -3767290.47349  -3006807.22146  22644954.8714                   22644953.7504
        41.5004         21.5004
 03  1 16  1 57 29.9960000  0  9G17G15G29G10G30G 6G23G26G18
 -23594876.21149 -20601109.18547  20352074.3794                   20352071.9734
        50.2504         38.0004
  -8174844.09049 -10339939.77347  22102881.8404                   22102881.3874
        39.5004         26.7504
  -1709287.89849  -5608767.31746  22390947.5124                   22390943.8634
        42.5004         19.7504
 -22935371.56649 -18689680.83146  21250902.9734                   21250900.9494
        42.2504         25.0004
 -23681131.99649 -22623640.34047  20689509.9734                   20689507.9844
        50.0004         36.5004
 -32799224.23049 -27060710.33348  19133122.9024                   19133119.6994
        49.7504         41.0004
 -25713011.16449 -19990959.87948  19638772.6214                   19638769.8134
        52.7504         40.2504
  -7081009.828 8                  22228243.254
        28.250
  -3902083.38349  -3111840.42946  22619304.6994                   22619302.9024
        42.0004         21.5004
 03  1 16  1 57 59.9960000  0  9G17G15G29G10G30G 6G23G26G18
 -23663452.34849 -20654545.09247  20339024.7384                   20339022.2504
        50.5004         38.2504
  -8277724.04349 -10420105.85947  22083305.1844                   22083303.0474
        41.5004         27.0004
  -1788845.69949  -5670760.28246  22375808.1604                   22375804.7274
        42.2504         20.0004
 -22876430.32849 -18643752.57246  21262119.2934                   21262117.0234
        42.5004         24.5004
 -23618506.83649 -22574841.51447  20701427.5044                   20701425.3404
        50.0004         36.5004
 -32841710.38349 -27093816.40148  19125037.5594                   19125034.8094
        50.5004         40.7504
 -25779826.52049 -20043023.76148  19626058.2774                   19626055.4774
        53.0004         41.0004
                                  22207624.246
        25.750
  -4036715.36349  -3216748.30746  22593683.9734                   22593683.7624
        41.7504         20.5004
 03  1 16  1 58 29.9960000  0  8G17G15G29G10G30G 6G23G18
 -23731792.01249 -20707796.73147  20326020.0204                   20326017.8874
        47.2504         38.5004
  -8380422.30949 -10500130.38147  22063762.1914                   22063760.8284
        42.7504         27.7504
  -1868045.53549  -5732474.39346  22360736.4884                   22360732.8014
        41.7504         19.0004
 -22817122.87949 -18597538.99546  21273404.8094                   21273402.5004
        42.7504         22.7504
 -23555555.08649 -22525788.21147  20713406.4884                   20713404.5594
        50.2504         36.5004
 -32883811.20349 -27126622.19948  19117026.0514                   19117023.2854
        50.5004         40.5004
 -25846111.93449 -20094674.68648  19613444.2464                   19613441.4964
        50.7504         40.5004
  -4171186.90249  -3321531.15046  22568095.8714                   22568093.7544
        42.5004         21.7504
 03  1 16  1 58 59.9960000  0  8G17G15G29G10G30G 6G23G18
 -23799895.60249 -20760864.42947  20313060.2074                   20313058.1134
        50.0004         38.2504
  -8482939.05949 -10580013.46547  22044254.2314                   22044252.1294
        43.5004         29.0004
  -1946885.02749  -5793907.69346  22345735.0984                   22345730.1604
        41.2504         18.5004
 -22757452.39549 -18551042.48746  21284760.1064                   21284757.5164
        42.7504         24.5004
 -23492279.93749 -22476482.89947  20725447.2154                   20725445.4614
        50.2504         36.7504
 -32925525.43049 -27159126.78648  19109088.1294                   19109085.5864
        50.7504         41.0004
 -25911866.82449 -20145912.22848  19600931.3954                   19600928.7384
        52.0004         40.2504
  -4305496.05549  -3426187.50346  22542537.0044                   22542535.8794
        42.0004         21.5004
 03  1 16  1 59 29.9960000  0  8G17G15G29G10G30G 6G23G18
 -23867759.92249 -20813745.66947  20300146.0434                   20300143.7584
        50.2504         37.7504
  -8585270.46949 -10659752.08647  22024780.9184                   22024779.0434
        42.0004         28.7504
  -2025357.95749  -5855055.31346  22330801.0124                   22330797.8754
        41.0004         19.2504
 -22697417.93749 -18504262.36846  21296184.0744                   21296181.3444
        42.0004         22.7504
 -23428680.59849 -22426924.97947  20737549.7154                   20737548.0164
        50.0004         35.7504
 -32966848.03549 -27191326.18548  19101224.4734                   19101221.7814
        50.0004         40.7504
 -25977086.85949 -20196733.00248  19588520.5274                   19588517.8594
        52.5004         40.0004
  -4439636.89149  -3530712.68346  22517010.6844                   22517009.2234
        41.7504         21.7504
 03  1 16  1 59 59.9960000  0  8G17G15G29G10G30G 6G23G18
 -23935387.44149 -20866442.39947  20287277.3954                   20287274.1604
        50.7504         38.2504
  -8687419.16849 -10739348.37247  22005342.7704                   22005340.4264
        43.0004         28.0004
  -2103464.60249  -5915917.53746  22315938.4964                   22315935.7934
        41.5004         20.5004
 -22637025.01249 -18457202.91446  21307675.6914                   21307673.8244
        40.7504         22.2504
 -23364762.86349 -22377118.95447  20749713.0274                   20749711.5594
        49.2504         37.0004
 -33007780.50449 -27223221.59948  19093435.7854                   19093432.3594
        51.0004         40.7504
 -26041773.96149 -20247138.51048  19576210.8324                   19576208.0554
        52.2504         40.2504
  -4573609.95749  -3635107.17146  22491516.4654                   22491514.8954
        42.0004         21.5004
 03  1 16  2  0 29.9960000  0  8G17G15G29G10G30G 6G23G18
 -24002779.82849 -20918955.89647  20274452.7544                   20274450.0784
        50.7504         38.2504
  -8789385.62149 -10818802.63747  21985939.0044                   21985937.3484
        43.2504         29.2504
  -2181202.95349  -5976492.81346  22301144.6454                   22301142.6644
        41.5004         21.5004
 -22576277.16849 -18409866.89646  21319235.6604                   21319233.6214
        39.7504         22.5004
 -23300530.03149 -22327067.39547  20761936.8014                   20761934.7274
        49.5004         36.7504
 -33048322.14549 -27254812.46148  19085720.8324                   19085717.7854
        50.0004         40.5004
 -26105928.13349 -20297128.73748  19564002.8164                   19564000.4734
        52.0004         41.0004
  -4707413.68049  -3739369.67546  22466054.2314                   22466052.9964
        42.0004         22.5004
 03  1 16  2  0 59.9960000  0  8G17G15G29G10G30G 6G23G18
 -24069937.42249 -20971286.45247  20261672.8564                   20261670.4304
        50.7504         38.2504
  -8891169.67249 -10898114.78247  21966569.6604                   21966568.4734
        44.2504         29.0004
  -2258570.37149  -6036779.02646  22286421.9574                   22286418.7854
        39.7504         19.7504
 -22515177.07449 -18362256.44246  21330863.0664                   21330860.6684
        40.5004         22.0004
 -23235985.24249 -22276772.75647  20774218.7934                   20774217.0434
        49.0004         36.0004
 -33088471.54749 -27286097.69348  19078080.5204                   19078077.4924
        51.2504         40.0004
 -26169548.59449 -20346703.09548  19551896.4344                   19551893.8714
        52.5004         40.5004
  -4841045.60549  -3843498.31546  22440625.1374                   22440623.2234
        42.0004         22.0004
 03  1 16  2  1 29.9960000  0  8G17G15G29G10G30G 6G23G18
 -24136856.56249 -21023431.18247  20248938.5904                   20248936.0944
        50.5004         38.2504
  -8992767.67249 -10977281.94047  21947235.9964                   21947234.8404
        44.5004         28.7504
  -2335560.95349  -6096771.68146  22271770.4024                   22271767.1844
        39.7504         18.5004
 -22453724.57449 -18314371.38446  21342556.9104                   21342554.4414
        40.2504         22.0004
 -23171127.82849 -22226234.52447  20786560.5744                   20786559.1134
        49.5004         36.2504
 -33128224.08249 -27317073.67248  19070516.1134                   19070512.8594
        51.2504         41.0004
 -26232631.42649 -20395858.51048  19539891.8324                   19539889.4064
        52.0004         40.5004
  -4974500.27349  -3947488.85146  22415229.6524                   22415226.9064
        41.7504         22.5004
 03  1 16  2  1 59.9960000  0  8G17G15G29G10G30G 6G23G18
 -24203538.23849 -21075390.87247  20236249.5744                   20236247.0944
        50.5004         38.7504
  -9094179.94149 -11056304.40347  21927937.6294                   21927936.7974
        44.5004         28.2504
  -2412172.28549  -6156468.77346  22257191.6994                   22257188.1094
        38.2504         17.7504
 -22391922.64149 -18266213.98146  21354317.4264                   21354314.5864
        39.7504         22.0004
 -23105960.96949 -22175455.15047  20798961.4264                   20798959.9734
        49.0004         36.5004
 -33167578.64849 -27347739.55548  19063027.1454                   19063024.0744
        51.2504         41.0004
 -26295176.19549 -20444594.65048  19527989.9264                   19527987.6884
        52.2504         40.7504
  -5107775.44949  -4051339.58746  22389867.3484                   22389865.3754
        42.5004         22.7504
 03  1 16  2  2 29.9960000  0  8G17G15G29G10G30G 6G23G18
 -24269986.68049 -21127168.84147  20223604.4344                   20223602.6454
        50.0004         39.0004
  -9195410.13749 -11135184.97547  21908674.2234                   21908673.5314
        44.5004         28.5004
  -2488405.95749  -6215871.56646  22242684.0904                   22242681.9574
        38.5004         17.7504
 -22329777.94549 -18217789.54446  21366143.0744                   21366140.9534
        40.0004         22.5004
 -23040491.75849 -22124440.19047  20811420.0984                   20811418.0744
        49.0004         36.5004
 -33206537.90249 -27378097.39748  19055613.2154                   19055610.3444
        51.0004         40.5004
 -26357186.22749 -20492914.12548  19516189.6994                   19516187.0554
        52.0004         40.0004
  -5240873.19949  -4155052.01346  22364540.3094                   22364537.4924
        43.0004         22.7504
 03  1 16  2  2 59.9960000  0  8G17G15G29G10G30G 6G23G18
 -24336201.56649 -21178764.80847  20211004.5434                   20211002.1844
        50.0004         39.0004
  -9296457.69149 -11213923.24447  21889445.8484                   21889444.5514
        45.2504         29.5004
  -2564258.99249  -6274977.78246  22228249.8874                   22228247.8484
        39.0004         18.2504
 -22267293.13749 -18169100.04946  21378034.4414                   21378031.9844
        40.5004         22.0004
 -22974722.47349 -22073191.40147  20823935.3484                   20823933.6254
        49.0004         35.5004
 -33245099.90249 -27408145.68548  19048275.0434                   19048272.0434
        51.0004         40.2504
 -26418660.51649 -20540816.12648  19504491.5824                   19504489.2074
        51.5004         40.2504
  -5373791.09849  -4258624.28646  22339246.5354                   22339244.2234
        42.7504         22.0004
 03  1 16  2  3 29.9960000  0  8G17G15G29G10G30G 6G23G18
 -24402182.86349 -21230178.76847  20198448.2774                   20198446.1334
        50.0004         39.0004
  -9397321.91449 -11292518.64647  21870252.3094                   21870250.7314
        45.5004         29.0004
  -2639728.26249  -6333784.94346  22213889.4884                   22213887.4654
        38.7504         18.5004
 -22204470.22749 -18120147.10346  21389988.7154                   21389986.4734
        41.0004         22.5004
 -22908655.55549 -22021710.68347  20836507.1604                   20836505.4654
        48.5004         35.5004
 -33283262.71949 -27437882.92748  19041013.2314                   19041010.2234
        51.2504         41.0004
 -26479597.78949 -20588299.69048  19492895.7234                   19492892.9494
        52.2504         40.0004
  -5506525.87949  -4362053.93146  22313988.0274                   22313985.6094
        42.2504         22.5004
 03  1 16  2  3 59.9960000  0  8G17G15G29G10G30G 6G23G18
 -24467929.50449 -21281409.86547  20185937.5274                   20185935.2584
        50.2504         38.2504
  -9498001.66049 -11370970.30247  21851093.4104                   21851092.2194
        46.2504         27.7504
  -2714810.24649  -6392290.26746  22199601.4574                   22199598.8754
        38.7504         18.5004
 -22141311.04749 -18070932.09546  21402008.1844                   21402005.5514
        40.0004         21.0004
 -22842292.73449 -21969999.40847  20849135.8324                   20849133.8484
        48.2504         35.5004
 -33321023.96949 -27467307.25648  19033827.4024                   19033824.1214
        51.5004         40.7504
 -26539996.34449 -20635363.47248  19481402.0124                   19481399.3564
        51.2504         40.0004
  -5639073.96549  -4465338.08146  22288764.5434                   22288762.4304
        42.2504         24.5004
 03  1 16  2  4 29.9960000  0  9G17G15G29G10G30G 6G23G26G18
 -24533442.24649 -21332458.72647  20173470.7704                   20173468.4694
        49.0004         38.7504
  -9598497.04749 -11449278.28647  21831969.1914                   21831967.9104
        45.7504         29.0004
  -2789502.49249  -6450491.94846  22185387.8874                   22185385.0744
        38.7504         19.0004
 -22077818.75049 -18021457.54046  21414089.5744                   21414087.6564
        39.5004         20.0004
 -22775637.30149 -21918060.11547  20861819.9814                   20861817.8364
        48.5004         35.5004
 -33358382.42249 -27496417.72348  19026718.0744                   19026715.0044
        51.5004         41.0004
 -26599855.85949 -20682007.22248  19470011.0904                   19470008.4774
        51.5004         40.5004
    -53719.93059  -6592463.45456  21944127.9104                   21944126.8484
        38.5004         19.5004
  -5771433.67649  -4568475.46246  22263577.3094                   22263575.7274
        42.5004         25.2504
 03  1 16  2  4 59.9960000  0  9G17G15G29G10G30G 6G23G26G18
 -24598723.29349 -21383327.02847  20161048.0274                   20161045.6134
        49.0004         39.2504
  -9698809.67249 -11527443.88447  21812879.9024                   21812878.8364
        45.0004         28.0004
  -2863804.64849  -6508389.71646  22171248.4734                   22171245.6064
        39.2504         18.2504
 -22013997.85249 -17971726.98346  21426234.7624                   21426231.8594
        39.5004         20.2504
 -22708693.94549 -21865896.47547  20874559.2464                   20874557.4184
        48.7504         35.0004
 -33395338.81649 -27525214.88748  19019685.6134                   19019682.7814
        50.7504         40.7504
 -26659177.77049 -20728232.05648  19458722.6764                   19458719.6564
        52.0004         40.5004
   -158268.80149  -6673929.95746  21924232.2074                   21924231.9924
        37.0004         17.7504
  -5903604.89849  -4671465.92046  22238425.9574                   22238424.7504
        43.5004         24.5004
 03  1 16  2  5 29.9960000  0  9G17G15G29G10G30G 6G23G26G18
 -24663770.62549 -21434013.23548  20148669.9884                   20148667.5474
        48.2504         39.5004
  -9798937.37149 -11605465.36647  21793826.1844                   21793825.2854
        45.0004         27.7504
  -2937711.92249  -6565979.74246  22157184.5594                   22157181.9064
        40.5004         17.7504
 -21949849.27349 -17921741.04346  21438441.4104                   21438439.5984
        39.0004         19.7504
 -22641463.59049 -21813509.18547  20887352.4024                   20887350.4654
        48.7504         35.0004
 -33431889.71549 -27553696.09148  19012730.2154                   19012727.4384
        50.0004         41.0004
 -26717959.51249 -20774035.97648  19447536.7934                   19447534.2234
        52.0004         40.2504
   -262518.91049  -6755163.72346  21904394.8714                   21904392.8984
        37.5004         17.7504
  -6035582.98049  -4774305.89746  22213311.0274                   22213309.8714
        44.5004         24.5004
 03  1 16  2  5 59.9960000  0  9G17G15G29G10G30G 6G23G26G18
 -24728585.76649 -21484518.49048  20136336.1454                   20136333.5044
        47.0004         39.5004
  -9898880.53149 -11683343.09347  21774807.8714                   21774806.7584
        45.0004         29.0004
  -3011222.72749  -6623260.85146  22143196.4104                   22143193.6214
        40.5004         18.2504
 -21885376.32049 -17871502.39246  21450710.1134                   21450707.8714
        39.5004         20.0004
 -22573949.69149 -21760900.96347  20900200.0984                   20900197.9144
        48.7504         35.0004
 -33468034.25049 -27581860.64448  19005852.1844                   19005849.0904
        48.7504         41.0004
 -26776201.17649 -20819419.05548  19436453.4574                   19436451.1604
        51.5004         40.5004
   -366467.31649  -6836162.44146  21884613.8714                   21884610.9814
        37.0004         17.2504
  -6167366.55549  -4876994.34446  22188233.5664                   22188232.1024
        43.7504         25.5004
 03  1 16  2  6 29.9960000  0  9G17G15G29G10G30G 6G23G26G18
 -24793169.00449 -21534843.05747  20124046.4264                   20124043.8364
        46.2504         39.2504
  -9998639.74249 -11761077.48347  21755824.0824                   21755822.9574
        45.0004         28.0004
  -3084334.99249  -6680231.31046  22129284.0824                   22129281.2194
        40.2504         20.0004
 -21820582.48449 -17821013.64546  21463040.2314                   21463037.2704
        38.7504         20.5004
 -22506155.97349 -21708074.67647  20913100.4884                   20913098.6174
        49.0004         34.0004
 -33503771.93049 -27609708.17448  18999051.5044                   18999048.6334
        48.0004         40.7504
 -26833903.09049 -20864381.55248  19425473.4264                   19425471.0634
        51.0004         40.7504
   -470111.57449  -6916924.05346  21864890.9964                   21864888.7274
        38.7504         18.2504
  -6298954.18049  -4979530.07146  22163193.4964                   22163191.6294
        43.7504         25.2504
 03  1 16  2  6 59.9960000  0  9G17G15G29G10G30G 6G23G26G18
 -24857522.96949 -21584988.98147  20111799.9264                   20111797.9844
        46.5004         39.2504
 -10098217.03949 -11838670.10147  21736875.2384                   21736874.8594
        45.7504         28.7504
  -3157048.71149  -6736891.33146  22115446.4184                   22115444.6484
        39.2504         19.7504
 -21755472.76249 -17770278.69646  21475430.4884                   21475427.7384
        38.7504         19.0004
 -22438087.55149 -21655034.35747  20926053.6524                   20926051.6064
        48.5004         34.0004
 -33539103.73049 -27637239.42548  18992328.2074                   18992325.1644
        49.5004         41.5004
 -26891066.96149 -20908924.79848  19414595.2624                   19414593.0664
        51.2504         41.0004
   -573450.21149  -6997447.55146  21845225.6214                   21845224.9694
        39.0004         19.0004
  -6430345.46149  -5081912.77346  22138190.3244                   22138188.6094
        43.5004         24.2504
 03  1 16  2  7 29.9960000  0 10G17G15G29G10G30G 6G 5G23G26G18
 -24921645.84449 -21634954.81947  20099597.5744                   20099595.4614
        49.7504         39.0004
 -10197609.90649 -11916118.99647  21717961.9494                   21717960.6524
        45.0004         30.5004
  -3229358.78549  -6793236.82846  22101686.2704                   22101684.2154
        40.2504         18.5004
 -21690047.54349 -17719298.00146  21487880.7544                   21487878.0084
        40.0004         19.7504
 -22369744.74649 -21601780.22147  20939058.7074                   20939056.9414
        48.7504         34.5004
 -33574025.62549 -27664451.27548  18985682.5824                   18985679.4184
        51.5004         41.0004
    265590.89818                  23755548.004
        34.500
 -26947689.79749 -20953046.45448  19403820.2704                   19403817.7704
        50.7504         41.2504
   -676477.12949  -7077728.21446  21825621.1844                   21825619.0044
        39.5004         19.5004
  -6561535.88749  -5184138.99246  22113225.7074                   22113224.0554
        43.5004         24.2504
 03  1 16  2  7 59.9960000  0 10G17G15G29G10G30G 6G 5G23G26G18
 -24985536.86749 -21684740.01547  20087439.5984                   20087437.8204
        49.5004         39.0004
 -10296817.46149 -11993423.51247  21699083.0274                   21699081.6214
        45.7504         29.7504
  -3301262.14149  -6849265.31146  22088003.0204                   22087999.9264
        40.0004         19.0004
 -21624308.71549 -17668072.93346  21500389.7154                   21500387.4814
        38.7504         18.5004
 -22301129.68449 -21548313.95247  20952116.2154                   20952113.5664
        48.7504         34.5004
 -33608535.64849 -27691342.18448  18979115.6764                   18979112.3984
        51.2504         41.5004
    346596.867 8                  23770967.777
        32.500
 -27003770.47749 -20996745.65448  19393148.8324                   19393146.2074
        51.7504         41.5004
   -779188.07049  -7157762.60646  21806076.0204                   21806071.9264
        38.7504         19.0004
  -6692522.27749  -5286206.19146  22088299.7854                   22088297.2734
        43.0004         24.7504
 03  1 16  2  8 29.9960000  0  9G17G15G29G10G30G 6G23G26G18
 -25049195.33249 -21734343.97647  20075325.6994                   20075323.4734
        50.2504         39.2504
 -10395838.78949 -12070582.91547  21680239.7624                   21680237.4964
        45.2504         28.5004
  -3372755.60949  -6904974.39146  22074398.3164                   22074395.1094
        40.2504         19.7504
 -21558258.52049 -17616605.18446  21512959.3404                   21512955.8954
        38.0004         17.7504
 -22232244.60549 -21494637.27747  20965224.2154                   20965221.8134
        48.2504         34.7504
 -33642631.96549 -27717910.72348  18972627.4964                   18972624.3594
        51.5004         41.5004
 -27059307.86749 -21040021.51948  19382580.1914                   19382577.6844
        51.7504         41.0004
   -881578.96949  -7237547.60546  21786590.9184                   21786587.4774
        38.7504         19.5004
  -6823301.96949  -5388112.31347  22063412.5594                   22063410.9184
        43.0004         26.0004
 03  1 16  2  8 59.9960000  0  9G17G15G29G10G30G 6G23G26G18
 -25112626.21149 -21783770.60947  20063255.3874                   20063252.9884
        50.0004         39.2504
 -10494677.66449 -12147600.16247  21661430.8324                   21661428.8204
        45.0004         27.5004
  -3443840.69149  -6960365.37446  22060871.4574                   22060868.6844
        41.5004         20.2504
 -21491903.51649 -17564900.04346  21525586.1134                   21525582.9814
        36.5004         19.0004
 -22163096.44149 -21440755.59047  20978382.4964                   20978380.3954
        48.7504         35.0004
 -33676317.15649 -27744158.91648  18966217.0434                   18966214.1414
        52.0004         41.0004
 -27114305.44949 -21082876.73948  19372114.4024                   19372111.8834
        51.2504         40.7504
   -983650.34849  -7317083.65846  21767166.4494                   21767164.6024
        39.2504         19.7504
  -6953876.33249  -5489858.42246  22038565.0274                   22038563.3874
        43.0004         24.5004
 03  1 16  2  9 29.9960000  0 10G17G15G29G10G30G 6G 5G23G26G18
 -25175826.00849 -21833017.16847  20051229.0744                   20051225.9384
        50.0004         38.7504
 -10593330.69149 -12224472.56847  21642657.8404                   21642655.9304
        45.2504         28.0004
  -3514511.68049  -7015433.57846  22047423.4814                   22047420.3244
        41.2504         20.2504
 -21425243.36749 -17512956.97246  21538271.3164                   21538268.0984
        37.2504         18.5004
 -22093684.85249 -21386668.63347  20991591.7234                   20991589.6724
        49.0004         36.0004
 -33709586.58649 -27770083.11448  18959886.1214                   18959882.9494
        51.5004         41.0004
    105610.64818                  23817191.215
        34.000
 -27168759.52349 -21125308.44748  19361752.0664                   19361749.7234
        51.7504         41.0004
  -1085395.30549  -7396365.30246  21747806.0204                   21747802.9884
        40.0004         20.2504
  -7084240.33249  -5591440.66746  22013757.1214                   22013755.2424
        42.5004         24.5004
 03  1 16  2  9 59.9950000  0 10G17G15G29G10G30G 6G 5G23G26G18
 -25238792.18749 -21882081.68947  20039246.4374                   20039244.4294
        49.5004         38.7504
 -10691794.09449 -12301197.22247  21623920.8584                   21623918.5854
        45.7504         28.5004
  -3584763.61749  -7070175.30346  22034055.2654                   22034052.0934
        42.0004         21.2504
 -21358282.80949 -17460779.87146  21551012.7414                   21551009.5854
        36.0004         16.7504
 -22024014.66049 -21332380.18347  21004849.0544                   21004847.5894
        48.7504         35.2504
 -33742437.56249 -27795681.26648  18953634.8124                   18953632.2304
        51.0004         41.0004
                                  23832560.366
        25.750
 -27222667.67249 -21167314.76948  19351493.7024                   19351490.9174
        51.2504         41.2504
  -1186806.74649  -7475387.20746  21728507.5854                   21728504.0694
        38.2504         20.2504
  -7214386.55549  -5692853.16346  21988991.2804                   21988989.1484
        43.5004         25.5004
 03  1 16  2 10 29.9950000  0  9G17G15G29G10G30G 6G23G26G18
 -25301533.17249 -21930970.73548  20027307.4374                   20027305.2184
        49.2504         39.5004
 -10790077.41849 -12377781.56247  21605218.3124                   21605216.4404
        45.2504         29.2504
  -3654602.03149  -7124594.79946  22020764.9374                   22020762.2614
        41.7504         21.7504
 -21291023.63349 -17408370.12146  21563812.7734                   21563808.5504
        36.7504         17.2504
 -21954087.54349 -21277891.51547  21018155.9524                   21018154.1204
        49.0004         35.0004
 -33774874.36349 -27820956.67048  18947462.0384                   18947459.5074
        50.5004         41.5004
 -27276036.52049 -21208900.86148  19341338.1324                   19341335.4764
        51.5004         41.0004
  -1287891.31249  -7554154.23846  21709271.7654                   21709268.6514
        39.2504         19.7504
  -7344325.17649  -5794103.91046  21964264.2884                   21964262.6204
        42.0004         25.5004
 03  1 16  2 10 59.9950000  0  9G17G15G29G10G30G 6G23G26G18
 -25364043.14149 -21979679.76747  20015412.3354                   20015409.8664
        48.5004         39.0004
 -10888173.91049 -12454220.31947  21586551.6324                   21586549.0114
        45.5004         29.5004
  -3724018.58649  -7178685.55446  22007555.6164                   22007552.9484
        42.0004         24.0004
 -21223467.10249 -17355728.64846  21576668.0854                   21576664.6364
        36.2504         16.2504
 -21883905.13749 -21223203.93647  21031511.4684                   21031509.4094
        49.7504         35.0004
 -33806890.91449 -27845904.62448  18941370.0304                   18941366.9374
        50.7504         41.2504
 -27328860.21549 -21250062.16248  19331285.8984                   19331283.7184
        51.5004         41.0004
  -1388638.30949  -7632658.33246  21690100.7264                   21690097.7884
        40.7504         20.7504
  -7474045.90249  -5895184.83647  21939579.3514                   21939577.6874
        43.2504         26.2504
 03  1 16  2 11 29.9950000  0  9G17G15G29G10G30G 6G23G26G18
 -25426323.12549 -22028209.58947  20003560.6794                   20003558.2574
        48.5004         39.0004
 -10986084.24649 -12530514.03447  21567919.5464                   21567917.3824
        45.2504         30.0004
  -3793011.90249  -7232446.55046  21994426.7734                   21994423.6904
        41.2504         22.5004
 -21155616.76649 -17302858.27046  21589579.0774                   21589574.7924
        36.0004         15.5004
 -21813471.14549 -21168320.31547  21044914.5854                   21044912.3904
        48.7504         34.7504
 -33838486.89549 -27870524.86048  18935356.8904                   18935353.8704
        50.0004         41.0004
 -27381139.40649 -21290799.16848  19321337.5624                   19321334.9804
        51.0004         41.2504
  -1489045.32849  -7710897.49046  21670993.6164                   21670990.7694
        40.2504         19.7504
  -7603547.38749  -5996094.98547  21914936.3124                   21914934.4214
        43.5004         27.2504
 03  1 16  2 11 59.9950000  0  9G17G15G29G10G30G 6G23G26G18
 -25488373.47349 -22076560.47647  19991752.8904                   19991750.5934
        48.7504         39.2504
 -11083807.81249 -12606662.20647  21549322.5694                   21549321.1874
        45.0004         29.5004
  -3861579.14149  -7285875.48946  21981378.7024                   21981375.7184
        41.7504         22.7504
 -21087474.86348 -17249760.62146  21602546.4134                   21602542.6554
        35.7504         16.7504
 -21742788.09049 -21113242.60647  21058365.2184                   21058362.7574
        47.7504         34.0004
 -33869660.57849 -27894816.01248  18929425.1084                   18929421.9294
        49.5004         41.0004
 -27432873.41849 -21331111.35548  19311492.8194                   19311490.2144
        51.0004         41.2504
  -1589108.48049  -7788868.69546  21651951.8124                   21651949.2064
        41.5004         21.0004
  -7732826.90649  -6096832.09847  21890334.9684                   21890332.6874
        42.2504         26.0004
 03  1 16  2 12 29.9950000  0 10G17G15G29G10G30G 6G 5G23G26G18
 -25550195.34449 -22124733.31347  19979988.6084                   19979986.3274
        48.0004         38.7504
 -11181345.49649 -12682665.51947  21530762.0774                   21530760.2144
        45.7504         30.5004
  -3929718.92649  -7338971.33246  21968411.5774                   21968409.8084
        43.0004         24.2504
 -21019045.20749 -17196438.84046  21615567.4214                   21615564.6204
        37.0004         15.5004
 -21671859.74249 -21057973.77347  21071862.3984                   21071859.4214
        47.5004         34.0004
 -33900411.63749 -27918777.86748  18923573.2964                   18923570.0584
        48.7504         41.0004
                                  23909099.249
        32.250
 -27484062.84049 -21370999.19248  19301751.9294                   19301749.0384
        51.2504         41.5004
  -1688825.27049  -7866570.04146  21632976.9604                   21632972.6364
        43.0004         21.0004
  -7861883.39549  -6197395.50347  21865776.1634                   21865773.4764
        43.2504         26.7504
 03  1 16  2 12 59.9950000  0 10G17G15G29G10G30G 6G 5G23G26G18
 -25611787.62549 -22172727.24647  19968267.9374                   19968265.4334
        50.0004         38.7504
 -11278695.76649 -12758522.81247  21512237.1874                   21512235.0774
        46.5004         30.5004
  -3997427.87149  -7391731.50746  21955527.4444                   21955525.0234
        43.5004         24.7504
 -20950329.49648 -17142894.08246  21628643.6794                   21628640.1904
        35.2504         15.5004
 -21600688.12549 -21002515.37547  21085405.7334                   21085403.0344
        47.5004         34.0004
 -33930737.86749 -27942408.67348  18917802.1554                   18917799.1794
        51.0004         41.5004
     96859.781 9                  23924372.187
        36.500
 -27534706.54749 -21410461.79348  19292114.8044                   19292111.6164
        50.5004         41.2504
  -1788191.03549  -7943997.83546  21614068.1164                   21614064.0154
        42.7504         19.7504
  -7990713.53949  -6297782.48647  21841260.8274                   21841258.3004
        44.2504         27.2504
 03  1 16  2 13 29.9950000  0  9G17G15G29G10G30G 6G23G26G18
 -25673152.21549 -22220543.76647  19956590.3984                   19956588.2414
        49.7504         38.5004
 -11375860.55549 -12834235.57847  21493747.5464                   21493744.8554
        46.2504         31.2504
  -4064705.43449  -7444155.53246  21942724.6634                   21942721.8784
        43.0004         25.0004
 -20881332.28149 -17089129.96946  21641774.2734                   21641769.8554
        36.7504         15.5004
 -21529277.79349 -20946870.97147  21098994.3514                   21098991.9684
        47.5004         34.0004
 -33960639.69549 -27965708.79148  18912112.2414                   18912109.3474
        51.0004         41.0004
 -27584806.04749 -21449500.33848  19282580.8824                   19282577.9954
        51.2504         41.2504
  -1887204.23449  -8021150.91446  21595226.7574                   21595223.7764
        43.5004         21.2504
  -8119316.71149  -6397992.59447  21816788.1404                   21816785.7374
        42.0004         26.0004
 03  1 16  2 13 59.9950000  0  9G17G15G29G10G30G 6G23G26G18
 -25734290.62549 -22268184.03247  19944956.2334                   19944954.0344
        50.0004         38.5004
 -11472840.43449 -12909804.22747  21475292.6014                   21475289.7414
        45.5004         29.7504
  -4131550.39149  -7496242.46847  21930004.8984                   21930002.1084
        44.7504         26.5004
 -20812057.23449 -17035149.43046  21654956.3274                   21654953.2184
        36.0004         15.5004
 -21457632.75049 -20891043.66847  21112627.9054                   21112625.5654
        47.5004         34.5004
 -33990117.02749 -27988678.11748  18906502.5384                   18906499.6244
        50.5004         40.2504
 -27634362.08649 -21488115.40648  19273150.5694                   19273147.6404
        51.5004         40.7504
  -1985862.32449  -8098027.29546  21576452.6084                   21576448.7694
        40.2504         20.5004
  -8247691.91849  -6498025.10947  21792358.7654                   21792355.9294
        43.2504         25.7504
 03  1 16  2 14 29.9950000  0  9G17G15G29G10G30G 6G23G26G18
 -25795197.57049 -22315643.93547  19933365.9444                   19933363.9094
        48.7504         38.5004
 -11569629.98449 -12985224.57047  21456874.2804                   21456872.0654
        47.0004         30.7504
  -4197954.85949  -7547986.13547  21917368.4994                   21917366.2764
        45.5004         28.5004
 -20742501.46149 -16980950.09446  21668192.0854                   21668187.9874
        36.7504         14.7504
 -21385750.43449 -20835031.46247  21126306.9294                   21126304.6244
        47.7504         33.7504
 -34019162.98449 -28011311.31948  18900975.3354                   18900972.3554
        49.2504         40.2504
 -27683369.05549 -21526302.61848  19263825.1164                   19263822.0264
        51.5004         41.0004
  -2084156.44149  -8174619.98446  21557747.8584                   21557743.2884
        42.5004         21.5004
  -8375831.21149  -6597873.77047  21767974.7804                   21767971.5194
        43.5004         27.2504
 03  1 16  2 14 59.9950000  0  9G17G15G29G10G30G 6G23G26G18
 -25855870.72749 -22362921.67047  19921820.4524                   19921817.5504
        50.5004         38.7504
 -11666226.18749 -13060494.28547  21438492.1324                   21438490.7104
        45.7504         31.7504
  -4263913.76649  -7599382.62947  21904817.6164                   21904814.3984
        44.2504         28.2504
 -20672665.01248 -16926532.17246  21681482.3274                   21681477.7534
        35.5004         15.5004
 -21313630.77349 -20778834.33947  21140030.6874                   21140028.6874
        48.2504         34.0004
 -34047773.57049 -28033605.26348  18895531.1874                   18895528.3434
        51.5004         40.5004
 -27731823.78949 -21564059.54048  19254604.1714                   19254601.3474
        51.0004         41.2504
  -2182080.06249  -8250924.05046  21539113.5774                   21539110.6324
        42.2504         22.0004
  -8503729.76249  -6697534.83647  21743636.4834                   21743633.2734
        43.0004         26.2504
 03  1 16  2 15 29.9950000  0  9G17G15G29G10G30G 6G23G26G18
 -25916306.29349 -22410014.27147  19910319.6714                   19910317.0694
        49.5004         39.0004
 -11762625.42649 -13135610.49847  21420148.0384                   21420146.4374
        44.5004         32.0004
  -4329421.52349  -7650427.58447  21892351.8194                   21892348.2264
        45.0004         28.0004
 -20602547.29348 -16871894.91046  21694825.3354                   21694820.8274
        33.5004         14.7504
 -21241273.29749 -20722451.88447  21153799.7334                   21153797.9294
        48.2504         34.2504
 -34075944.12949 -28055556.32648  18890170.3434                   18890167.5194
        50.0004         40.7504
 -27779722.82049 -21601383.43048  19245489.4764                   19245486.4254
        50.5004         41.2504
  -2279626.52049  -8326934.21246  21520550.5694                   21520548.3784
        41.0004         22.5004
  -8631381.76649  -6797003.80247  21719344.7884                   21719341.5344
        43.5004         26.2504
 03  1 16  2 15 59.9950000  0  9G17G15G29G10G30G 6G23G26G18
 -25976507.38749 -22456924.16147  19898863.7414                   19898861.2104
        50.0004         38.2504
 -11858830.23849 -13210575.22347  21401840.8514                   21401839.2064
        46.2504         32.5004
  -4394478.32849  -7701121.14147  21879971.4524                   21879968.7614
        44.0004         28.2504
 -20532153.75848 -16817042.78546  21708219.4524                   21708216.2144
        35.7504         13.7504
 -21168683.50449 -20665888.42447  21167613.2494                   21167611.4804
        48.2504         33.5004
 -34103676.15249 -28077165.68348  18884893.0934                   18884890.1594
        50.2504         40.7504
 -27827068.59049 -21638276.21848  19236479.7024                   19236476.9994
        51.2504         41.0004
  -2376795.11349  -8402649.88146  21502060.6554                   21502059.4834
        43.5004         22.7504
  -8758787.81649  -6896281.13347  21695100.6324                   21695097.6084
        44.5004         26.2504
 03  1 16  2 16 29.9950000  0  9G17G15G29G10G30G 6G23G26G18
 -26036476.58649 -22503653.35547  19887451.6714                   19887449.2224
        50.2504         38.7504
 -11954842.52349 -13285389.92747  21383570.2804                   21383568.2264
        46.0004         32.0004
  -4459084.28149  -7751463.39647  21867677.2024                   21867673.9054
        44.5004         27.0004
 -20461488.992 8                  21721666.983
        35.750
 -21095866.44149 -20609147.85047  21181470.4294                   21181467.8554
        47.7504         34.7504
 -34130970.43449 -28098433.93448  18879699.3194                   18879696.4914
        50.7504         40.7504
 -27873863.17249 -21674739.50348  19227574.9764                   19227572.2534
        50.5004         41.0004
  -2473584.27749  -8478069.97846  21483641.7024                   21483639.6014
        44.0004         22.5004
  -8885947.41049  -6995366.43147  21670903.2104                   21670899.8984
        44.5004         26.5004
 03  1 16  2 16 59.9950000  0  9G17G15G29G10G30G 6G23G26G18
 -26096212.40649 -22550200.71947  19876084.6634                   19876082.2764
        49.5004         38.2504
 -12050660.68449 -13360053.36047  21365336.7494                   21365334.7694
        46.2504         32.7504
  -4523235.38349  -7801451.22647  21855469.4994                   21855466.5194
        42.5004         28.2504
 -20390554.098 8                  21735166.288
        34.750
 -21022823.38749 -20552231.17847  21195369.7804                   21195367.1124
        47.2504         33.5004
 -34157824.36349 -28119359.05348  18874588.7884                   18874586.2024
        50.5004         40.5004
 -27920104.90649 -21710771.99748  19218775.4684                   19218772.8624
        51.2504         41.0004
  -2569989.23049  -8553190.61246  21465296.3274                   21465293.5464
        43.7504         22.2504
  -9012857.07449  -7094256.95147  21646752.5774                   21646749.8944
        43.7504         28.5004
 03  1 16  2 17 29.9950000  0  9G17G15G29G10G30G 6G23G26G18
 -26155716.13349 -22596567.20848  19864761.4214                   19864758.9804
        51.0004         39.5004
 -12146285.35249 -13434566.03547  21347139.6794                   21347138.0234
        46.7504         32.0004
  -4586930.18749  -7851083.49147  21843349.0464                   21843345.9334
        44.5004         28.2504
 -20319352.418 8                  21748715.273
        35.500
 -20949558.12149 -20495141.37247  21209311.5234                   21209309.0074
        47.0004         34.0004
 -34184237.55149 -28139940.74348  18869562.6014                   18869559.7494
        51.5004         40.5004
 -27965794.52749 -21746374.27348  19210081.1944                   19210078.3194
        50.7504         41.5004
  -2666007.09449  -8628009.67146  21447024.6084                   21447021.9014
        44.0004         22.5004
  -9139515.52749  -7192951.70947  21622650.0384                   21622647.6634
        44.0004         28.0004
 03  1 16  2 17 59.9950000  0  9G17G15G29G10G30G 6G23G26G18
 -26214988.50849 -22642753.43947  19853481.9374                   19853479.7374
        50.7504         39.0004
 -12241716.82049 -13508928.15647  21328979.6014                   21328977.5734
        45.7504         32.2504
  -4650167.40649  -7900359.19147  21831315.2024                   21831312.2374
        44.2504         28.5004
 -20247887.484 8                  21762315.077
        34.500
 -20876074.13349 -20437881.13047  21223294.9214                   21223293.2374
        46.0004         33.0004
 -34210209.28549 -28160178.44348  18864620.5234                   18864617.6284
        51.2504         41.0004
 -28010932.55549 -21781546.73148  19201491.5774                   19201488.6244
        51.0004         41.0004
  -2761635.25449  -8702525.07446  21428826.8514                   21428826.3824
        43.0004         22.0004
  -9265921.12549  -7291449.48547  21598595.8194                   21598593.9254
        43.5004         29.0004
 03  1 16  2 18 29.9950000  0  9G17G15G29G10G30G 6G23G26G18
 -26274033.07449 -22688762.14648  19842246.2264                   19842243.9834
        51.0004         39.5004
 -12336958.28149 -13583142.22247  21310855.6794                   21310854.3394
        47.0004         32.5004
  -4712948.03149  -7949279.12647  21819368.1944                   21819365.6284
        44.2504         28.5004
 -20176165.141 8                  21775962.648
        35.250
 -20802377.55949 -20380455.22747  21237318.9054                   21237316.6984
        47.0004         32.7504
 -34235741.67249 -28180073.78848  18859761.6944                   18859758.8084
        51.0004         41.2504
 -28055522.19549 -21816291.88648  19193006.5304                   19193003.7574
        51.0004         41.7504
  -2856873.55549  -8776736.65446  21410703.9914                   21410703.0344
        41.2504         22.2504
  -9392075.14849  -7389751.22647  21574589.5624                   21574587.1484
        44.5004         28.5004
 03  1 16  2 18 59.9950000  0  9G17G15G29G10G30G 6G23G26G18
 -26332846.08249 -22734590.43147  19831054.4134                   19831052.0544
        51.0004         38.7504
 -12432006.05949 -13657205.36147  21292768.6404                   21292767.1364
        47.0004         32.5004
  -4775266.10949  -7997838.62547  21807509.7184                   21807506.5114
        45.5004         28.7504
 -20104184.762 8                  21789659.874
        34.500
 -20728467.59849 -20322863.06947  21251383.6404                   21251381.3624
        46.0004         33.0004
 -34260829.96949 -28199623.09548  18854987.6014                   18854984.5734
        51.5004         41.0004
 -28099559.90649 -21850606.95748  19184626.0304                   19184623.4804
        51.2504         41.2504
  -2951714.95749  -8850639.01546  21392655.9374                   21392653.4914
        42.5004         22.7504
  -9517971.50449  -7487852.18747  21550632.3744                   21550630.0154
        45.2504         28.2504
 03  1 16  2 19 29.9950000  0  9G17G15G29G10G30G 6G23G26G18
 -26391430.03949 -22780240.23747  19819906.3434                   19819904.1324
        51.5004         38.7504
 -12526861.68449 -13731118.77747  21274718.0384                   21274716.9014
        46.5004         32.7504
  -4837121.43449  -8046037.54247  21795739.0774                   21795736.1874
        45.5004         28.2504
 -20031950.742 9                  21803405.546
        36.500
 -20654349.07849 -20265108.37747  21265487.6554                   21265485.9644
        47.5004         32.2504
 -34285475.02749 -28218827.01548  18850297.8584                   18850294.9724
        52.0004         41.0004
 -28143047.59849 -21884493.45148  19176350.9134                   19176348.1124
        51.0004         40.7504
  -3046158.09449  -8924230.95646  21374684.3194                   21374682.3274
        42.2504         22.0004
  -9643610.02049  -7585752.22247  21526723.8124                   21526721.6944
        44.0004         28.5004
 03  1 16  2 19 59.9950000  0  9G17G15G29G10G30G 6G23G26G18
 -26449787.21149 -22825713.31447  19808801.5854                   19808799.0654
        51.7504         39.2504
 -12621527.54749 -13804884.33647  21256704.3194                   21256702.7534
        47.7504         32.7504
  -4898514.46949  -8093876.21547  21784055.8824                   21784053.5114
        44.5004         29.0004
 -19959468.035 8                  21817198.991
        34.500
 -20580027.50849 -20207195.48847  21279630.6404                   21279629.0654
        47.0004         31.5004
 -34309678.12549 -28237686.55548  18845692.3824                   18845689.2884
        51.7504         40.7504
 -28185987.74649 -21917953.27748  19168179.6714                   19168176.8584
        52.0004         40.7504
  -3140201.83249  -8997511.77046  21356788.7184                   21356786.3944
        41.7504         22.2504
  -9768991.06649  -7683451.65047  21502864.4134                   21502862.1164
        44.5004         27.7504
 03  1 16  2 20 29.9950000  0  9G17G15G29G10G30G 6G23G26G18
 -26507920.28149 -22871011.77748  19797738.9604                   19797736.5234
        51.0004         40.2504
 -12716005.49649 -13878503.49347  21238725.1164                   21238723.9134
        48.0004         33.2504
  -4959445.10549  -8141354.59647  21772461.1084                   21772458.5034
        43.7504         27.2504
 -19886741.574 8                  21831037.952
        31.000
 -20505507.73449 -20149128.13747  21293811.4294                   21293809.7264
        47.2504         32.2504
 -34333440.14849 -28256202.40248  18841170.4764                   18841167.4134
        51.0004         41.2504
 -28228382.39849 -21950988.05248  19160112.4134                   19160109.2964
        51.7504         40.7504
  -3233844.90249  -9070480.33846  21338967.8044                   21338966.6164
        39.2504         21.5004
  -9894114.43449  -7780950.28747  21479053.9914                   21479051.6594
        45.5004         30.0004
 03  1 16  2 20 59.9950000  0  9G17G15G29G10G30G 6G23G26G18
 -26565827.50449 -22916134.25848  19786719.6084                   19786717.3584
        51.5004         39.5004
 -12810293.75849 -13951974.83847  21220782.6554                   21220781.4254
        46.5004         32.5004
  -5019909.50449  -8188469.66047  21760954.8984                   21760952.5624
        44.0004         27.7504
 -19813772.184 8                  21844923.835
        35.000
 -20430790.79349 -20090907.16247  21308029.5464                   21308027.9644
        47.0004         32.0004
 -34356758.25449 -28274372.32848  18836733.1714                   18836730.2764
        51.0004         41.2504
 -28270230.00849 -21983596.54848  19152149.0544                   19152145.9874
        51.5004         41.0004
  -3327082.27349  -9143132.75646  21321225.1324                   21321224.0034
        36.5004         21.7504
 -10018976.12949  -7878245.02147  21455293.8744                   21455291.2734
        45.5004         28.7504
 03  1 16  2 21 29.9950000  0  9G17G15G29G10G30G 6G23G26G18
 -26623509.82049 -22961081.47448  19775743.1164                   19775740.3314
        51.7504         40.0004
 -12904393.11349 -14025298.99147  21202875.8584                   21202874.4644
        46.2504         31.5004
  -5079906.50449  -8235220.54047  21749537.6554                   21749535.4604
        42.7504         28.0004
 -19740563.465 8                  21858855.288
        35.250
 -20355880.52749 -20032535.52647  21322284.2734                   21322283.0894
        47.2504         31.0004
 -34379632.16849 -28292196.14248  18832380.3824                   18832377.6054
        51.5004         41.0004
 -28311531.55549 -22015779.54848  19144289.2654                   19144286.6834
        51.5004         40.5004
  -3419911.42249  -9215467.11346  21303560.7184                   21303559.6594
        38.7504         21.0004
 -10143574.86349  -7975334.84547  21431583.1324                   21431580.3354
        46.2504         28.5004
 03  1 16  2 21 59.9950000  0  9G17G15G29G10G30G 6G23G26G18
 -26680968.26649 -23005854.26348  19764808.9134                   19764806.7614
        52.2504         40.5004
 -12998303.92249 -14098476.20047  21185005.2184                   21185003.7264
        47.2504         32.0004
  -5139434.31249  -8281605.78847  21738209.8044                   21738206.7104
        44.5004         28.0004
 -19667118.746 8                  21872830.577
        35.000
 -20280780.32449 -19974015.87647  21336575.5154                   21336574.3354
        47.5004         31.0004
 -34402061.37949 -28309673.43048  18828112.3124                   18828109.1054
        51.7504         40.7504
 -28352287.54749 -22047537.44048  19136533.6244                   19136530.9294
        51.7504         40.5004
  -3512329.47749  -9287481.14646  21285973.7964                   21285972.0624
        38.0004         21.2504
 -10267909.18749  -8072218.67647  21407923.5234                   21407920.5424
        46.0004         29.2504
 03  1 16  2 22 29.9950000  0  9G17G15G29G10G30G 6G23G26G18
 -26738202.73849 -23050452.52048  19753917.7414                   19753915.2414
        51.5004         40.2504
 -13092025.89149 -14171506.28147  21167170.6084                   21167169.5624
        47.0004         31.7504
  -5198490.92649  -8327623.87247  21726972.0384                   21726968.9484
        44.2504         27.5004
 -19593440.461 9                  21886851.546
        36.250
 -20205492.88349 -19915350.35347  21350902.2334                   21350900.6514
        46.2504         30.5004
 -34424044.69549 -28326803.28448  18823928.8354                   18823926.1124
        51.7504         41.5004
 -28392498.05549 -22078870.27448  19128881.9834                   19128878.8004
        51.7504         40.7504
  -3604332.85549  -9359172.02446  21268466.3194                   21268463.8784
        39.0004         20.7504
 -10391976.61749  -8168894.50647  21384313.8584                   21384311.0654
        46.0004         30.2504
 03  1 16  2 22 59.9950000  0  9G17G15G29G10G30G 6G23G26G18
 -26795210.02349 -23094873.75048  19743069.5694                   19743066.8554
        50.5004         40.2504
 -13185555.47349 -14244386.43547  21149373.0234                   21149370.8394
        47.0004         32.2504
  -5257070.99649  -8373270.67947  21715825.6944                   21715821.3274
        39.7504         28.0004
 -19519527.684 8                  21900917.241
        35.500
 -20130017.81649 -19856538.63147  21365264.7734                   21365263.1084
        46.0004         30.0004
 -34445577.52749 -28343582.09248  18819831.5854                   18819828.2304
        51.7504         40.7504
 -28432159.80149 -22109775.50148  19121334.4604                   19121332.1164
        51.7504         40.7504
  -3695914.94549  -9430534.61746  21251038.6324                   21251036.1514
        39.0004         20.2504
 -10515771.75849  -8265358.18547  21360756.4604                   21360753.8624
        46.5004         29.7504
 03  1 16  2 23 29.9950000  0  9G17G15G29G10G30G 6G23G26G18
 -26851992.58249 -23139119.85048  19732264.1084                   19732261.8194
        52.0004         40.2504
 -13278894.21949 -14317117.91847  21131610.7024                   21131608.9094
        47.5004         32.0004
  -5315174.41449  -8418545.98647  21704768.1484                   21704764.7304
        45.2504         28.0004
 -19445385.047 8                  21915025.827
        33.250
 -20054359.76249 -19797584.29647  21379661.5304                   21379659.9294
        45.7504         29.7504
 -34466660.94149 -28360010.70848  18815819.2264                   18815815.9524
        51.5004         40.0004
 -28471274.87549 -22140254.74948  19113891.3194                   19113888.3984
        51.0004         41.2504
  -3787074.48449  -9501568.00546  21233691.0854                   21233690.7764
        37.2504         20.2504
 -10639294.41849  -8361609.55447  21337251.1404                   21337248.2844
        47.0004         30.7504
 03  1 16  2 23 59.9950000  0  9G17G15G29G10G30G 6G23G26G18
 -26908553.82049 -23183193.51948  19721500.7264                   19721498.2924
        52.5004         40.0004
 -13372045.32449 -14389703.17547  21113884.3124                   21113882.9334
        47.2504         31.7504
  -5372802.41449  -8463450.87647  21693801.9604                   21693798.3274
        44.7504         29.2504
 -19371018.312 8                  21929177.374
        32.000
 -19978524.93749 -19738492.23147  21394092.6244                   21394090.7884
        46.2504         29.5004
 -34487297.02749 -28376090.76348  18811892.4914                   18811889.2614
        51.5004         40.5004
 -28509846.79749 -22170310.77748  19106551.1634                   19106548.5344
        51.5004         41.0004
  -3877811.36749  -9572272.00246  21216424.0624                   21216423.3084
        38.0004         20.5004
 -10762545.75849  -8457649.49647  21313796.9684                   21313794.1444
        47.0004         31.0004
 03  1 16  2 24 29.9950000  0  9G17G15G29G10G30G 6G23G26G18
 -26964892.01249 -23227093.35648  19710780.2184                   19710777.4644
        51.7504         40.0004
 -13465007.50449 -14462141.21547  21096194.7414                   21096192.8314
        46.7504         32.0004
  -5429951.64549  -8507982.70447  21682926.2734                   21682923.1404
        45.5004         28.7504
 -19296428.918 8                  21943368.655
        29.000
 -19902514.83249 -19679263.59247  21408556.6874                   21408555.1714
        45.0004         29.7504
 -34507483.27749 -28391820.28148  18808051.1634                   18808047.8434
        51.5004         40.2504
 -28547874.38749 -22199942.63148  19099314.7734                   19099312.0734
        52.0004         41.0004
  -3968120.89149  -9642643.03746  21199237.7494                   21199238.0854
        37.7504         19.7504
 -10885522.03949  -8553475.11347  21290395.0934                   21290392.0854
        46.5004         30.5004
 03  1 16  2 24 59.9950000  0  9G17G15G29G10G30G 6G23G26G18
 -27021008.45349 -23270820.40948  19700101.5544                   19700098.7414
        51.5004         40.5004
 -13557781.08649 -14534432.29247  21078540.3824                   21078538.4604
        46.5004         32.5004
  -5486620.73049  -8552140.42547  21672142.8194                   21672139.6944
        44.7504         28.0004
 -19221619.875 8                  21957606.077
        31.500
 -19826333.01249 -19619901.14747  21423053.2884                   21423052.0034
        44.5004         28.2504
 -34527219.35949 -28407199.03748  18804295.3584                   18804292.3744
        51.7504         39.7504
 -28585358.41849 -22229150.94848  19092181.7884                   19092178.5424
        51.5004         40.7504
  -4058000.44149  -9712679.02746  21182135.4764                   21182133.2534
        39.2504         21.5004
 -11008221.85549  -8649085.28647  21267045.9764                   21267042.9804
        46.2504         30.5004
 03  1 16  2 25 29.9950000  0  9G17G15G29G10G30G 6G23G26G18
 -27076903.04349 -23314374.59148  19689465.1404                   19689462.5544
        52.2504         40.7504
 -13650365.55149 -14606576.01147  21060921.8434                   21060920.6634
        47.2504         32.5004
  -5542807.22349  -8595922.01447  21661450.3044                   21661447.3274
        45.2504         28.2504
 -19146593.629 8                  21971882.171
        29.750
 -19749981.77749 -19560406.73647  21437582.2964                   21437581.6634
        44.5004         27.5004
 -34546503.90249 -28422225.93748  18800625.9444                   18800622.6834
        51.7504         40.2504
 -28622298.74249 -22257935.58648  19085152.3664                   19085149.3044
        50.7504         40.5004
  -4147446.09849  -9782376.89746  21165115.5154                   21165113.2764
        42.0004         24.0004
 -11130642.78149  -8744478.14147  21243750.2104                   21243747.6714
        46.5004         30.7504
 03  1 16  2 25 59.9950000  0  9G17G15G29G10G30G 6G23G26G18
 -27132575.50849 -23357755.68248  19678871.0154                   19678868.1164
        51.5004         40.2504
 -13742760.23049 -14678571.83847  21043340.0624                   21043338.0114
        47.2504         32.7504
  -5598508.87549  -8639325.87747  21650850.6404                   21650847.4444
        44.7504         27.5004
 -19071352.129 8                  21986200.187
        28.000
 -19673463.64149 -19500782.21047  21452143.5854                   21452142.3944
        43.2504         28.2504
 -34565335.41849 -28436899.83048  18797042.0774                   18797039.1554
        51.0004         40.0004
 -28658695.14549 -22286296.38348  19078226.3434                   19078223.0854
        51.2504         40.2504
  -4236454.32049  -9851733.89846  21148177.6714                   21148175.1904
        41.2504         23.7504
 -11252782.23849  -8839651.68047  21220507.7964                   21220505.1444
        47.0004         31.0004
 03  1 16  2 26 29.9950000  0  9G17G15G29G10G30G 6G23G26G18
 -27188026.38349 -23400964.12248  19668318.8984                   19668316.4604
        52.2504         40.7504
 -13834965.29349 -14750419.90847  21025794.0624                   21025792.1204
        47.2504         33.5004
  -5653724.04349  -8682350.62847  21640343.9524                   21640340.1984
        44.5004         27.0004
 -18995898.54318                  22000558.827
        28.750
 -19596781.79349 -19441030.13647  21466735.5154                   21466735.0074
        43.0004         28.0004
 -34583713.28549 -28451220.21848  18793544.8664                   18793541.8944
        51.7504         41.0004
 -28694548.31649 -22314233.90148  19071403.6484                   19071400.7224
        51.5004         40.2504
  -4325022.18049  -9920747.76146  21131323.8984                   21131321.3584
        43.2504         24.0004
 -11374638.34449  -8934604.42547  21197319.5544                   21197316.3744
        47.7504         31.0004
 03  1 16  2 26 59.9950000  0  9G17G15G29G10G30G 6G23G26G18
 -27243256.71949 -23444000.70548  19657808.9524                   19657806.2144
        51.5004         40.7504
 -13926981.71949 -14822120.98647  21008283.9764                   21008281.4524
        47.7504         34.0004
  -5708452.06249  -8724995.78447  21629929.4524                   21629925.7184
        44.7504         26.0004
 -18920236.59818                  22014955.491
        30.250
 -19519940.20349 -19381153.60247  21481358.1084                   21481357.5694
        44.0004         28.2504
 -34601637.60549 -28465187.20348  18790133.9444                   18790131.0194
        51.5004         40.0004
 -28729859.77749 -22341749.29348  19064684.1484                   19064681.2694
        51.7504         40.5004
  -4413147.44549  -9989416.76046  21114554.1484                   21114551.8194
        43.0004         24.5004
 -11496210.24649  -9029335.70147  21174185.1554                   21174181.9014
        46.7504         30.7504
 03  1 16  2 27 29.9950000  0  9G17G15G29G10G30G 6G23G26G18
 -27298266.19949 -23486865.19348  19647340.8664                   19647338.3984
        51.0004         40.5004
 -14018808.87549 -14893674.58047  20990809.6634                   20990807.5814
        47.7504         33.5004
  -5762690.44949  -8767259.43547  21619608.2964                   21619604.9914
        45.2504         28.5004
 -18844368.14117                  22029394.601
        27.250
 -19442941.18449 -19321154.40147  21496010.3044                   21496009.8044
        43.7504         28.0004
 -34619106.70349 -28478799.47948  18786809.5624                   18786806.4374
        50.5004         40.2504
 -28764629.12949 -22368842.26948  19058067.5544                   19058064.5504
        51.7504         40.2504
  -4500826.34849 -10057737.89846  21097869.4914                   21097866.8084
        43.0004         24.5004
 -11617495.44149  -9123843.56747  21151104.9134                   21151102.0264
        46.5004         31.2504
 03  1 16  2 27 59.9950000  0  9G17G15G29G10G30G 6G23G26G18
 -27353055.80149 -23529558.34948  19636914.6164                   19636912.2064
        51.5004         40.5004
 -14110447.27349 -14965081.05347  20973371.2804                   20973369.3944
        46.7504         33.5004
  -5816438.07849  -8809140.62647  21609379.8664                   21609377.2064
        45.2504         28.5004
 -18768296.629 8                  22043871.780
        29.250
 -19365788.31649 -19261035.28147  21510692.3824                   21510691.4804
        43.5004         26.2504
 -34636120.37549 -28492056.87248  18783571.8434                   18783568.8904
        51.0004         39.7504
 -28798857.68449 -22395513.83548  19051553.9524                   19051551.0854
        51.2504         40.7504
  -4588056.58649 -10125709.49947  21081269.7264                   21081268.2104
        42.0004         26.2504
 -11738492.37549  -9218126.82147  21128080.6014                   21128076.9094
        47.2504         31.7504
 03  1 16  2 28 29.9950000  0  9G17G15G29G10G30G 6G23G26G18
 -27407626.04749 -23572080.58248  19626530.4214                   19626527.6514
        50.5004         40.5004
 -14201897.07049 -15036340.59947  20955969.2184                   20955967.4014
        46.5004         33.7504
  -5869693.48449  -8850638.29747  21599245.6794                   21599243.0234
        40.7504         27.0004
 -18692024.625 8                  22058385.452
        28.500
 -19288484.60949 -19200798.63847  21525402.8354                   21525401.6084
        43.5004         27.0004
 -34652677.84849 -28504958.76848  18780421.3354                   18780418.2614
        51.0004         39.5004
 -28832546.00049 -22421764.44548  19045143.5624                   19045140.3154
        50.5004         40.2504
  -4674835.00449 -10193328.94846  21064755.8984                   21064754.8554
        41.5004         25.5004
 -11859199.28549  -9312184.08947  21105110.8434                   21105106.8044
        47.0004         31.5004
 03  1 16  2 28 59.9950000  0  9G17G15G29G10G30G 6G23G26G18
 -27461976.98849 -23614431.92548  19616187.6634                   19616184.8944
        50.5004         40.5004
 -14293158.07449 -15107453.01647  20938602.3904                   20938600.9804
        45.2504         33.2504
  -5922454.60549  -8891750.79647  21589205.2574                   21589202.5504
        42.5004         27.7504
 -18615554.87518                  22072936.140
        30.000
 -19211033.20349 -19140446.89347  21540141.5384                   21540139.6754
        44.0004         26.2504
 -34668778.24249 -28517504.50448  18777357.4374                   18777354.3044
        51.0004         39.5004
 -28865694.40649 -22447594.34648  19038835.2264                   19038832.4724
        51.0004         40.0004
  -4761158.51649 -10260593.97847  21048329.5464                   21048327.8394
        42.7504         26.5004
 -11979614.02749  -9406013.68747  21082196.4604                   21082193.1834
        45.2504         32.0004
 03  1 16  2 29 29.9950000  0  9G17G15G29G10G30G 6G23G26G18
 -27516108.59049 -23656612.35148  19605886.8434                   19605883.8744
        51.0004         41.0004
 -14384230.22749 -15178418.27747  20921272.4684                   20921270.0384
        45.2504         34.0004
  -5974719.70749  -8932476.78447  21579259.8274                   21579256.9834
        45.2504         27.2504
 -18538889.641 8                  22087526.054
        29.500
 -19133436.52049 -19079981.94847  21554907.8584                   21554906.0034
        44.5004         28.7504
 -34684420.77049 -28529693.47348  18774380.3904                   18774377.4764
        51.2504         39.7504
 -28898303.15649 -22473003.73148  19032629.9524                   19032627.2764
        50.0004         40.7504
  -4847023.84049 -10327501.97947  21031990.0854                   21031987.1944
        42.7504         26.5004
 -12099734.58249  -9499614.04047  21059338.2964                   21059334.6014
        44.0004         32.2504
 03  1 16  2 29 59.9950000  0  9G17G15G29G10G30G 6G23G26G18
 -27570022.12949 -23698622.85348  19595627.4604                   19595624.4214
        50.7504         40.2504
 -14475114.26649 -15249236.93747  20903977.5544                   20903975.3864
        45.0004         34.7504
  -6026487.85549  -8972815.54947  21569408.6324                   21569406.1944
        41.5004         27.7504
 -18462032.69518                  22102151.882
        29.500
 -19055698.42249 -19019406.82547  21569700.4604                   21569699.1124
        43.5004         26.0004
 -34699605.30149 -28541525.55548  18771491.3664                   18771488.4294
        51.2504         39.7504
 -28930373.67249 -22497993.71448  19026527.3044                   19026524.2024
        49.5004         40.5004
  -4932428.71949 -10394051.18047  21015738.5854                   21015735.5654
        44.0004         27.0004
 -12219559.82849  -9592984.29647  21036535.9914                   21036532.4914
        45.7504         31.0004
 03  1 16  2 30 29.9950000  0  8G17G15G29G30G 6G23G26G18
 -27623717.53549 -23740463.39148  19585409.3744                   19585406.6794
        50.7504         40.0004
 -14565809.23849 -15319908.28447  20886718.9684                   20886717.0264
        47.0004         34.5004
  -6077756.52049  -9012765.10947  21559652.3274                   21559650.1324
        45.5004         29.0004
 -18977820.99249 -18958723.15847  21584520.6714                   21584518.8664
        43.0004         26.0004
 -34714330.09449 -28552999.39748  18768688.9994                   18768686.2184
        51.0004         39.7504
 -28961905.67649 -22522564.07248  19020526.9054                   19020523.9684
        50.5004         40.2504
  -5017369.18749 -10460238.48447  20999574.2494                   20999571.9604
        43.0004         26.0004
 -12339086.78549  -9686122.13847  21013790.4054                   21013787.3124
        45.7504         32.0004
 03  1 16  2 30 59.9950000  0  8G17G15G29G30G 6G23G26G18
 -27677195.39849 -23782134.41048  19575232.9134                   19575230.0424
        51.0004         40.2504
 -14656316.04749 -15390432.99247  20869496.4214                   20869494.2334
        46.7504         35.5004
  -6128525.19149  -9052325.05447  21549991.4524                   21549989.3354
        44.7504         29.2504
 -18899808.43449 -18897934.17747  21599366.0304                   21599364.5074
        41.5004         26.5004
 -34728595.58249 -28564115.34148  18765974.8434                   18765971.8044
        50.7504         40.5004
 -28992900.75449 -22546716.04648  19014628.7734                   19014625.5814
        50.0004         40.5004
  -5101843.25849 -10526062.36047  20983499.2964                   20983497.3084
        44.5004         28.0004
 -12458314.73049  -9779026.96447  20991102.4444                   20991098.8784
        44.0004         32.2504
 03  1 16  2 31 29.9950000  0  8G17G15G29G30G 6G23G26G18
 -27730455.48849 -23823635.73648  19565097.7264                   19565095.1054
        50.7504         40.5004
 -14746633.94949 -15460810.49147  20852308.4054                   20852306.8704
        47.0004         34.5004
  -6178791.46549  -9091493.50947  21540426.0154                   21540423.7024
        44.7504         28.0004
 -18821662.66849 -18837041.36046  21614236.1794                   21614234.5624
        41.0004         24.5004
 -34742400.13349 -28574872.11348  18763347.5774                   18763344.2184
        51.2504         40.2504
 -29023358.71149 -22570449.48048  19008832.9374                   19008829.5264
        50.5004         40.5004
  -5185847.17249 -10591519.91447  20967513.8274                   20967511.9404
        44.0004         27.2504
 -12577240.91049  -9871696.65947  20968471.5464                   20968467.8434
        45.7504         32.5004
 03  1 16  2 31 59.9950000  0  8G17G15G29G30G 6G23G26G18
 -27783495.80549 -23864965.82148  19555004.6324                   19555001.5194
        51.5004         40.0004
 -14836760.52749 -15531038.93047  20835158.4684                   20835156.4054
        46.5004         33.5004
  -6228551.48449  -9130267.50047  21530956.8514                   21530954.8084
        46.2504         28.7504
 -18743384.43749 -18776045.36346  21629131.8194                   21629130.5154
        41.2504         24.0004
 -34755740.66849 -28585267.30748  18760809.0934                   18760806.1054
        51.7504         40.0004
 -29053277.84049 -22593763.05848  19003139.3354                   19003136.4994
        49.5004         40.5004
  -5269375.51649 -10656606.88047  20951618.8744                   20951617.2064
        44.0004         28.0004
 -12695861.08649  -9964127.90647  20945898.8984                   20945894.7454
        46.0004         32.5004
 03  1 16  2 32 29.9950000  0  8G17G15G29G30G 6G23G26G18
 -27836321.16049 -23906128.39948  19544951.9374                   19544949.5734
        50.7504         40.2504
 -14926700.00049 -15601121.54747  20818043.3664                   20818040.8354
        46.0004         34.0004
  -6277808.10949  -9168649.24647  21521583.4214                   21521581.1444
        45.0004         29.5004
 -18664981.09049 -18714951.86546  21644051.4444                   21644049.8514
        39.5004         25.2504
 -34768620.85549 -28595303.79948  18758357.8984                   18758354.7184
        51.0004         40.5004
 -29082663.18449 -22616660.69548  18997547.3744                   18997544.1904
        49.0004         40.5004
  -5352429.80949 -10721324.45147  20935814.1244                   20935811.7264
        44.0004         26.0004
 -12814177.82449 -10056322.73447  20923383.9994                   20923380.3394
        45.2504         34.0004
 03  1 16  2 32 59.9950000  0  8G17G15G29G30G 6G23G26G18
 -27888930.32449 -23947122.51648  19534940.5934                   19534938.0544
        51.0004         40.0004
 -15016451.18449 -15671057.45247  20800964.2654                   20800961.9804
        47.5004         34.7504
  -6326558.35549  -9206636.43247  21512306.4214                   21512303.7374
        44.2504         28.0004
 -18586454.23849 -18653762.11746  21658994.4214                   21658993.5934
        38.2504         22.5004
 -34781038.69949 -28604980.02348  18755994.9914                   18755991.5894
        51.5004         40.5004
 -29111514.16849 -22639141.93448  18992057.1404                   18992054.4094
        49.5004         40.5004
  -5435005.71549 -10785669.27547  20920100.5384                   20920098.7694
        44.5004         27.5004
 -12932187.92249 -10148278.59147  20900927.2414                   20900923.9604
        47.0004         34.0004
 03  1 16  2 33 29.9950000  0  8G17G15G29G30G 6G23G26G18
 -27941323.23849 -23987948.12548  19524970.8904                   19524967.8744
        50.7504         40.0004
 -15106013.67249 -15740846.31247  20783920.8274                   20783918.8864
        46.2504         34.5004
  -6374800.22349  -9244227.44547  21503126.5234                   21503123.5264
        45.0004         26.5004
 -18507806.25749 -18592477.96046  21673960.6634                   21673959.8434
        39.2504         22.7504
 -34792992.90649 -28614294.96048  18753720.2184                   18753717.0654
        50.5004         40.0004
 -29139830.87149 -22661206.86348  18986668.6324                   18986666.0624
        49.5004         40.5004
  -5517099.89849 -10849638.73447  20904478.3044                   20904477.8584
        44.5004         26.5004
 -13049889.02049 -10239993.68147  20878529.4214                   20878526.1634
        47.0004         33.5004
 03  1 16  2 33 59.9950000  0  8G17G15G29G30G 6G23G26G18
 -27993498.50449 -24028604.13748  19515042.3584                   19515039.1794
        51.0004         40.5004
 -15195385.94949 -15810486.97147  20766914.0304                   20766911.6554
        46.5004         35.0004
  -6422530.61749  -9281419.93247  21494043.5154                   21494040.3584
        45.7504         28.0004
 -18429038.51649 -18531100.59946  21688950.6554                   21688949.3824
        38.5004         22.7504
 -34804481.27749 -28623246.92048  18751533.9294                   18751530.7534
        51.2504         40.2504
 -29167612.48849 -22682854.85048  18981381.9524                   18981379.0234
        49.0004         40.7504
  -5598707.68749 -10913229.16647  20888948.7574                   20888948.0544
        43.7504         27.5004
 -13167277.61349 -10331465.26947  20856191.2024                   20856187.8434
        47.5004         33.5004
 03  1 16  2 34 29.9950000  0  8G17G15G29G30G 6G23G26G18
 -28045461.93749 -24069095.08448  19505153.6714                   19505150.7614
        50.7504         40.5004
 -15284573.60949 -15879983.78347  20749942.2574                   20749939.9564
        47.2504         34.5004
  -6469753.72349  -9318217.11647  21485057.3824                   21485054.9014
        44.0004         27.5004
 -18350159.64149 -18469636.58246  21703959.9834                   21703958.9564
        38.0004         22.7504
 -34815508.72749 -28631839.71648  18749435.5934                   18749431.9094
        51.2504         41.2504
 -29194865.37549 -22704090.82948  18976195.9054                   18976193.2144
        50.0004         40.7504
  -5679831.78549 -10976442.64647  20873511.3664                   20873509.6634
        44.0004         27.0004
 -13284357.28549 -10422696.14147  20833911.2414                   20833907.9724
        47.7504         34.2504
 03  1 16  2 34 59.9950000  0  8G17G15G29G30G 6G23G26G18
 -28097218.52349 -24109424.84648  19495304.7964                   19495301.9334
        50.2504         40.5004
 -15373581.07049 -15949340.16647  20733004.4294                   20733002.2734
        48.0004         34.2504
  -6516472.88749  -9354621.62047  21476167.5234                   21476164.3194
        45.5004         28.2504
 -18271177.27749 -18408091.86346  21718990.3824                   21718989.2764
        40.5004         23.7504
 -34826079.27049 -28640076.48648  18747423.7264                   18747420.7144
        51.0004         40.0004
 -29221595.09849 -22724919.16148  18971109.4604                   18971106.2574
        50.2504         40.2504
  -5760474.00049 -11039280.67247  20858165.6484                   20858163.1164
        42.5004         25.7504
 -13401131.09849 -10513688.68147  20811690.1874                   20811686.3194
        48.5004         34.5004
 03  1 16  2 35 29.9950000  0  8G17G15G29G30G 6G23G26G18
 -28148770.28949 -24149595.01848  19485494.7414                   19485491.7264
        50.7504         40.2504
 -15462410.11349 -16018557.52647  20716100.4834                   20716098.4684
        48.2504         34.5004
  -6562688.03149  -9390633.38347  21467373.0234                   21467370.0624
        46.2504         29.2504
 -18192095.87549 -18346470.07546  21734040.1244                   21734038.4564
        41.2504         24.5004
 -34836193.89149 -28647957.99248  18745498.9214                   18745495.9834
        50.7504         40.2504
 -29247803.79349 -22745341.48948  18966122.1244                   18966118.7614
        50.2504         40.0004
  -5840633.01249 -11101742.16847  20842911.6944                   20842909.3394
        43.7504         28.2504
 -13517598.80149 -10604442.69447  20789527.1794                   20789523.3434
        48.7504         33.5004
 03  1 16  2 35 59.9950000  0  9G17G15G29G30G 6G 2G23G26G18
 -28200115.35549 -24189604.12048  19475723.9764                   19475721.3664
        51.0004         40.2504
 -15551058.94149 -16087634.46647  20699231.5384                   20699229.0504
        48.5004         35.2504
  -6608396.08649  -9426250.01047  21458674.7734                   21458671.7964
        46.0004         29.0004
 -18112916.58249 -18284771.91846  21749106.3194                   21749105.4174
        39.2504         23.7504
 -34845850.05949 -28655482.27448  18743661.7884                   18743658.5384
        50.7504         40.5004
   -151032.40618                  24154021.312
        33.000
 -29273490.57449 -22765357.12948  18961233.9834                   18961230.9684
        50.5004         40.5004
  -5920304.35549 -11163823.65947  20827750.4684                   20827748.6484
        42.5004         28.0004
 -13633756.47749 -10694955.12747  20767423.1324                   20767418.9094
        49.0004         33.7504
 03  1 16  2 36 29.9950000  0  9G17G15G29G30G 6G 2G23G26G18
 -28251253.56249 -24229452.04448  19465992.9374                   19465989.7734
        51.0004         41.0004
 -15639526.20749 -16156569.90447  20682396.4604                   20682394.4954
        48.2504         34.2504
  -6653594.50049  -9461469.52547  21450073.7024                   21450070.9374
        45.7504         30.0004
 -18033641.26249 -18222998.98746  21764192.0074                   21764191.3044
        42.0004         24.5004
 -34855046.24249 -28662648.11048  18741911.7104                   18741908.3274
        51.5004         40.2504
   -248766.223 8                  24135424.804
        32.500
 -29298655.24249 -22784965.93148  18956444.9914                   18956441.8864
        50.2504         40.0004
  -5999483.88749 -11225521.93747  20812683.3984                   20812681.9994
        43.7504         28.7504
 -13749601.47749 -10785223.91447  20745378.1404                   20745374.4604
        48.0004         34.5004
